<?xml version="1.0" encoding="utf-8"?>
<gpx xmlns:xsi="http://www.w3.org/2001/XMLSchema-instance" xmlns:xsd="http://www.w3.org/2001/XMLSchema" version="1.1" creator="Shapelink.com" xmlns="http://www.topografix.com/GPX/1/1" xmlns:gpxtpx="http://www.garmin.com/xmlschemas/TrackPointExtension/v1">
  <metadata>
    <name>Løping 5.54 km, 2014-05-15</name>
    <desc></desc>
    <author><name>Mikael Blom</name></author> 
    <time>2014-05-15T16:21:14Z</time>
  </metadata>
  <trk>
    <name>Løping 5.54 km, 2014-05-15</name>
    <trkseg>
      <trkpt lat="59.9090131" lon="17.713561">
        <ele>40.9934</ele>
        <time>2014-05-15T16:21:14Z</time>
      </trkpt>
      <trkpt lat="59.909028" lon="17.7135968">
        <ele>41.474</ele>
        <time>2014-05-15T16:21:15Z</time>
      </trkpt>
      <trkpt lat="59.9090431" lon="17.7136313">
        <ele>40.5128</ele>
        <time>2014-05-15T16:21:16Z</time>
      </trkpt>
      <trkpt lat="59.9090581" lon="17.7136756">
        <ele>40.0321</ele>
        <time>2014-05-15T16:21:17Z</time>
      </trkpt>
      <trkpt lat="59.909084" lon="17.7137109">
        <ele>40.9934</ele>
        <time>2014-05-15T16:21:18Z</time>
      </trkpt>
      <trkpt lat="59.9091035" lon="17.7137517">
        <ele>41.474</ele>
        <time>2014-05-15T16:21:19Z</time>
      </trkpt>
      <trkpt lat="59.9091239" lon="17.71379">
        <ele>41.474</ele>
        <time>2014-05-15T16:21:20Z</time>
      </trkpt>
      <trkpt lat="59.9091478" lon="17.7138217">
        <ele>42.4354</ele>
        <time>2014-05-15T16:21:21Z</time>
      </trkpt>
      <trkpt lat="59.9091633" lon="17.7138474">
        <ele>42.916</ele>
        <time>2014-05-15T16:21:22Z</time>
      </trkpt>
      <trkpt lat="59.9091761" lon="17.7138711">
        <ele>42.916</ele>
        <time>2014-05-15T16:21:23Z</time>
      </trkpt>
      <trkpt lat="59.9091948" lon="17.7138944">
        <ele>43.3966</ele>
        <time>2014-05-15T16:21:24Z</time>
      </trkpt>
      <trkpt lat="59.9092206" lon="17.7139128">
        <ele>44.358</ele>
        <time>2014-05-15T16:21:25Z</time>
      </trkpt>
      <trkpt lat="59.9092534" lon="17.7139293">
        <ele>45.3192</ele>
        <time>2014-05-15T16:21:26Z</time>
      </trkpt>
      <trkpt lat="59.9092932" lon="17.7139307">
        <ele>45.7999</ele>
        <time>2014-05-15T16:21:27Z</time>
      </trkpt>
      <trkpt lat="59.9093281" lon="17.7139268">
        <ele>45.7999</ele>
        <time>2014-05-15T16:21:28Z</time>
      </trkpt>
      <trkpt lat="59.9093622" lon="17.713922">
        <ele>46.7612</ele>
        <time>2014-05-15T16:21:29Z</time>
      </trkpt>
      <trkpt lat="59.9093907" lon="17.7139225">
        <ele>47.2418</ele>
        <time>2014-05-15T16:21:30Z</time>
      </trkpt>
      <trkpt lat="59.9094222" lon="17.7139251">
        <ele>48.2034</ele>
        <time>2014-05-15T16:21:31Z</time>
      </trkpt>
      <trkpt lat="59.9094501" lon="17.7139269">
        <ele>48.2034</ele>
        <time>2014-05-15T16:21:32Z</time>
      </trkpt>
      <trkpt lat="59.9094811" lon="17.7139293">
        <ele>49.6453</ele>
        <time>2014-05-15T16:21:33Z</time>
      </trkpt>
      <trkpt lat="59.909516" lon="17.7139367">
        <ele>50.126</ele>
        <time>2014-05-15T16:21:34Z</time>
      </trkpt>
      <trkpt lat="59.9095471" lon="17.7139449">
        <ele>50.126</ele>
        <time>2014-05-15T16:21:35Z</time>
      </trkpt>
      <trkpt lat="59.90957" lon="17.7139454">
        <ele>50.6066</ele>
        <time>2014-05-15T16:21:36Z</time>
      </trkpt>
      <trkpt lat="59.9095982" lon="17.7139465">
        <ele>50.6066</ele>
        <time>2014-05-15T16:21:37Z</time>
      </trkpt>
      <trkpt lat="59.9096643" lon="17.7139515">
        <ele>50.6066</ele>
        <time>2014-05-15T16:21:39Z</time>
      </trkpt>
      <trkpt lat="59.9096895" lon="17.7139547">
        <ele>50.126</ele>
        <time>2014-05-15T16:21:40Z</time>
      </trkpt>
      <trkpt lat="59.9097185" lon="17.7139645">
        <ele>51.0872</ele>
        <time>2014-05-15T16:21:41Z</time>
      </trkpt>
      <trkpt lat="59.9097515" lon="17.7139673">
        <ele>51.5679</ele>
        <time>2014-05-15T16:21:42Z</time>
      </trkpt>
      <trkpt lat="59.9097926" lon="17.7139695">
        <ele>53.0098</ele>
        <time>2014-05-15T16:21:43Z</time>
      </trkpt>
      <trkpt lat="59.9098263" lon="17.7139734">
        <ele>53.4905</ele>
        <time>2014-05-15T16:21:44Z</time>
      </trkpt>
      <trkpt lat="59.9098605" lon="17.7139661">
        <ele>54.4518</ele>
        <time>2014-05-15T16:21:45Z</time>
      </trkpt>
      <trkpt lat="59.9098842" lon="17.7139597">
        <ele>53.4905</ele>
        <time>2014-05-15T16:21:46Z</time>
      </trkpt>
      <trkpt lat="59.9099118" lon="17.7139542">
        <ele>53.4905</ele>
        <time>2014-05-15T16:21:47Z</time>
      </trkpt>
      <trkpt lat="59.9099408" lon="17.7139604">
        <ele>54.4518</ele>
        <time>2014-05-15T16:21:48Z</time>
      </trkpt>
      <trkpt lat="59.9099615" lon="17.7139833">
        <ele>54.9324</ele>
        <time>2014-05-15T16:21:49Z</time>
      </trkpt>
      <trkpt lat="59.90999" lon="17.7140054">
        <ele>56.3745</ele>
        <time>2014-05-15T16:21:50Z</time>
      </trkpt>
      <trkpt lat="59.910012" lon="17.7140199">
        <ele>56.3745</ele>
        <time>2014-05-15T16:21:51Z</time>
      </trkpt>
      <trkpt lat="59.9100335" lon="17.7140381">
        <ele>56.3745</ele>
        <time>2014-05-15T16:21:52Z</time>
      </trkpt>
      <trkpt lat="59.9100562" lon="17.7140501">
        <ele>56.8551</ele>
        <time>2014-05-15T16:21:53Z</time>
      </trkpt>
      <trkpt lat="59.9100848" lon="17.7140525">
        <ele>58.2971</ele>
        <time>2014-05-15T16:21:54Z</time>
      </trkpt>
      <trkpt lat="59.9101079" lon="17.7140464">
        <ele>57.8165</ele>
        <time>2014-05-15T16:21:55Z</time>
      </trkpt>
      <trkpt lat="59.9101369" lon="17.7140418">
        <ele>58.2971</ele>
        <time>2014-05-15T16:21:56Z</time>
      </trkpt>
      <trkpt lat="59.9101616" lon="17.7140432">
        <ele>57.8165</ele>
        <time>2014-05-15T16:21:57Z</time>
      </trkpt>
      <trkpt lat="59.9101913" lon="17.7140489">
        <ele>59.2584</ele>
        <time>2014-05-15T16:21:58Z</time>
      </trkpt>
      <trkpt lat="59.9102174" lon="17.7140581">
        <ele>60.2197</ele>
        <time>2014-05-15T16:21:59Z</time>
      </trkpt>
      <trkpt lat="59.9102413" lon="17.7140724">
        <ele>59.7391</ele>
        <time>2014-05-15T16:22:00Z</time>
      </trkpt>
      <trkpt lat="59.9102804" lon="17.7140971">
        <ele>60.2197</ele>
        <time>2014-05-15T16:22:01Z</time>
      </trkpt>
      <trkpt lat="59.9103153" lon="17.714125">
        <ele>60.2197</ele>
        <time>2014-05-15T16:22:02Z</time>
      </trkpt>
      <trkpt lat="59.9103441" lon="17.7141603">
        <ele>59.7391</ele>
        <time>2014-05-15T16:22:03Z</time>
      </trkpt>
      <trkpt lat="59.9103764" lon="17.7142029">
        <ele>60.2197</ele>
        <time>2014-05-15T16:22:04Z</time>
      </trkpt>
      <trkpt lat="59.9104073" lon="17.7142406">
        <ele>60.2197</ele>
        <time>2014-05-15T16:22:05Z</time>
      </trkpt>
      <trkpt lat="59.9104263" lon="17.7142807">
        <ele>58.7777</ele>
        <time>2014-05-15T16:22:06Z</time>
      </trkpt>
      <trkpt lat="59.9104411" lon="17.7143272">
        <ele>58.7777</ele>
        <time>2014-05-15T16:22:07Z</time>
      </trkpt>
      <trkpt lat="59.9104515" lon="17.71437">
        <ele>57.3358</ele>
        <time>2014-05-15T16:22:08Z</time>
      </trkpt>
      <trkpt lat="59.9104575" lon="17.7144203">
        <ele>56.3745</ele>
        <time>2014-05-15T16:22:09Z</time>
      </trkpt>
      <trkpt lat="59.9104582" lon="17.7144722">
        <ele>54.9324</ele>
        <time>2014-05-15T16:22:10Z</time>
      </trkpt>
      <trkpt lat="59.910457" lon="17.7145249">
        <ele>53.9712</ele>
        <time>2014-05-15T16:22:11Z</time>
      </trkpt>
      <trkpt lat="59.9104535" lon="17.7145758">
        <ele>52.0486</ele>
        <time>2014-05-15T16:22:12Z</time>
      </trkpt>
      <trkpt lat="59.9104473" lon="17.7146298">
        <ele>51.0872</ele>
        <time>2014-05-15T16:22:13Z</time>
      </trkpt>
      <trkpt lat="59.9104396" lon="17.7146872">
        <ele>50.126</ele>
        <time>2014-05-15T16:22:14Z</time>
      </trkpt>
      <trkpt lat="59.9104396" lon="17.7147476">
        <ele>50.126</ele>
        <time>2014-05-15T16:22:15Z</time>
      </trkpt>
      <trkpt lat="59.9104417" lon="17.7148011">
        <ele>49.1646</ele>
        <time>2014-05-15T16:22:16Z</time>
      </trkpt>
      <trkpt lat="59.9104456" lon="17.7148699">
        <ele>49.6453</ele>
        <time>2014-05-15T16:22:17Z</time>
      </trkpt>
      <trkpt lat="59.9104415" lon="17.7149388">
        <ele>49.6453</ele>
        <time>2014-05-15T16:22:18Z</time>
      </trkpt>
      <trkpt lat="59.9104313" lon="17.7150016">
        <ele>49.6453</ele>
        <time>2014-05-15T16:22:19Z</time>
      </trkpt>
      <trkpt lat="59.9104249" lon="17.7150555">
        <ele>49.1646</ele>
        <time>2014-05-15T16:22:20Z</time>
      </trkpt>
      <trkpt lat="59.9104168" lon="17.7151062">
        <ele>48.2034</ele>
        <time>2014-05-15T16:22:21Z</time>
      </trkpt>
      <trkpt lat="59.9104159" lon="17.7151585">
        <ele>47.7225</ele>
        <time>2014-05-15T16:22:22Z</time>
      </trkpt>
      <trkpt lat="59.9104107" lon="17.715206">
        <ele>46.2806</ele>
        <time>2014-05-15T16:22:23Z</time>
      </trkpt>
      <trkpt lat="59.9104063" lon="17.7152601">
        <ele>45.3192</ele>
        <time>2014-05-15T16:22:24Z</time>
      </trkpt>
      <trkpt lat="59.9104084" lon="17.7153166">
        <ele>44.8386</ele>
        <time>2014-05-15T16:22:25Z</time>
      </trkpt>
      <trkpt lat="59.9104141" lon="17.715374">
        <ele>44.8386</ele>
        <time>2014-05-15T16:22:26Z</time>
      </trkpt>
      <trkpt lat="59.9104224" lon="17.7154336">
        <ele>44.8386</ele>
        <time>2014-05-15T16:22:27Z</time>
      </trkpt>
      <trkpt lat="59.9104287" lon="17.7154928">
        <ele>43.8773</ele>
        <time>2014-05-15T16:22:28Z</time>
      </trkpt>
      <trkpt lat="59.9104348" lon="17.7155495">
        <ele>42.916</ele>
        <time>2014-05-15T16:22:29Z</time>
      </trkpt>
      <trkpt lat="59.9104469" lon="17.7156072">
        <ele>43.3966</ele>
        <time>2014-05-15T16:22:30Z</time>
      </trkpt>
      <trkpt lat="59.9104636" lon="17.7156642">
        <ele>43.3966</ele>
        <time>2014-05-15T16:22:31Z</time>
      </trkpt>
      <trkpt lat="59.9104765" lon="17.7157186">
        <ele>43.3966</ele>
        <time>2014-05-15T16:22:32Z</time>
      </trkpt>
      <trkpt lat="59.9104899" lon="17.7157719">
        <ele>43.3966</ele>
        <time>2014-05-15T16:22:33Z</time>
      </trkpt>
      <trkpt lat="59.9105029" lon="17.7158292">
        <ele>43.3966</ele>
        <time>2014-05-15T16:22:34Z</time>
      </trkpt>
      <trkpt lat="59.9105079" lon="17.7158917">
        <ele>43.3966</ele>
        <time>2014-05-15T16:22:35Z</time>
      </trkpt>
      <trkpt lat="59.9105143" lon="17.715952">
        <ele>43.3966</ele>
        <time>2014-05-15T16:22:36Z</time>
      </trkpt>
      <trkpt lat="59.910524" lon="17.7160111">
        <ele>43.3966</ele>
        <time>2014-05-15T16:22:37Z</time>
      </trkpt>
      <trkpt lat="59.9105333" lon="17.7160682">
        <ele>43.3966</ele>
        <time>2014-05-15T16:22:38Z</time>
      </trkpt>
      <trkpt lat="59.9105449" lon="17.7161177">
        <ele>42.916</ele>
        <time>2014-05-15T16:22:39Z</time>
      </trkpt>
      <trkpt lat="59.9105583" lon="17.7161672">
        <ele>42.916</ele>
        <time>2014-05-15T16:22:40Z</time>
      </trkpt>
      <trkpt lat="59.9105708" lon="17.7162169">
        <ele>42.4354</ele>
        <time>2014-05-15T16:22:41Z</time>
      </trkpt>
      <trkpt lat="59.9105913" lon="17.7162589">
        <ele>42.4354</ele>
        <time>2014-05-15T16:22:42Z</time>
      </trkpt>
      <trkpt lat="59.9106163" lon="17.7162976">
        <ele>42.4354</ele>
        <time>2014-05-15T16:22:43Z</time>
      </trkpt>
      <trkpt lat="59.9106381" lon="17.7163353">
        <ele>41.9547</ele>
        <time>2014-05-15T16:22:44Z</time>
      </trkpt>
      <trkpt lat="59.9106619" lon="17.7163722">
        <ele>42.4354</ele>
        <time>2014-05-15T16:22:45Z</time>
      </trkpt>
      <trkpt lat="59.9106839" lon="17.7164035">
        <ele>41.474</ele>
        <time>2014-05-15T16:22:46Z</time>
      </trkpt>
      <trkpt lat="59.9107064" lon="17.7164339">
        <ele>41.9547</ele>
        <time>2014-05-15T16:22:47Z</time>
      </trkpt>
      <trkpt lat="59.9107336" lon="17.7164602">
        <ele>41.9547</ele>
        <time>2014-05-15T16:22:48Z</time>
      </trkpt>
      <trkpt lat="59.9107622" lon="17.7164824">
        <ele>41.474</ele>
        <time>2014-05-15T16:22:49Z</time>
      </trkpt>
      <trkpt lat="59.9107944" lon="17.7165048">
        <ele>41.474</ele>
        <time>2014-05-15T16:22:50Z</time>
      </trkpt>
      <trkpt lat="59.9108285" lon="17.7165184">
        <ele>40.9934</ele>
        <time>2014-05-15T16:22:51Z</time>
      </trkpt>
      <trkpt lat="59.91086" lon="17.7165286">
        <ele>41.9547</ele>
        <time>2014-05-15T16:22:52Z</time>
      </trkpt>
      <trkpt lat="59.9108867" lon="17.7165392">
        <ele>41.9547</ele>
        <time>2014-05-15T16:22:53Z</time>
      </trkpt>
      <trkpt lat="59.9109146" lon="17.7165474">
        <ele>42.4354</ele>
        <time>2014-05-15T16:22:54Z</time>
      </trkpt>
      <trkpt lat="59.9109405" lon="17.7165527">
        <ele>41.9547</ele>
        <time>2014-05-15T16:22:55Z</time>
      </trkpt>
      <trkpt lat="59.9109704" lon="17.7165499">
        <ele>41.9547</ele>
        <time>2014-05-15T16:22:56Z</time>
      </trkpt>
      <trkpt lat="59.9109995" lon="17.7165427">
        <ele>41.9547</ele>
        <time>2014-05-15T16:22:57Z</time>
      </trkpt>
      <trkpt lat="59.9110235" lon="17.7165348">
        <ele>41.9547</ele>
        <time>2014-05-15T16:22:58Z</time>
      </trkpt>
      <trkpt lat="59.9110509" lon="17.7165198">
        <ele>41.9547</ele>
        <time>2014-05-15T16:22:59Z</time>
      </trkpt>
      <trkpt lat="59.9110761" lon="17.7165001">
        <ele>42.4354</ele>
        <time>2014-05-15T16:23:00Z</time>
      </trkpt>
      <trkpt lat="59.9110996" lon="17.7164795">
        <ele>42.4354</ele>
        <time>2014-05-15T16:23:01Z</time>
      </trkpt>
      <trkpt lat="59.9111297" lon="17.7164593">
        <ele>42.916</ele>
        <time>2014-05-15T16:23:02Z</time>
      </trkpt>
      <trkpt lat="59.9111581" lon="17.7164524">
        <ele>43.3966</ele>
        <time>2014-05-15T16:23:03Z</time>
      </trkpt>
      <trkpt lat="59.911185" lon="17.7164444">
        <ele>43.8773</ele>
        <time>2014-05-15T16:23:04Z</time>
      </trkpt>
      <trkpt lat="59.9112078" lon="17.716436">
        <ele>43.3966</ele>
        <time>2014-05-15T16:23:05Z</time>
      </trkpt>
      <trkpt lat="59.9112351" lon="17.7164257">
        <ele>43.3966</ele>
        <time>2014-05-15T16:23:06Z</time>
      </trkpt>
      <trkpt lat="59.9112617" lon="17.7164158">
        <ele>43.3966</ele>
        <time>2014-05-15T16:23:07Z</time>
      </trkpt>
      <trkpt lat="59.9112843" lon="17.7164106">
        <ele>42.916</ele>
        <time>2014-05-15T16:23:08Z</time>
      </trkpt>
      <trkpt lat="59.9113073" lon="17.7164069">
        <ele>43.3966</ele>
        <time>2014-05-15T16:23:09Z</time>
      </trkpt>
      <trkpt lat="59.9113363" lon="17.7163996">
        <ele>43.8773</ele>
        <time>2014-05-15T16:23:10Z</time>
      </trkpt>
      <trkpt lat="59.911362" lon="17.7163956">
        <ele>43.8773</ele>
        <time>2014-05-15T16:23:11Z</time>
      </trkpt>
      <trkpt lat="59.9113915" lon="17.716395">
        <ele>44.358</ele>
        <time>2014-05-15T16:23:12Z</time>
      </trkpt>
      <trkpt lat="59.9114161" lon="17.7164043">
        <ele>44.358</ele>
        <time>2014-05-15T16:23:13Z</time>
      </trkpt>
      <trkpt lat="59.9114392" lon="17.7164085">
        <ele>43.8773</ele>
        <time>2014-05-15T16:23:14Z</time>
      </trkpt>
      <trkpt lat="59.9114648" lon="17.7164125">
        <ele>43.8773</ele>
        <time>2014-05-15T16:23:15Z</time>
      </trkpt>
      <trkpt lat="59.9114864" lon="17.7164125">
        <ele>43.3966</ele>
        <time>2014-05-15T16:23:16Z</time>
      </trkpt>
      <trkpt lat="59.9115093" lon="17.7164049">
        <ele>43.3966</ele>
        <time>2014-05-15T16:23:17Z</time>
      </trkpt>
      <trkpt lat="59.911532" lon="17.7163931">
        <ele>43.3966</ele>
        <time>2014-05-15T16:23:18Z</time>
      </trkpt>
      <trkpt lat="59.9115524" lon="17.7163793">
        <ele>43.3966</ele>
        <time>2014-05-15T16:23:19Z</time>
      </trkpt>
      <trkpt lat="59.911576" lon="17.7163604">
        <ele>43.3966</ele>
        <time>2014-05-15T16:23:20Z</time>
      </trkpt>
      <trkpt lat="59.9116015" lon="17.7163408">
        <ele>42.916</ele>
        <time>2014-05-15T16:23:21Z</time>
      </trkpt>
      <trkpt lat="59.9116277" lon="17.7163242">
        <ele>42.4354</ele>
        <time>2014-05-15T16:23:22Z</time>
      </trkpt>
      <trkpt lat="59.9116503" lon="17.7163068">
        <ele>41.9547</ele>
        <time>2014-05-15T16:23:23Z</time>
      </trkpt>
      <trkpt lat="59.9116771" lon="17.716279">
        <ele>42.4354</ele>
        <time>2014-05-15T16:23:24Z</time>
      </trkpt>
      <trkpt lat="59.9116994" lon="17.7162526">
        <ele>42.4354</ele>
        <time>2014-05-15T16:23:25Z</time>
      </trkpt>
      <trkpt lat="59.9117216" lon="17.7162221">
        <ele>42.4354</ele>
        <time>2014-05-15T16:23:26Z</time>
      </trkpt>
      <trkpt lat="59.911743" lon="17.7161879">
        <ele>41.9547</ele>
        <time>2014-05-15T16:23:27Z</time>
      </trkpt>
      <trkpt lat="59.9117677" lon="17.7161524">
        <ele>41.9547</ele>
        <time>2014-05-15T16:23:28Z</time>
      </trkpt>
      <trkpt lat="59.9117873" lon="17.7161158">
        <ele>41.9547</ele>
        <time>2014-05-15T16:23:29Z</time>
      </trkpt>
      <trkpt lat="59.9118055" lon="17.7160699">
        <ele>41.474</ele>
        <time>2014-05-15T16:23:30Z</time>
      </trkpt>
      <trkpt lat="59.9118266" lon="17.7160199">
        <ele>40.9934</ele>
        <time>2014-05-15T16:23:31Z</time>
      </trkpt>
      <trkpt lat="59.9118439" lon="17.7159616">
        <ele>40.5128</ele>
        <time>2014-05-15T16:23:32Z</time>
      </trkpt>
      <trkpt lat="59.9118596" lon="17.7159029">
        <ele>40.5128</ele>
        <time>2014-05-15T16:23:33Z</time>
      </trkpt>
      <trkpt lat="59.9118743" lon="17.7158552">
        <ele>40.0321</ele>
        <time>2014-05-15T16:23:34Z</time>
      </trkpt>
      <trkpt lat="59.911895" lon="17.7158097">
        <ele>40.5128</ele>
        <time>2014-05-15T16:23:35Z</time>
      </trkpt>
      <trkpt lat="59.9119159" lon="17.7157699">
        <ele>40.5128</ele>
        <time>2014-05-15T16:23:36Z</time>
      </trkpt>
      <trkpt lat="59.911935" lon="17.7157306">
        <ele>40.5128</ele>
        <time>2014-05-15T16:23:37Z</time>
      </trkpt>
      <trkpt lat="59.9119569" lon="17.715687">
        <ele>40.5128</ele>
        <time>2014-05-15T16:23:38Z</time>
      </trkpt>
      <trkpt lat="59.9119779" lon="17.7156434">
        <ele>40.0321</ele>
        <time>2014-05-15T16:23:39Z</time>
      </trkpt>
      <trkpt lat="59.9119972" lon="17.7156076">
        <ele>40.0321</ele>
        <time>2014-05-15T16:23:40Z</time>
      </trkpt>
      <trkpt lat="59.9120181" lon="17.7155725">
        <ele>40.5128</ele>
        <time>2014-05-15T16:23:41Z</time>
      </trkpt>
      <trkpt lat="59.9120433" lon="17.7155352">
        <ele>40.5128</ele>
        <time>2014-05-15T16:23:42Z</time>
      </trkpt>
      <trkpt lat="59.9120682" lon="17.7154917">
        <ele>40.5128</ele>
        <time>2014-05-15T16:23:43Z</time>
      </trkpt>
      <trkpt lat="59.912091" lon="17.7154594">
        <ele>40.5128</ele>
        <time>2014-05-15T16:23:44Z</time>
      </trkpt>
      <trkpt lat="59.9121126" lon="17.7154348">
        <ele>40.0321</ele>
        <time>2014-05-15T16:23:45Z</time>
      </trkpt>
      <trkpt lat="59.9121414" lon="17.7153996">
        <ele>40.0321</ele>
        <time>2014-05-15T16:23:46Z</time>
      </trkpt>
      <trkpt lat="59.9121709" lon="17.7153636">
        <ele>40.0321</ele>
        <time>2014-05-15T16:23:47Z</time>
      </trkpt>
      <trkpt lat="59.9121961" lon="17.7153317">
        <ele>40.0321</ele>
        <time>2014-05-15T16:23:48Z</time>
      </trkpt>
      <trkpt lat="59.9122239" lon="17.7153057">
        <ele>40.0321</ele>
        <time>2014-05-15T16:23:49Z</time>
      </trkpt>
      <trkpt lat="59.9122516" lon="17.7152865">
        <ele>40.0321</ele>
        <time>2014-05-15T16:23:50Z</time>
      </trkpt>
      <trkpt lat="59.9122729" lon="17.7152768">
        <ele>39.5513</ele>
        <time>2014-05-15T16:23:51Z</time>
      </trkpt>
      <trkpt lat="59.9122956" lon="17.7152751">
        <ele>39.0707</ele>
        <time>2014-05-15T16:23:52Z</time>
      </trkpt>
      <trkpt lat="59.9123194" lon="17.7152791">
        <ele>39.0707</ele>
        <time>2014-05-15T16:23:53Z</time>
      </trkpt>
      <trkpt lat="59.9123444" lon="17.7152942">
        <ele>39.0707</ele>
        <time>2014-05-15T16:23:54Z</time>
      </trkpt>
      <trkpt lat="59.9123681" lon="17.7153234">
        <ele>38.5901</ele>
        <time>2014-05-15T16:23:55Z</time>
      </trkpt>
      <trkpt lat="59.9123882" lon="17.7153522">
        <ele>37.6287</ele>
        <time>2014-05-15T16:23:56Z</time>
      </trkpt>
      <trkpt lat="59.912408" lon="17.7153663">
        <ele>37.1481</ele>
        <time>2014-05-15T16:23:57Z</time>
      </trkpt>
      <trkpt lat="59.9124308" lon="17.7153721">
        <ele>37.1481</ele>
        <time>2014-05-15T16:23:58Z</time>
      </trkpt>
      <trkpt lat="59.9124536" lon="17.7153899">
        <ele>36.6675</ele>
        <time>2014-05-15T16:23:59Z</time>
      </trkpt>
      <trkpt lat="59.9124771" lon="17.7154169">
        <ele>36.6675</ele>
        <time>2014-05-15T16:24:00Z</time>
      </trkpt>
      <trkpt lat="59.9125006" lon="17.7154537">
        <ele>36.6675</ele>
        <time>2014-05-15T16:24:01Z</time>
      </trkpt>
      <trkpt lat="59.9125214" lon="17.7154911">
        <ele>36.1868</ele>
        <time>2014-05-15T16:24:02Z</time>
      </trkpt>
      <trkpt lat="59.9125495" lon="17.71552">
        <ele>36.6675</ele>
        <time>2014-05-15T16:24:03Z</time>
      </trkpt>
      <trkpt lat="59.9125707" lon="17.7155475">
        <ele>36.1868</ele>
        <time>2014-05-15T16:24:04Z</time>
      </trkpt>
      <trkpt lat="59.9125926" lon="17.7155689">
        <ele>36.1868</ele>
        <time>2014-05-15T16:24:05Z</time>
      </trkpt>
      <trkpt lat="59.9126172" lon="17.7155964">
        <ele>36.6675</ele>
        <time>2014-05-15T16:24:06Z</time>
      </trkpt>
      <trkpt lat="59.9126435" lon="17.7156253">
        <ele>36.1868</ele>
        <time>2014-05-15T16:24:07Z</time>
      </trkpt>
      <trkpt lat="59.9126671" lon="17.71566">
        <ele>36.1868</ele>
        <time>2014-05-15T16:24:08Z</time>
      </trkpt>
      <trkpt lat="59.9126814" lon="17.7156937">
        <ele>35.7061</ele>
        <time>2014-05-15T16:24:09Z</time>
      </trkpt>
      <trkpt lat="59.9127018" lon="17.7157328">
        <ele>36.1868</ele>
        <time>2014-05-15T16:24:10Z</time>
      </trkpt>
      <trkpt lat="59.9127229" lon="17.7157725">
        <ele>36.1868</ele>
        <time>2014-05-15T16:24:11Z</time>
      </trkpt>
      <trkpt lat="59.9127459" lon="17.7158108">
        <ele>36.1868</ele>
        <time>2014-05-15T16:24:12Z</time>
      </trkpt>
      <trkpt lat="59.9127613" lon="17.7158564">
        <ele>36.1868</ele>
        <time>2014-05-15T16:24:13Z</time>
      </trkpt>
      <trkpt lat="59.9127783" lon="17.7159061">
        <ele>36.1868</ele>
        <time>2014-05-15T16:24:14Z</time>
      </trkpt>
      <trkpt lat="59.9127914" lon="17.7159577">
        <ele>35.2255</ele>
        <time>2014-05-15T16:24:15Z</time>
      </trkpt>
      <trkpt lat="59.9128103" lon="17.7160067">
        <ele>35.7061</ele>
        <time>2014-05-15T16:24:16Z</time>
      </trkpt>
      <trkpt lat="59.9128301" lon="17.7160469">
        <ele>35.7061</ele>
        <time>2014-05-15T16:24:17Z</time>
      </trkpt>
      <trkpt lat="59.9128557" lon="17.7160851">
        <ele>35.7061</ele>
        <time>2014-05-15T16:24:18Z</time>
      </trkpt>
      <trkpt lat="59.9128836" lon="17.7161291">
        <ele>36.1868</ele>
        <time>2014-05-15T16:24:19Z</time>
      </trkpt>
      <trkpt lat="59.9129064" lon="17.716169">
        <ele>36.6675</ele>
        <time>2014-05-15T16:24:20Z</time>
      </trkpt>
      <trkpt lat="59.9129305" lon="17.7162112">
        <ele>38.1094</ele>
        <time>2014-05-15T16:24:21Z</time>
      </trkpt>
      <trkpt lat="59.9129514" lon="17.71626">
        <ele>39.0707</ele>
        <time>2014-05-15T16:24:22Z</time>
      </trkpt>
      <trkpt lat="59.9129706" lon="17.7163059">
        <ele>39.0707</ele>
        <time>2014-05-15T16:24:23Z</time>
      </trkpt>
      <trkpt lat="59.912986" lon="17.7163426">
        <ele>38.5901</ele>
        <time>2014-05-15T16:24:24Z</time>
      </trkpt>
      <trkpt lat="59.913003" lon="17.7163889">
        <ele>39.0707</ele>
        <time>2014-05-15T16:24:25Z</time>
      </trkpt>
      <trkpt lat="59.9130145" lon="17.7164339">
        <ele>38.5901</ele>
        <time>2014-05-15T16:24:26Z</time>
      </trkpt>
      <trkpt lat="59.9130315" lon="17.7164795">
        <ele>38.1094</ele>
        <time>2014-05-15T16:24:27Z</time>
      </trkpt>
      <trkpt lat="59.913054" lon="17.7165267">
        <ele>38.5901</ele>
        <time>2014-05-15T16:24:28Z</time>
      </trkpt>
      <trkpt lat="59.9130731" lon="17.7165722">
        <ele>38.5901</ele>
        <time>2014-05-15T16:24:29Z</time>
      </trkpt>
      <trkpt lat="59.9130866" lon="17.716619">
        <ele>38.1094</ele>
        <time>2014-05-15T16:24:30Z</time>
      </trkpt>
      <trkpt lat="59.9131012" lon="17.7166658">
        <ele>38.1094</ele>
        <time>2014-05-15T16:24:31Z</time>
      </trkpt>
      <trkpt lat="59.9131198" lon="17.7167059">
        <ele>38.5901</ele>
        <time>2014-05-15T16:24:32Z</time>
      </trkpt>
      <trkpt lat="59.913139" lon="17.7167519">
        <ele>39.0707</ele>
        <time>2014-05-15T16:24:33Z</time>
      </trkpt>
      <trkpt lat="59.9131602" lon="17.7168022">
        <ele>39.5513</ele>
        <time>2014-05-15T16:24:34Z</time>
      </trkpt>
      <trkpt lat="59.9131818" lon="17.7168497">
        <ele>40.0321</ele>
        <time>2014-05-15T16:24:35Z</time>
      </trkpt>
      <trkpt lat="59.9132123" lon="17.7169364">
        <ele>38.5901</ele>
        <time>2014-05-15T16:24:37Z</time>
      </trkpt>
      <trkpt lat="59.9132211" lon="17.7169839">
        <ele>38.1094</ele>
        <time>2014-05-15T16:24:38Z</time>
      </trkpt>
      <trkpt lat="59.9132299" lon="17.7170323">
        <ele>38.1094</ele>
        <time>2014-05-15T16:24:39Z</time>
      </trkpt>
      <trkpt lat="59.9132374" lon="17.7170721">
        <ele>37.6287</ele>
        <time>2014-05-15T16:24:40Z</time>
      </trkpt>
      <trkpt lat="59.9132476" lon="17.7171151">
        <ele>38.1094</ele>
        <time>2014-05-15T16:24:41Z</time>
      </trkpt>
      <trkpt lat="59.9132591" lon="17.7171576">
        <ele>38.1094</ele>
        <time>2014-05-15T16:24:42Z</time>
      </trkpt>
      <trkpt lat="59.9132724" lon="17.7171993">
        <ele>38.1094</ele>
        <time>2014-05-15T16:24:43Z</time>
      </trkpt>
      <trkpt lat="59.9132908" lon="17.7172439">
        <ele>38.5901</ele>
        <time>2014-05-15T16:24:44Z</time>
      </trkpt>
      <trkpt lat="59.9133079" lon="17.7172822">
        <ele>39.0707</ele>
        <time>2014-05-15T16:24:45Z</time>
      </trkpt>
      <trkpt lat="59.9133202" lon="17.7173218">
        <ele>39.0707</ele>
        <time>2014-05-15T16:24:46Z</time>
      </trkpt>
      <trkpt lat="59.9133353" lon="17.7173674">
        <ele>40.0321</ele>
        <time>2014-05-15T16:24:47Z</time>
      </trkpt>
      <trkpt lat="59.9133476" lon="17.7174041">
        <ele>40.0321</ele>
        <time>2014-05-15T16:24:48Z</time>
      </trkpt>
      <trkpt lat="59.913362" lon="17.7174362">
        <ele>40.0321</ele>
        <time>2014-05-15T16:24:49Z</time>
      </trkpt>
      <trkpt lat="59.9133841" lon="17.7174699">
        <ele>40.5128</ele>
        <time>2014-05-15T16:24:50Z</time>
      </trkpt>
      <trkpt lat="59.9134052" lon="17.7175065">
        <ele>40.5128</ele>
        <time>2014-05-15T16:24:51Z</time>
      </trkpt>
      <trkpt lat="59.9134262" lon="17.717545">
        <ele>40.0321</ele>
        <time>2014-05-15T16:24:52Z</time>
      </trkpt>
      <trkpt lat="59.9134482" lon="17.7175791">
        <ele>40.0321</ele>
        <time>2014-05-15T16:24:53Z</time>
      </trkpt>
      <trkpt lat="59.9134673" lon="17.7176206">
        <ele>40.5128</ele>
        <time>2014-05-15T16:24:54Z</time>
      </trkpt>
      <trkpt lat="59.9134855" lon="17.7176574">
        <ele>40.5128</ele>
        <time>2014-05-15T16:24:55Z</time>
      </trkpt>
      <trkpt lat="59.9135091" lon="17.7176897">
        <ele>40.5128</ele>
        <time>2014-05-15T16:24:56Z</time>
      </trkpt>
      <trkpt lat="59.9135388" lon="17.7177244">
        <ele>40.5128</ele>
        <time>2014-05-15T16:24:57Z</time>
      </trkpt>
      <trkpt lat="59.9135671" lon="17.7177572">
        <ele>40.9934</ele>
        <time>2014-05-15T16:24:58Z</time>
      </trkpt>
      <trkpt lat="59.9135967" lon="17.7177923">
        <ele>41.9547</ele>
        <time>2014-05-15T16:24:59Z</time>
      </trkpt>
      <trkpt lat="59.9136239" lon="17.7178259">
        <ele>41.9547</ele>
        <time>2014-05-15T16:25:00Z</time>
      </trkpt>
      <trkpt lat="59.9136516" lon="17.7178611">
        <ele>42.916</ele>
        <time>2014-05-15T16:25:01Z</time>
      </trkpt>
      <trkpt lat="59.9136761" lon="17.7178935">
        <ele>42.4354</ele>
        <time>2014-05-15T16:25:02Z</time>
      </trkpt>
      <trkpt lat="59.9136979" lon="17.7179324">
        <ele>43.3966</ele>
        <time>2014-05-15T16:25:03Z</time>
      </trkpt>
      <trkpt lat="59.9137197" lon="17.7179627">
        <ele>43.8773</ele>
        <time>2014-05-15T16:25:04Z</time>
      </trkpt>
      <trkpt lat="59.9137424" lon="17.7179791">
        <ele>43.8773</ele>
        <time>2014-05-15T16:25:05Z</time>
      </trkpt>
      <trkpt lat="59.9137676" lon="17.7179894">
        <ele>44.358</ele>
        <time>2014-05-15T16:25:06Z</time>
      </trkpt>
      <trkpt lat="59.913792" lon="17.71799">
        <ele>43.8773</ele>
        <time>2014-05-15T16:25:07Z</time>
      </trkpt>
      <trkpt lat="59.9138207" lon="17.7179896">
        <ele>43.8773</ele>
        <time>2014-05-15T16:25:08Z</time>
      </trkpt>
      <trkpt lat="59.9138441" lon="17.7179901">
        <ele>43.8773</ele>
        <time>2014-05-15T16:25:09Z</time>
      </trkpt>
      <trkpt lat="59.9138669" lon="17.7179875">
        <ele>43.8773</ele>
        <time>2014-05-15T16:25:10Z</time>
      </trkpt>
      <trkpt lat="59.9138884" lon="17.7179808">
        <ele>43.8773</ele>
        <time>2014-05-15T16:25:11Z</time>
      </trkpt>
      <trkpt lat="59.9139104" lon="17.7179705">
        <ele>43.8773</ele>
        <time>2014-05-15T16:25:12Z</time>
      </trkpt>
      <trkpt lat="59.9139332" lon="17.7179532">
        <ele>43.8773</ele>
        <time>2014-05-15T16:25:13Z</time>
      </trkpt>
      <trkpt lat="59.91395" lon="17.7179349">
        <ele>43.3966</ele>
        <time>2014-05-15T16:25:14Z</time>
      </trkpt>
      <trkpt lat="59.9139714" lon="17.717922">
        <ele>43.3966</ele>
        <time>2014-05-15T16:25:15Z</time>
      </trkpt>
      <trkpt lat="59.9139945" lon="17.7179139">
        <ele>43.3966</ele>
        <time>2014-05-15T16:25:16Z</time>
      </trkpt>
      <trkpt lat="59.9140189" lon="17.7179139">
        <ele>43.8773</ele>
        <time>2014-05-15T16:25:17Z</time>
      </trkpt>
      <trkpt lat="59.9140433" lon="17.7179171">
        <ele>43.8773</ele>
        <time>2014-05-15T16:25:18Z</time>
      </trkpt>
      <trkpt lat="59.9140641" lon="17.7179297">
        <ele>42.916</ele>
        <time>2014-05-15T16:25:19Z</time>
      </trkpt>
      <trkpt lat="59.9140937" lon="17.7179517">
        <ele>42.916</ele>
        <time>2014-05-15T16:25:20Z</time>
      </trkpt>
      <trkpt lat="59.9141199" lon="17.7179766">
        <ele>42.4354</ele>
        <time>2014-05-15T16:25:21Z</time>
      </trkpt>
      <trkpt lat="59.9141429" lon="17.7180108">
        <ele>42.916</ele>
        <time>2014-05-15T16:25:22Z</time>
      </trkpt>
      <trkpt lat="59.9141613" lon="17.7180455">
        <ele>42.4354</ele>
        <time>2014-05-15T16:25:23Z</time>
      </trkpt>
      <trkpt lat="59.9141833" lon="17.7180746">
        <ele>42.4354</ele>
        <time>2014-05-15T16:25:24Z</time>
      </trkpt>
      <trkpt lat="59.9142081" lon="17.7181072">
        <ele>42.916</ele>
        <time>2014-05-15T16:25:25Z</time>
      </trkpt>
      <trkpt lat="59.9142277" lon="17.7181411">
        <ele>41.9547</ele>
        <time>2014-05-15T16:25:26Z</time>
      </trkpt>
      <trkpt lat="59.9142434" lon="17.7181785">
        <ele>41.9547</ele>
        <time>2014-05-15T16:25:27Z</time>
      </trkpt>
      <trkpt lat="59.9142593" lon="17.7182112">
        <ele>41.474</ele>
        <time>2014-05-15T16:25:28Z</time>
      </trkpt>
      <trkpt lat="59.9142779" lon="17.7182422">
        <ele>40.5128</ele>
        <time>2014-05-15T16:25:29Z</time>
      </trkpt>
      <trkpt lat="59.914294" lon="17.7182717">
        <ele>40.5128</ele>
        <time>2014-05-15T16:25:30Z</time>
      </trkpt>
      <trkpt lat="59.9143081" lon="17.7183029">
        <ele>40.5128</ele>
        <time>2014-05-15T16:25:31Z</time>
      </trkpt>
      <trkpt lat="59.9143304" lon="17.7183273">
        <ele>40.0321</ele>
        <time>2014-05-15T16:25:32Z</time>
      </trkpt>
      <trkpt lat="59.9143602" lon="17.7183379">
        <ele>39.5513</ele>
        <time>2014-05-15T16:25:33Z</time>
      </trkpt>
      <trkpt lat="59.9143851" lon="17.7183472">
        <ele>39.0707</ele>
        <time>2014-05-15T16:25:34Z</time>
      </trkpt>
      <trkpt lat="59.9144084" lon="17.7183628">
        <ele>38.5901</ele>
        <time>2014-05-15T16:25:35Z</time>
      </trkpt>
      <trkpt lat="59.9144351" lon="17.7183818">
        <ele>37.6287</ele>
        <time>2014-05-15T16:25:36Z</time>
      </trkpt>
      <trkpt lat="59.9144635" lon="17.7183999">
        <ele>37.6287</ele>
        <time>2014-05-15T16:25:37Z</time>
      </trkpt>
      <trkpt lat="59.9144941" lon="17.7184213">
        <ele>38.5901</ele>
        <time>2014-05-15T16:25:38Z</time>
      </trkpt>
      <trkpt lat="59.9145184" lon="17.7184521">
        <ele>38.1094</ele>
        <time>2014-05-15T16:25:39Z</time>
      </trkpt>
      <trkpt lat="59.9145415" lon="17.718483">
        <ele>38.1094</ele>
        <time>2014-05-15T16:25:40Z</time>
      </trkpt>
      <trkpt lat="59.914564" lon="17.7185115">
        <ele>38.1094</ele>
        <time>2014-05-15T16:25:41Z</time>
      </trkpt>
      <trkpt lat="59.9145836" lon="17.7185408">
        <ele>38.1094</ele>
        <time>2014-05-15T16:25:42Z</time>
      </trkpt>
      <trkpt lat="59.9146006" lon="17.7185722">
        <ele>38.1094</ele>
        <time>2014-05-15T16:25:43Z</time>
      </trkpt>
      <trkpt lat="59.9146254" lon="17.718607">
        <ele>38.5901</ele>
        <time>2014-05-15T16:25:44Z</time>
      </trkpt>
      <trkpt lat="59.9146541" lon="17.7186418">
        <ele>39.0707</ele>
        <time>2014-05-15T16:25:45Z</time>
      </trkpt>
      <trkpt lat="59.9146745" lon="17.7186732">
        <ele>39.0707</ele>
        <time>2014-05-15T16:25:46Z</time>
      </trkpt>
      <trkpt lat="59.9146918" lon="17.7187062">
        <ele>38.5901</ele>
        <time>2014-05-15T16:25:47Z</time>
      </trkpt>
      <trkpt lat="59.9147102" lon="17.7187478">
        <ele>39.5513</ele>
        <time>2014-05-15T16:25:48Z</time>
      </trkpt>
      <trkpt lat="59.914728" lon="17.7187857">
        <ele>40.5128</ele>
        <time>2014-05-15T16:25:49Z</time>
      </trkpt>
      <trkpt lat="59.9147405" lon="17.7188271">
        <ele>40.5128</ele>
        <time>2014-05-15T16:25:50Z</time>
      </trkpt>
      <trkpt lat="59.9147536" lon="17.7188751">
        <ele>40.9934</ele>
        <time>2014-05-15T16:25:51Z</time>
      </trkpt>
      <trkpt lat="59.9147705" lon="17.718924">
        <ele>41.9547</ele>
        <time>2014-05-15T16:25:52Z</time>
      </trkpt>
      <trkpt lat="59.9147869" lon="17.7189683">
        <ele>42.4354</ele>
        <time>2014-05-15T16:25:53Z</time>
      </trkpt>
      <trkpt lat="59.9148002" lon="17.7190137">
        <ele>42.916</ele>
        <time>2014-05-15T16:25:54Z</time>
      </trkpt>
      <trkpt lat="59.9148111" lon="17.7190629">
        <ele>43.3966</ele>
        <time>2014-05-15T16:25:55Z</time>
      </trkpt>
      <trkpt lat="59.9148218" lon="17.7191098">
        <ele>43.3966</ele>
        <time>2014-05-15T16:25:56Z</time>
      </trkpt>
      <trkpt lat="59.9148318" lon="17.7191642">
        <ele>42.916</ele>
        <time>2014-05-15T16:25:57Z</time>
      </trkpt>
      <trkpt lat="59.9148391" lon="17.7192203">
        <ele>43.3966</ele>
        <time>2014-05-15T16:25:58Z</time>
      </trkpt>
      <trkpt lat="59.9148438" lon="17.7192732">
        <ele>43.3966</ele>
        <time>2014-05-15T16:25:59Z</time>
      </trkpt>
      <trkpt lat="59.9148449" lon="17.7193275">
        <ele>42.916</ele>
        <time>2014-05-15T16:26:00Z</time>
      </trkpt>
      <trkpt lat="59.9148494" lon="17.7193798">
        <ele>42.916</ele>
        <time>2014-05-15T16:26:01Z</time>
      </trkpt>
      <trkpt lat="59.9148525" lon="17.7194338">
        <ele>42.916</ele>
        <time>2014-05-15T16:26:02Z</time>
      </trkpt>
      <trkpt lat="59.9148526" lon="17.7194913">
        <ele>43.3966</ele>
        <time>2014-05-15T16:26:03Z</time>
      </trkpt>
      <trkpt lat="59.9148557" lon="17.7195472">
        <ele>44.358</ele>
        <time>2014-05-15T16:26:04Z</time>
      </trkpt>
      <trkpt lat="59.9148544" lon="17.7196052">
        <ele>44.8386</ele>
        <time>2014-05-15T16:26:05Z</time>
      </trkpt>
      <trkpt lat="59.9148556" lon="17.7196646">
        <ele>44.8386</ele>
        <time>2014-05-15T16:26:06Z</time>
      </trkpt>
      <trkpt lat="59.9148544" lon="17.7197237">
        <ele>44.8386</ele>
        <time>2014-05-15T16:26:07Z</time>
      </trkpt>
      <trkpt lat="59.9148519" lon="17.7197781">
        <ele>44.358</ele>
        <time>2014-05-15T16:26:08Z</time>
      </trkpt>
      <trkpt lat="59.9148508" lon="17.719829">
        <ele>43.8773</ele>
        <time>2014-05-15T16:26:09Z</time>
      </trkpt>
      <trkpt lat="59.9148508" lon="17.7198922">
        <ele>44.8386</ele>
        <time>2014-05-15T16:26:10Z</time>
      </trkpt>
      <trkpt lat="59.914849" lon="17.7199495">
        <ele>44.358</ele>
        <time>2014-05-15T16:26:11Z</time>
      </trkpt>
      <trkpt lat="59.9148539" lon="17.7200173">
        <ele>45.7999</ele>
        <time>2014-05-15T16:26:12Z</time>
      </trkpt>
      <trkpt lat="59.9148573" lon="17.7200702">
        <ele>46.2806</ele>
        <time>2014-05-15T16:26:13Z</time>
      </trkpt>
      <trkpt lat="59.914867" lon="17.7201258">
        <ele>47.7225</ele>
        <time>2014-05-15T16:26:14Z</time>
      </trkpt>
      <trkpt lat="59.9148759" lon="17.7201795">
        <ele>48.684</ele>
        <time>2014-05-15T16:26:15Z</time>
      </trkpt>
      <trkpt lat="59.9148821" lon="17.7202216">
        <ele>48.2034</ele>
        <time>2014-05-15T16:26:16Z</time>
      </trkpt>
      <trkpt lat="59.914895" lon="17.7202636">
        <ele>48.684</ele>
        <time>2014-05-15T16:26:17Z</time>
      </trkpt>
      <trkpt lat="59.9149125" lon="17.7203084">
        <ele>48.684</ele>
        <time>2014-05-15T16:26:18Z</time>
      </trkpt>
      <trkpt lat="59.9149318" lon="17.7203484">
        <ele>49.1646</ele>
        <time>2014-05-15T16:26:19Z</time>
      </trkpt>
      <trkpt lat="59.9149525" lon="17.7203863">
        <ele>49.1646</ele>
        <time>2014-05-15T16:26:20Z</time>
      </trkpt>
      <trkpt lat="59.9149706" lon="17.7204252">
        <ele>49.1646</ele>
        <time>2014-05-15T16:26:21Z</time>
      </trkpt>
      <trkpt lat="59.914991" lon="17.7204551">
        <ele>49.6453</ele>
        <time>2014-05-15T16:26:22Z</time>
      </trkpt>
      <trkpt lat="59.9150072" lon="17.720477">
        <ele>49.6453</ele>
        <time>2014-05-15T16:26:23Z</time>
      </trkpt>
      <trkpt lat="59.9150225" lon="17.7204942">
        <ele>49.6453</ele>
        <time>2014-05-15T16:26:24Z</time>
      </trkpt>
      <trkpt lat="59.9150389" lon="17.7205102">
        <ele>48.684</ele>
        <time>2014-05-15T16:26:25Z</time>
      </trkpt>
      <trkpt lat="59.9150592" lon="17.7205332">
        <ele>49.1646</ele>
        <time>2014-05-15T16:26:26Z</time>
      </trkpt>
      <trkpt lat="59.9150811" lon="17.7205525">
        <ele>49.1646</ele>
        <time>2014-05-15T16:26:27Z</time>
      </trkpt>
      <trkpt lat="59.9150949" lon="17.7205584">
        <ele>48.2034</ele>
        <time>2014-05-15T16:26:28Z</time>
      </trkpt>
      <trkpt lat="59.915111" lon="17.7205623">
        <ele>48.2034</ele>
        <time>2014-05-15T16:26:29Z</time>
      </trkpt>
      <trkpt lat="59.9151307" lon="17.7205607">
        <ele>47.7225</ele>
        <time>2014-05-15T16:26:30Z</time>
      </trkpt>
      <trkpt lat="59.9151509" lon="17.7205599">
        <ele>47.2418</ele>
        <time>2014-05-15T16:26:31Z</time>
      </trkpt>
      <trkpt lat="59.9151802" lon="17.7205583">
        <ele>47.2418</ele>
        <time>2014-05-15T16:26:32Z</time>
      </trkpt>
      <trkpt lat="59.9152058" lon="17.720556">
        <ele>45.7999</ele>
        <time>2014-05-15T16:26:33Z</time>
      </trkpt>
      <trkpt lat="59.9152343" lon="17.7205682">
        <ele>46.2806</ele>
        <time>2014-05-15T16:26:34Z</time>
      </trkpt>
      <trkpt lat="59.915261" lon="17.7205883">
        <ele>46.7612</ele>
        <time>2014-05-15T16:26:35Z</time>
      </trkpt>
      <trkpt lat="59.915293" lon="17.7205983">
        <ele>47.2418</ele>
        <time>2014-05-15T16:26:36Z</time>
      </trkpt>
      <trkpt lat="59.9153178" lon="17.7206122">
        <ele>47.2418</ele>
        <time>2014-05-15T16:26:37Z</time>
      </trkpt>
      <trkpt lat="59.9153491" lon="17.7206268">
        <ele>47.7225</ele>
        <time>2014-05-15T16:26:38Z</time>
      </trkpt>
      <trkpt lat="59.9153783" lon="17.7206472">
        <ele>48.2034</ele>
        <time>2014-05-15T16:26:39Z</time>
      </trkpt>
      <trkpt lat="59.9153965" lon="17.7206648">
        <ele>47.7225</ele>
        <time>2014-05-15T16:26:40Z</time>
      </trkpt>
      <trkpt lat="59.9154156" lon="17.7206887">
        <ele>47.7225</ele>
        <time>2014-05-15T16:26:41Z</time>
      </trkpt>
      <trkpt lat="59.9154344" lon="17.72071">
        <ele>47.7225</ele>
        <time>2014-05-15T16:26:42Z</time>
      </trkpt>
      <trkpt lat="59.9154555" lon="17.7207323">
        <ele>48.2034</ele>
        <time>2014-05-15T16:26:43Z</time>
      </trkpt>
      <trkpt lat="59.9154819" lon="17.7207501">
        <ele>47.7225</ele>
        <time>2014-05-15T16:26:44Z</time>
      </trkpt>
      <trkpt lat="59.9155045" lon="17.7207691">
        <ele>47.2418</ele>
        <time>2014-05-15T16:26:45Z</time>
      </trkpt>
      <trkpt lat="59.915534" lon="17.7207876">
        <ele>47.7225</ele>
        <time>2014-05-15T16:26:46Z</time>
      </trkpt>
      <trkpt lat="59.9155608" lon="17.7208106">
        <ele>47.2418</ele>
        <time>2014-05-15T16:26:47Z</time>
      </trkpt>
      <trkpt lat="59.9155913" lon="17.7208337">
        <ele>47.7225</ele>
        <time>2014-05-15T16:26:48Z</time>
      </trkpt>
      <trkpt lat="59.9156156" lon="17.7208582">
        <ele>46.7612</ele>
        <time>2014-05-15T16:26:49Z</time>
      </trkpt>
      <trkpt lat="59.9156426" lon="17.7208812">
        <ele>46.7612</ele>
        <time>2014-05-15T16:26:50Z</time>
      </trkpt>
      <trkpt lat="59.9156721" lon="17.7209033">
        <ele>46.7612</ele>
        <time>2014-05-15T16:26:51Z</time>
      </trkpt>
      <trkpt lat="59.9157091" lon="17.7209197">
        <ele>47.2418</ele>
        <time>2014-05-15T16:26:52Z</time>
      </trkpt>
      <trkpt lat="59.9157374" lon="17.7209314">
        <ele>46.2806</ele>
        <time>2014-05-15T16:26:53Z</time>
      </trkpt>
      <trkpt lat="59.9157673" lon="17.7209477">
        <ele>46.2806</ele>
        <time>2014-05-15T16:26:54Z</time>
      </trkpt>
      <trkpt lat="59.9157984" lon="17.7209666">
        <ele>46.7612</ele>
        <time>2014-05-15T16:26:55Z</time>
      </trkpt>
      <trkpt lat="59.9158284" lon="17.7209826">
        <ele>46.7612</ele>
        <time>2014-05-15T16:26:56Z</time>
      </trkpt>
      <trkpt lat="59.9158534" lon="17.7209934">
        <ele>46.2806</ele>
        <time>2014-05-15T16:26:57Z</time>
      </trkpt>
      <trkpt lat="59.9158764" lon="17.7210015">
        <ele>45.7999</ele>
        <time>2014-05-15T16:26:58Z</time>
      </trkpt>
      <trkpt lat="59.915908" lon="17.7210111">
        <ele>46.2806</ele>
        <time>2014-05-15T16:26:59Z</time>
      </trkpt>
      <trkpt lat="59.9159389" lon="17.7210192">
        <ele>46.7612</ele>
        <time>2014-05-15T16:27:00Z</time>
      </trkpt>
      <trkpt lat="59.9159682" lon="17.721028">
        <ele>47.2418</ele>
        <time>2014-05-15T16:27:01Z</time>
      </trkpt>
      <trkpt lat="59.915992" lon="17.7210447">
        <ele>47.7225</ele>
        <time>2014-05-15T16:27:02Z</time>
      </trkpt>
      <trkpt lat="59.916009" lon="17.7210592">
        <ele>47.7225</ele>
        <time>2014-05-15T16:27:03Z</time>
      </trkpt>
      <trkpt lat="59.9160263" lon="17.7210743">
        <ele>47.2418</ele>
        <time>2014-05-15T16:27:04Z</time>
      </trkpt>
      <trkpt lat="59.9160455" lon="17.7210871">
        <ele>47.2418</ele>
        <time>2014-05-15T16:27:05Z</time>
      </trkpt>
      <trkpt lat="59.9160656" lon="17.7210877">
        <ele>46.2806</ele>
        <time>2014-05-15T16:27:06Z</time>
      </trkpt>
      <trkpt lat="59.9160914" lon="17.7210857">
        <ele>46.2806</ele>
        <time>2014-05-15T16:27:07Z</time>
      </trkpt>
      <trkpt lat="59.9161196" lon="17.7210893">
        <ele>45.7999</ele>
        <time>2014-05-15T16:27:08Z</time>
      </trkpt>
      <trkpt lat="59.9161497" lon="17.7210946">
        <ele>46.2806</ele>
        <time>2014-05-15T16:27:09Z</time>
      </trkpt>
      <trkpt lat="59.9161764" lon="17.7210953">
        <ele>45.7999</ele>
        <time>2014-05-15T16:27:10Z</time>
      </trkpt>
      <trkpt lat="59.9162035" lon="17.7210994">
        <ele>45.3192</ele>
        <time>2014-05-15T16:27:11Z</time>
      </trkpt>
      <trkpt lat="59.916231" lon="17.7211028">
        <ele>45.3192</ele>
        <time>2014-05-15T16:27:12Z</time>
      </trkpt>
      <trkpt lat="59.9162589" lon="17.7211063">
        <ele>45.3192</ele>
        <time>2014-05-15T16:27:13Z</time>
      </trkpt>
      <trkpt lat="59.9162844" lon="17.7211187">
        <ele>45.3192</ele>
        <time>2014-05-15T16:27:14Z</time>
      </trkpt>
      <trkpt lat="59.9163097" lon="17.721123">
        <ele>44.8386</ele>
        <time>2014-05-15T16:27:15Z</time>
      </trkpt>
      <trkpt lat="59.9163335" lon="17.7211227">
        <ele>44.358</ele>
        <time>2014-05-15T16:27:16Z</time>
      </trkpt>
      <trkpt lat="59.9163566" lon="17.721131">
        <ele>44.358</ele>
        <time>2014-05-15T16:27:17Z</time>
      </trkpt>
      <trkpt lat="59.9163831" lon="17.7211394">
        <ele>44.358</ele>
        <time>2014-05-15T16:27:18Z</time>
      </trkpt>
      <trkpt lat="59.9164122" lon="17.7211404">
        <ele>43.8773</ele>
        <time>2014-05-15T16:27:19Z</time>
      </trkpt>
      <trkpt lat="59.9164366" lon="17.7211411">
        <ele>43.8773</ele>
        <time>2014-05-15T16:27:20Z</time>
      </trkpt>
      <trkpt lat="59.9164614" lon="17.721137">
        <ele>42.916</ele>
        <time>2014-05-15T16:27:21Z</time>
      </trkpt>
      <trkpt lat="59.9164826" lon="17.7211425">
        <ele>42.916</ele>
        <time>2014-05-15T16:27:22Z</time>
      </trkpt>
      <trkpt lat="59.9165076" lon="17.721143">
        <ele>42.4354</ele>
        <time>2014-05-15T16:27:23Z</time>
      </trkpt>
      <trkpt lat="59.9165397" lon="17.7211388">
        <ele>42.916</ele>
        <time>2014-05-15T16:27:24Z</time>
      </trkpt>
      <trkpt lat="59.9165646" lon="17.7211334">
        <ele>42.916</ele>
        <time>2014-05-15T16:27:25Z</time>
      </trkpt>
      <trkpt lat="59.916591" lon="17.7211288">
        <ele>43.3966</ele>
        <time>2014-05-15T16:27:26Z</time>
      </trkpt>
      <trkpt lat="59.9166169" lon="17.7211295">
        <ele>42.916</ele>
        <time>2014-05-15T16:27:27Z</time>
      </trkpt>
      <trkpt lat="59.9166376" lon="17.7211307">
        <ele>42.4354</ele>
        <time>2014-05-15T16:27:28Z</time>
      </trkpt>
      <trkpt lat="59.9166688" lon="17.7211253">
        <ele>43.3966</ele>
        <time>2014-05-15T16:27:29Z</time>
      </trkpt>
      <trkpt lat="59.9166921" lon="17.721123">
        <ele>43.8773</ele>
        <time>2014-05-15T16:27:30Z</time>
      </trkpt>
      <trkpt lat="59.9167203" lon="17.7211333">
        <ele>43.8773</ele>
        <time>2014-05-15T16:27:31Z</time>
      </trkpt>
      <trkpt lat="59.9167512" lon="17.7211443">
        <ele>43.8773</ele>
        <time>2014-05-15T16:27:32Z</time>
      </trkpt>
      <trkpt lat="59.9167835" lon="17.7211644">
        <ele>43.8773</ele>
        <time>2014-05-15T16:27:33Z</time>
      </trkpt>
      <trkpt lat="59.9168001" lon="17.7211907">
        <ele>42.916</ele>
        <time>2014-05-15T16:27:34Z</time>
      </trkpt>
      <trkpt lat="59.9168225" lon="17.7212038">
        <ele>43.3966</ele>
        <time>2014-05-15T16:27:35Z</time>
      </trkpt>
      <trkpt lat="59.916846" lon="17.7212193">
        <ele>43.3966</ele>
        <time>2014-05-15T16:27:36Z</time>
      </trkpt>
      <trkpt lat="59.9168707" lon="17.7212323">
        <ele>43.8773</ele>
        <time>2014-05-15T16:27:37Z</time>
      </trkpt>
      <trkpt lat="59.9168949" lon="17.7212422">
        <ele>43.8773</ele>
        <time>2014-05-15T16:27:38Z</time>
      </trkpt>
      <trkpt lat="59.9169194" lon="17.7212429">
        <ele>43.8773</ele>
        <time>2014-05-15T16:27:39Z</time>
      </trkpt>
      <trkpt lat="59.9169468" lon="17.7212331">
        <ele>43.3966</ele>
        <time>2014-05-15T16:27:40Z</time>
      </trkpt>
      <trkpt lat="59.916966" lon="17.7212296">
        <ele>42.916</ele>
        <time>2014-05-15T16:27:41Z</time>
      </trkpt>
      <trkpt lat="59.9169852" lon="17.721221">
        <ele>41.9547</ele>
        <time>2014-05-15T16:27:42Z</time>
      </trkpt>
      <trkpt lat="59.9170085" lon="17.7212032">
        <ele>41.9547</ele>
        <time>2014-05-15T16:27:43Z</time>
      </trkpt>
      <trkpt lat="59.9170318" lon="17.7211783">
        <ele>42.4354</ele>
        <time>2014-05-15T16:27:44Z</time>
      </trkpt>
      <trkpt lat="59.9170494" lon="17.7211557">
        <ele>41.9547</ele>
        <time>2014-05-15T16:27:45Z</time>
      </trkpt>
      <trkpt lat="59.9170681" lon="17.7211437">
        <ele>41.9547</ele>
        <time>2014-05-15T16:27:46Z</time>
      </trkpt>
      <trkpt lat="59.9170878" lon="17.7211373">
        <ele>41.9547</ele>
        <time>2014-05-15T16:27:47Z</time>
      </trkpt>
      <trkpt lat="59.9171122" lon="17.7211271">
        <ele>42.4354</ele>
        <time>2014-05-15T16:27:48Z</time>
      </trkpt>
      <trkpt lat="59.9171297" lon="17.721109">
        <ele>41.9547</ele>
        <time>2014-05-15T16:27:49Z</time>
      </trkpt>
      <trkpt lat="59.9171551" lon="17.7210976">
        <ele>41.9547</ele>
        <time>2014-05-15T16:27:50Z</time>
      </trkpt>
      <trkpt lat="59.9171824" lon="17.7210801">
        <ele>41.474</ele>
        <time>2014-05-15T16:27:51Z</time>
      </trkpt>
      <trkpt lat="59.9172098" lon="17.7210702">
        <ele>41.474</ele>
        <time>2014-05-15T16:27:52Z</time>
      </trkpt>
      <trkpt lat="59.9172353" lon="17.7210613">
        <ele>41.474</ele>
        <time>2014-05-15T16:27:53Z</time>
      </trkpt>
      <trkpt lat="59.9172585" lon="17.7210471">
        <ele>41.9547</ele>
        <time>2014-05-15T16:27:54Z</time>
      </trkpt>
      <trkpt lat="59.9172823" lon="17.721026">
        <ele>42.4354</ele>
        <time>2014-05-15T16:27:55Z</time>
      </trkpt>
      <trkpt lat="59.9173048" lon="17.7210028">
        <ele>42.4354</ele>
        <time>2014-05-15T16:27:56Z</time>
      </trkpt>
      <trkpt lat="59.9173284" lon="17.7209822">
        <ele>42.4354</ele>
        <time>2014-05-15T16:27:57Z</time>
      </trkpt>
      <trkpt lat="59.9173509" lon="17.7209594">
        <ele>42.4354</ele>
        <time>2014-05-15T16:27:58Z</time>
      </trkpt>
      <trkpt lat="59.9173766" lon="17.7209375">
        <ele>42.916</ele>
        <time>2014-05-15T16:27:59Z</time>
      </trkpt>
      <trkpt lat="59.9174044" lon="17.720922">
        <ele>42.916</ele>
        <time>2014-05-15T16:28:00Z</time>
      </trkpt>
      <trkpt lat="59.9174317" lon="17.7209086">
        <ele>42.4354</ele>
        <time>2014-05-15T16:28:01Z</time>
      </trkpt>
      <trkpt lat="59.9174616" lon="17.7208904">
        <ele>42.916</ele>
        <time>2014-05-15T16:28:02Z</time>
      </trkpt>
      <trkpt lat="59.9174893" lon="17.720881">
        <ele>42.916</ele>
        <time>2014-05-15T16:28:03Z</time>
      </trkpt>
      <trkpt lat="59.917519" lon="17.7208726">
        <ele>42.916</ele>
        <time>2014-05-15T16:28:04Z</time>
      </trkpt>
      <trkpt lat="59.9175452" lon="17.7208571">
        <ele>42.916</ele>
        <time>2014-05-15T16:28:05Z</time>
      </trkpt>
      <trkpt lat="59.9175719" lon="17.7208389">
        <ele>42.916</ele>
        <time>2014-05-15T16:28:06Z</time>
      </trkpt>
      <trkpt lat="59.917598" lon="17.7208208">
        <ele>42.916</ele>
        <time>2014-05-15T16:28:07Z</time>
      </trkpt>
      <trkpt lat="59.9176234" lon="17.720799">
        <ele>42.916</ele>
        <time>2014-05-15T16:28:08Z</time>
      </trkpt>
      <trkpt lat="59.9176467" lon="17.7207796">
        <ele>42.4354</ele>
        <time>2014-05-15T16:28:09Z</time>
      </trkpt>
      <trkpt lat="59.9176686" lon="17.7207602">
        <ele>42.4354</ele>
        <time>2014-05-15T16:28:10Z</time>
      </trkpt>
      <trkpt lat="59.9176871" lon="17.7207353">
        <ele>41.9547</ele>
        <time>2014-05-15T16:28:11Z</time>
      </trkpt>
      <trkpt lat="59.9177114" lon="17.7207116">
        <ele>41.9547</ele>
        <time>2014-05-15T16:28:12Z</time>
      </trkpt>
      <trkpt lat="59.9177358" lon="17.7206833">
        <ele>41.9547</ele>
        <time>2014-05-15T16:28:13Z</time>
      </trkpt>
      <trkpt lat="59.9177565" lon="17.7206578">
        <ele>41.474</ele>
        <time>2014-05-15T16:28:14Z</time>
      </trkpt>
      <trkpt lat="59.9177747" lon="17.7206366">
        <ele>40.5128</ele>
        <time>2014-05-15T16:28:15Z</time>
      </trkpt>
      <trkpt lat="59.9177991" lon="17.7206115">
        <ele>40.9934</ele>
        <time>2014-05-15T16:28:16Z</time>
      </trkpt>
      <trkpt lat="59.9178233" lon="17.7205871">
        <ele>40.5128</ele>
        <time>2014-05-15T16:28:17Z</time>
      </trkpt>
      <trkpt lat="59.9178506" lon="17.7205609">
        <ele>40.5128</ele>
        <time>2014-05-15T16:28:18Z</time>
      </trkpt>
      <trkpt lat="59.9178783" lon="17.720535">
        <ele>40.5128</ele>
        <time>2014-05-15T16:28:19Z</time>
      </trkpt>
      <trkpt lat="59.9179041" lon="17.7205147">
        <ele>40.9934</ele>
        <time>2014-05-15T16:28:20Z</time>
      </trkpt>
      <trkpt lat="59.917928" lon="17.7204967">
        <ele>40.5128</ele>
        <time>2014-05-15T16:28:21Z</time>
      </trkpt>
      <trkpt lat="59.9179585" lon="17.7204755">
        <ele>40.0321</ele>
        <time>2014-05-15T16:28:22Z</time>
      </trkpt>
      <trkpt lat="59.9179896" lon="17.7204489">
        <ele>39.5513</ele>
        <time>2014-05-15T16:28:23Z</time>
      </trkpt>
      <trkpt lat="59.9180269" lon="17.7204139">
        <ele>40.0321</ele>
        <time>2014-05-15T16:28:24Z</time>
      </trkpt>
      <trkpt lat="59.9180576" lon="17.7203847">
        <ele>39.5513</ele>
        <time>2014-05-15T16:28:25Z</time>
      </trkpt>
      <trkpt lat="59.9180837" lon="17.7203563">
        <ele>39.0707</ele>
        <time>2014-05-15T16:28:26Z</time>
      </trkpt>
      <trkpt lat="59.9181094" lon="17.7203278">
        <ele>38.1094</ele>
        <time>2014-05-15T16:28:27Z</time>
      </trkpt>
      <trkpt lat="59.9181357" lon="17.7202883">
        <ele>37.1481</ele>
        <time>2014-05-15T16:28:28Z</time>
      </trkpt>
      <trkpt lat="59.91816" lon="17.7202486">
        <ele>36.6675</ele>
        <time>2014-05-15T16:28:29Z</time>
      </trkpt>
      <trkpt lat="59.9181849" lon="17.7202152">
        <ele>36.1868</ele>
        <time>2014-05-15T16:28:30Z</time>
      </trkpt>
      <trkpt lat="59.9182091" lon="17.720181">
        <ele>35.7061</ele>
        <time>2014-05-15T16:28:31Z</time>
      </trkpt>
      <trkpt lat="59.9182331" lon="17.7201429">
        <ele>35.2255</ele>
        <time>2014-05-15T16:28:32Z</time>
      </trkpt>
      <trkpt lat="59.9182564" lon="17.7200983">
        <ele>34.2642</ele>
        <time>2014-05-15T16:28:33Z</time>
      </trkpt>
      <trkpt lat="59.9182822" lon="17.720059">
        <ele>33.7834</ele>
        <time>2014-05-15T16:28:34Z</time>
      </trkpt>
      <trkpt lat="59.918309" lon="17.7200213">
        <ele>33.3029</ele>
        <time>2014-05-15T16:28:35Z</time>
      </trkpt>
      <trkpt lat="59.9183298" lon="17.7199766">
        <ele>32.8223</ele>
        <time>2014-05-15T16:28:36Z</time>
      </trkpt>
      <trkpt lat="59.9183465" lon="17.7199292">
        <ele>32.3416</ele>
        <time>2014-05-15T16:28:37Z</time>
      </trkpt>
      <trkpt lat="59.9183673" lon="17.7198875">
        <ele>32.3416</ele>
        <time>2014-05-15T16:28:38Z</time>
      </trkpt>
      <trkpt lat="59.9183879" lon="17.719844">
        <ele>31.8607</ele>
        <time>2014-05-15T16:28:39Z</time>
      </trkpt>
      <trkpt lat="59.9184075" lon="17.7197961">
        <ele>31.3801</ele>
        <time>2014-05-15T16:28:40Z</time>
      </trkpt>
      <trkpt lat="59.9184247" lon="17.7197534">
        <ele>30.8995</ele>
        <time>2014-05-15T16:28:41Z</time>
      </trkpt>
      <trkpt lat="59.9184452" lon="17.7197041">
        <ele>30.4188</ele>
        <time>2014-05-15T16:28:42Z</time>
      </trkpt>
      <trkpt lat="59.9184651" lon="17.7196637">
        <ele>30.8995</ele>
        <time>2014-05-15T16:28:43Z</time>
      </trkpt>
      <trkpt lat="59.9184754" lon="17.7196109">
        <ele>30.4188</ele>
        <time>2014-05-15T16:28:44Z</time>
      </trkpt>
      <trkpt lat="59.9184908" lon="17.7195561">
        <ele>30.4188</ele>
        <time>2014-05-15T16:28:45Z</time>
      </trkpt>
      <trkpt lat="59.9185111" lon="17.7195138">
        <ele>31.3801</ele>
        <time>2014-05-15T16:28:46Z</time>
      </trkpt>
      <trkpt lat="59.918523" lon="17.7194667">
        <ele>29.9381</ele>
        <time>2014-05-15T16:28:47Z</time>
      </trkpt>
      <trkpt lat="59.9185401" lon="17.7194146">
        <ele>29.9381</ele>
        <time>2014-05-15T16:28:48Z</time>
      </trkpt>
      <trkpt lat="59.9185568" lon="17.7193653">
        <ele>29.9381</ele>
        <time>2014-05-15T16:28:49Z</time>
      </trkpt>
      <trkpt lat="59.9185723" lon="17.7193136">
        <ele>30.4188</ele>
        <time>2014-05-15T16:28:50Z</time>
      </trkpt>
      <trkpt lat="59.9185854" lon="17.7192622">
        <ele>29.9381</ele>
        <time>2014-05-15T16:28:51Z</time>
      </trkpt>
      <trkpt lat="59.9185966" lon="17.7192048">
        <ele>28.9769</ele>
        <time>2014-05-15T16:28:52Z</time>
      </trkpt>
      <trkpt lat="59.9186102" lon="17.7191559">
        <ele>28.9769</ele>
        <time>2014-05-15T16:28:53Z</time>
      </trkpt>
      <trkpt lat="59.9186231" lon="17.7191057">
        <ele>28.4962</ele>
        <time>2014-05-15T16:28:54Z</time>
      </trkpt>
      <trkpt lat="59.9186354" lon="17.7190572">
        <ele>28.0155</ele>
        <time>2014-05-15T16:28:55Z</time>
      </trkpt>
      <trkpt lat="59.9186486" lon="17.7190087">
        <ele>28.0155</ele>
        <time>2014-05-15T16:28:56Z</time>
      </trkpt>
      <trkpt lat="59.9186629" lon="17.7189565">
        <ele>27.5349</ele>
        <time>2014-05-15T16:28:57Z</time>
      </trkpt>
      <trkpt lat="59.9186748" lon="17.7189002">
        <ele>27.5349</ele>
        <time>2014-05-15T16:28:58Z</time>
      </trkpt>
      <trkpt lat="59.918689" lon="17.7188476">
        <ele>27.0543</ele>
        <time>2014-05-15T16:28:59Z</time>
      </trkpt>
      <trkpt lat="59.9186977" lon="17.7188002">
        <ele>26.5736</ele>
        <time>2014-05-15T16:29:00Z</time>
      </trkpt>
      <trkpt lat="59.9187096" lon="17.7187523">
        <ele>26.0929</ele>
        <time>2014-05-15T16:29:01Z</time>
      </trkpt>
      <trkpt lat="59.9187256" lon="17.7187022">
        <ele>25.6123</ele>
        <time>2014-05-15T16:29:02Z</time>
      </trkpt>
      <trkpt lat="59.9187457" lon="17.7186584">
        <ele>26.0929</ele>
        <time>2014-05-15T16:29:03Z</time>
      </trkpt>
      <trkpt lat="59.9187666" lon="17.7186183">
        <ele>26.5736</ele>
        <time>2014-05-15T16:29:04Z</time>
      </trkpt>
      <trkpt lat="59.9187909" lon="17.7185796">
        <ele>27.0543</ele>
        <time>2014-05-15T16:29:05Z</time>
      </trkpt>
      <trkpt lat="59.9188158" lon="17.7185503">
        <ele>27.0543</ele>
        <time>2014-05-15T16:29:06Z</time>
      </trkpt>
      <trkpt lat="59.918845" lon="17.7185319">
        <ele>27.5349</ele>
        <time>2014-05-15T16:29:07Z</time>
      </trkpt>
      <trkpt lat="59.9188771" lon="17.7185168">
        <ele>28.0155</ele>
        <time>2014-05-15T16:29:08Z</time>
      </trkpt>
      <trkpt lat="59.9189059" lon="17.7185074">
        <ele>28.4962</ele>
        <time>2014-05-15T16:29:09Z</time>
      </trkpt>
      <trkpt lat="59.9189334" lon="17.7184982">
        <ele>28.9769</ele>
        <time>2014-05-15T16:29:10Z</time>
      </trkpt>
      <trkpt lat="59.9189577" lon="17.7184929">
        <ele>29.4575</ele>
        <time>2014-05-15T16:29:11Z</time>
      </trkpt>
      <trkpt lat="59.918982" lon="17.7184847">
        <ele>29.9381</ele>
        <time>2014-05-15T16:29:12Z</time>
      </trkpt>
      <trkpt lat="59.9190085" lon="17.7184727">
        <ele>29.9381</ele>
        <time>2014-05-15T16:29:13Z</time>
      </trkpt>
      <trkpt lat="59.9190391" lon="17.7184565">
        <ele>30.8995</ele>
        <time>2014-05-15T16:29:14Z</time>
      </trkpt>
      <trkpt lat="59.9190695" lon="17.7184423">
        <ele>30.8995</ele>
        <time>2014-05-15T16:29:15Z</time>
      </trkpt>
      <trkpt lat="59.9190972" lon="17.7184277">
        <ele>30.8995</ele>
        <time>2014-05-15T16:29:16Z</time>
      </trkpt>
      <trkpt lat="59.9191308" lon="17.718411">
        <ele>30.8995</ele>
        <time>2014-05-15T16:29:17Z</time>
      </trkpt>
      <trkpt lat="59.9191597" lon="17.7183949">
        <ele>31.3801</ele>
        <time>2014-05-15T16:29:18Z</time>
      </trkpt>
      <trkpt lat="59.9191896" lon="17.7183764">
        <ele>31.8607</ele>
        <time>2014-05-15T16:29:19Z</time>
      </trkpt>
      <trkpt lat="59.9192161" lon="17.7183617">
        <ele>31.8607</ele>
        <time>2014-05-15T16:29:20Z</time>
      </trkpt>
      <trkpt lat="59.9192388" lon="17.7183483">
        <ele>31.3801</ele>
        <time>2014-05-15T16:29:21Z</time>
      </trkpt>
      <trkpt lat="59.9192618" lon="17.7183421">
        <ele>31.8607</ele>
        <time>2014-05-15T16:29:22Z</time>
      </trkpt>
      <trkpt lat="59.9192879" lon="17.71834">
        <ele>32.8223</ele>
        <time>2014-05-15T16:29:23Z</time>
      </trkpt>
      <trkpt lat="59.9193121" lon="17.7183319">
        <ele>32.3416</ele>
        <time>2014-05-15T16:29:24Z</time>
      </trkpt>
      <trkpt lat="59.9193411" lon="17.7183226">
        <ele>32.8223</ele>
        <time>2014-05-15T16:29:25Z</time>
      </trkpt>
      <trkpt lat="59.9193713" lon="17.7183137">
        <ele>33.3029</ele>
        <time>2014-05-15T16:29:26Z</time>
      </trkpt>
      <trkpt lat="59.9194012" lon="17.7183034">
        <ele>33.3029</ele>
        <time>2014-05-15T16:29:27Z</time>
      </trkpt>
      <trkpt lat="59.9194264" lon="17.7182889">
        <ele>33.3029</ele>
        <time>2014-05-15T16:29:28Z</time>
      </trkpt>
      <trkpt lat="59.9194567" lon="17.7182754">
        <ele>33.7834</ele>
        <time>2014-05-15T16:29:29Z</time>
      </trkpt>
      <trkpt lat="59.9194847" lon="17.7182636">
        <ele>34.2642</ele>
        <time>2014-05-15T16:29:30Z</time>
      </trkpt>
      <trkpt lat="59.9195062" lon="17.718249">
        <ele>34.2642</ele>
        <time>2014-05-15T16:29:31Z</time>
      </trkpt>
      <trkpt lat="59.9195322" lon="17.7182281">
        <ele>34.2642</ele>
        <time>2014-05-15T16:29:32Z</time>
      </trkpt>
      <trkpt lat="59.9195596" lon="17.7182229">
        <ele>34.2642</ele>
        <time>2014-05-15T16:29:33Z</time>
      </trkpt>
      <trkpt lat="59.919583" lon="17.7182231">
        <ele>34.2642</ele>
        <time>2014-05-15T16:29:34Z</time>
      </trkpt>
      <trkpt lat="59.9196053" lon="17.7182247">
        <ele>34.2642</ele>
        <time>2014-05-15T16:29:35Z</time>
      </trkpt>
      <trkpt lat="59.9196327" lon="17.7182292">
        <ele>34.7449</ele>
        <time>2014-05-15T16:29:36Z</time>
      </trkpt>
      <trkpt lat="59.9196555" lon="17.7182372">
        <ele>34.7449</ele>
        <time>2014-05-15T16:29:37Z</time>
      </trkpt>
      <trkpt lat="59.9196799" lon="17.7182408">
        <ele>34.7449</ele>
        <time>2014-05-15T16:29:38Z</time>
      </trkpt>
      <trkpt lat="59.9197058" lon="17.7182409">
        <ele>34.2642</ele>
        <time>2014-05-15T16:29:39Z</time>
      </trkpt>
      <trkpt lat="59.9197304" lon="17.718247">
        <ele>34.2642</ele>
        <time>2014-05-15T16:29:40Z</time>
      </trkpt>
      <trkpt lat="59.9197597" lon="17.7182519">
        <ele>34.7449</ele>
        <time>2014-05-15T16:29:41Z</time>
      </trkpt>
      <trkpt lat="59.9197897" lon="17.7182593">
        <ele>34.7449</ele>
        <time>2014-05-15T16:29:42Z</time>
      </trkpt>
      <trkpt lat="59.9198125" lon="17.7182641">
        <ele>33.7834</ele>
        <time>2014-05-15T16:29:43Z</time>
      </trkpt>
      <trkpt lat="59.9198456" lon="17.7182649">
        <ele>34.2642</ele>
        <time>2014-05-15T16:29:44Z</time>
      </trkpt>
      <trkpt lat="59.9198746" lon="17.7182693">
        <ele>34.2642</ele>
        <time>2014-05-15T16:29:45Z</time>
      </trkpt>
      <trkpt lat="59.9198986" lon="17.7182713">
        <ele>33.3029</ele>
        <time>2014-05-15T16:29:46Z</time>
      </trkpt>
      <trkpt lat="59.9199248" lon="17.7182756">
        <ele>32.8223</ele>
        <time>2014-05-15T16:29:47Z</time>
      </trkpt>
      <trkpt lat="59.9199508" lon="17.7182791">
        <ele>32.3416</ele>
        <time>2014-05-15T16:29:48Z</time>
      </trkpt>
      <trkpt lat="59.9199741" lon="17.7182734">
        <ele>31.8607</ele>
        <time>2014-05-15T16:29:49Z</time>
      </trkpt>
      <trkpt lat="59.9199995" lon="17.7182739">
        <ele>31.8607</ele>
        <time>2014-05-15T16:29:50Z</time>
      </trkpt>
      <trkpt lat="59.9200216" lon="17.7182832">
        <ele>31.3801</ele>
        <time>2014-05-15T16:29:51Z</time>
      </trkpt>
      <trkpt lat="59.920044" lon="17.7182878">
        <ele>31.3801</ele>
        <time>2014-05-15T16:29:52Z</time>
      </trkpt>
      <trkpt lat="59.9200679" lon="17.7182892">
        <ele>30.8995</ele>
        <time>2014-05-15T16:29:53Z</time>
      </trkpt>
      <trkpt lat="59.9200953" lon="17.7182923">
        <ele>30.8995</ele>
        <time>2014-05-15T16:29:54Z</time>
      </trkpt>
      <trkpt lat="59.9201232" lon="17.718293">
        <ele>30.8995</ele>
        <time>2014-05-15T16:29:55Z</time>
      </trkpt>
      <trkpt lat="59.9201552" lon="17.7183018">
        <ele>31.3801</ele>
        <time>2014-05-15T16:29:56Z</time>
      </trkpt>
      <trkpt lat="59.9201801" lon="17.7183112">
        <ele>31.3801</ele>
        <time>2014-05-15T16:29:57Z</time>
      </trkpt>
      <trkpt lat="59.9202066" lon="17.7183195">
        <ele>31.3801</ele>
        <time>2014-05-15T16:29:58Z</time>
      </trkpt>
      <trkpt lat="59.9202329" lon="17.7183298">
        <ele>31.3801</ele>
        <time>2014-05-15T16:29:59Z</time>
      </trkpt>
      <trkpt lat="59.9202616" lon="17.7183386">
        <ele>30.8995</ele>
        <time>2014-05-15T16:30:00Z</time>
      </trkpt>
      <trkpt lat="59.9202928" lon="17.7183443">
        <ele>30.8995</ele>
        <time>2014-05-15T16:30:01Z</time>
      </trkpt>
      <trkpt lat="59.9203569" lon="17.7183517">
        <ele>31.8607</ele>
        <time>2014-05-15T16:30:03Z</time>
      </trkpt>
      <trkpt lat="59.9203834" lon="17.7183563">
        <ele>31.3801</ele>
        <time>2014-05-15T16:30:04Z</time>
      </trkpt>
      <trkpt lat="59.920417" lon="17.7183576">
        <ele>31.8607</ele>
        <time>2014-05-15T16:30:05Z</time>
      </trkpt>
      <trkpt lat="59.9204475" lon="17.7183562">
        <ele>32.8223</ele>
        <time>2014-05-15T16:30:06Z</time>
      </trkpt>
      <trkpt lat="59.9204766" lon="17.7183604">
        <ele>32.8223</ele>
        <time>2014-05-15T16:30:07Z</time>
      </trkpt>
      <trkpt lat="59.9205102" lon="17.7183662">
        <ele>33.7834</ele>
        <time>2014-05-15T16:30:08Z</time>
      </trkpt>
      <trkpt lat="59.920535" lon="17.7183713">
        <ele>33.3029</ele>
        <time>2014-05-15T16:30:09Z</time>
      </trkpt>
      <trkpt lat="59.920566" lon="17.7183836">
        <ele>33.7834</ele>
        <time>2014-05-15T16:30:10Z</time>
      </trkpt>
      <trkpt lat="59.9205946" lon="17.7183915">
        <ele>33.7834</ele>
        <time>2014-05-15T16:30:11Z</time>
      </trkpt>
      <trkpt lat="59.9206207" lon="17.7184022">
        <ele>33.3029</ele>
        <time>2014-05-15T16:30:12Z</time>
      </trkpt>
      <trkpt lat="59.9206481" lon="17.7184137">
        <ele>33.7834</ele>
        <time>2014-05-15T16:30:13Z</time>
      </trkpt>
      <trkpt lat="59.9206761" lon="17.7184187">
        <ele>34.2642</ele>
        <time>2014-05-15T16:30:14Z</time>
      </trkpt>
      <trkpt lat="59.9207065" lon="17.7184246">
        <ele>34.2642</ele>
        <time>2014-05-15T16:30:15Z</time>
      </trkpt>
      <trkpt lat="59.9207381" lon="17.7184339">
        <ele>34.7449</ele>
        <time>2014-05-15T16:30:16Z</time>
      </trkpt>
      <trkpt lat="59.9207656" lon="17.718437">
        <ele>34.7449</ele>
        <time>2014-05-15T16:30:17Z</time>
      </trkpt>
      <trkpt lat="59.9207966" lon="17.7184422">
        <ele>35.2255</ele>
        <time>2014-05-15T16:30:18Z</time>
      </trkpt>
      <trkpt lat="59.9208293" lon="17.7184413">
        <ele>35.2255</ele>
        <time>2014-05-15T16:30:19Z</time>
      </trkpt>
      <trkpt lat="59.9208621" lon="17.718438">
        <ele>35.2255</ele>
        <time>2014-05-15T16:30:20Z</time>
      </trkpt>
      <trkpt lat="59.9208904" lon="17.7184387">
        <ele>35.2255</ele>
        <time>2014-05-15T16:30:21Z</time>
      </trkpt>
      <trkpt lat="59.9209081" lon="17.718439">
        <ele>35.2255</ele>
        <time>2014-05-15T16:30:22Z</time>
      </trkpt>
      <trkpt lat="59.9209291" lon="17.7184322">
        <ele>35.2255</ele>
        <time>2014-05-15T16:30:23Z</time>
      </trkpt>
      <trkpt lat="59.9209542" lon="17.7184252">
        <ele>35.7061</ele>
        <time>2014-05-15T16:30:24Z</time>
      </trkpt>
      <trkpt lat="59.9209826" lon="17.7184193">
        <ele>35.7061</ele>
        <time>2014-05-15T16:30:25Z</time>
      </trkpt>
      <trkpt lat="59.921013" lon="17.7184111">
        <ele>36.1868</ele>
        <time>2014-05-15T16:30:26Z</time>
      </trkpt>
      <trkpt lat="59.9210424" lon="17.7184082">
        <ele>36.6675</ele>
        <time>2014-05-15T16:30:27Z</time>
      </trkpt>
      <trkpt lat="59.9210681" lon="17.7184028">
        <ele>37.1481</ele>
        <time>2014-05-15T16:30:28Z</time>
      </trkpt>
      <trkpt lat="59.921098" lon="17.7183915">
        <ele>37.6287</ele>
        <time>2014-05-15T16:30:29Z</time>
      </trkpt>
      <trkpt lat="59.9211272" lon="17.7183836">
        <ele>38.1094</ele>
        <time>2014-05-15T16:30:30Z</time>
      </trkpt>
      <trkpt lat="59.9211521" lon="17.7183753">
        <ele>38.1094</ele>
        <time>2014-05-15T16:30:31Z</time>
      </trkpt>
      <trkpt lat="59.9211789" lon="17.7183599">
        <ele>38.1094</ele>
        <time>2014-05-15T16:30:32Z</time>
      </trkpt>
      <trkpt lat="59.9212081" lon="17.7183486">
        <ele>38.5901</ele>
        <time>2014-05-15T16:30:33Z</time>
      </trkpt>
      <trkpt lat="59.9212334" lon="17.718339">
        <ele>38.5901</ele>
        <time>2014-05-15T16:30:34Z</time>
      </trkpt>
      <trkpt lat="59.9212601" lon="17.7183379">
        <ele>38.5901</ele>
        <time>2014-05-15T16:30:35Z</time>
      </trkpt>
      <trkpt lat="59.9212896" lon="17.7183328">
        <ele>38.5901</ele>
        <time>2014-05-15T16:30:36Z</time>
      </trkpt>
      <trkpt lat="59.9213203" lon="17.7183222">
        <ele>39.0707</ele>
        <time>2014-05-15T16:30:37Z</time>
      </trkpt>
      <trkpt lat="59.9213497" lon="17.7183107">
        <ele>39.5513</ele>
        <time>2014-05-15T16:30:38Z</time>
      </trkpt>
      <trkpt lat="59.9213762" lon="17.7182915">
        <ele>40.0321</ele>
        <time>2014-05-15T16:30:39Z</time>
      </trkpt>
      <trkpt lat="59.9214016" lon="17.7182677">
        <ele>40.5128</ele>
        <time>2014-05-15T16:30:40Z</time>
      </trkpt>
      <trkpt lat="59.9214282" lon="17.7182494">
        <ele>40.5128</ele>
        <time>2014-05-15T16:30:41Z</time>
      </trkpt>
      <trkpt lat="59.9214572" lon="17.718237">
        <ele>40.5128</ele>
        <time>2014-05-15T16:30:42Z</time>
      </trkpt>
      <trkpt lat="59.9214847" lon="17.7182193">
        <ele>40.5128</ele>
        <time>2014-05-15T16:30:43Z</time>
      </trkpt>
      <trkpt lat="59.9215074" lon="17.7182008">
        <ele>40.0321</ele>
        <time>2014-05-15T16:30:44Z</time>
      </trkpt>
      <trkpt lat="59.9215339" lon="17.7181874">
        <ele>40.9934</ele>
        <time>2014-05-15T16:30:45Z</time>
      </trkpt>
      <trkpt lat="59.9215587" lon="17.7181702">
        <ele>40.9934</ele>
        <time>2014-05-15T16:30:46Z</time>
      </trkpt>
      <trkpt lat="59.9215882" lon="17.7181509">
        <ele>41.474</ele>
        <time>2014-05-15T16:30:47Z</time>
      </trkpt>
      <trkpt lat="59.9216148" lon="17.7181344">
        <ele>41.474</ele>
        <time>2014-05-15T16:30:48Z</time>
      </trkpt>
      <trkpt lat="59.9216399" lon="17.7181159">
        <ele>41.474</ele>
        <time>2014-05-15T16:30:49Z</time>
      </trkpt>
      <trkpt lat="59.9216693" lon="17.7181074">
        <ele>42.4354</ele>
        <time>2014-05-15T16:30:50Z</time>
      </trkpt>
      <trkpt lat="59.9216965" lon="17.7181004">
        <ele>42.4354</ele>
        <time>2014-05-15T16:30:51Z</time>
      </trkpt>
      <trkpt lat="59.9217219" lon="17.7180873">
        <ele>41.9547</ele>
        <time>2014-05-15T16:30:52Z</time>
      </trkpt>
      <trkpt lat="59.9217487" lon="17.7180734">
        <ele>42.4354</ele>
        <time>2014-05-15T16:30:53Z</time>
      </trkpt>
      <trkpt lat="59.9217748" lon="17.7180554">
        <ele>42.4354</ele>
        <time>2014-05-15T16:30:54Z</time>
      </trkpt>
      <trkpt lat="59.9218022" lon="17.7180383">
        <ele>42.4354</ele>
        <time>2014-05-15T16:30:55Z</time>
      </trkpt>
      <trkpt lat="59.9218299" lon="17.7180268">
        <ele>42.4354</ele>
        <time>2014-05-15T16:30:56Z</time>
      </trkpt>
      <trkpt lat="59.9218549" lon="17.7180186">
        <ele>42.4354</ele>
        <time>2014-05-15T16:30:57Z</time>
      </trkpt>
      <trkpt lat="59.9218798" lon="17.7180025">
        <ele>42.4354</ele>
        <time>2014-05-15T16:30:58Z</time>
      </trkpt>
      <trkpt lat="59.9219047" lon="17.7179847">
        <ele>42.4354</ele>
        <time>2014-05-15T16:30:59Z</time>
      </trkpt>
      <trkpt lat="59.9219273" lon="17.7179648">
        <ele>41.9547</ele>
        <time>2014-05-15T16:31:00Z</time>
      </trkpt>
      <trkpt lat="59.9219522" lon="17.7179347">
        <ele>41.9547</ele>
        <time>2014-05-15T16:31:01Z</time>
      </trkpt>
      <trkpt lat="59.9219761" lon="17.7179168">
        <ele>41.474</ele>
        <time>2014-05-15T16:31:02Z</time>
      </trkpt>
      <trkpt lat="59.9219978" lon="17.7179046">
        <ele>41.9547</ele>
        <time>2014-05-15T16:31:03Z</time>
      </trkpt>
      <trkpt lat="59.9220228" lon="17.7178879">
        <ele>41.474</ele>
        <time>2014-05-15T16:31:04Z</time>
      </trkpt>
      <trkpt lat="59.9220496" lon="17.7178714">
        <ele>41.474</ele>
        <time>2014-05-15T16:31:05Z</time>
      </trkpt>
      <trkpt lat="59.9220751" lon="17.7178533">
        <ele>41.474</ele>
        <time>2014-05-15T16:31:06Z</time>
      </trkpt>
      <trkpt lat="59.9220995" lon="17.7178324">
        <ele>40.9934</ele>
        <time>2014-05-15T16:31:07Z</time>
      </trkpt>
      <trkpt lat="59.9221245" lon="17.7178118">
        <ele>40.9934</ele>
        <time>2014-05-15T16:31:08Z</time>
      </trkpt>
      <trkpt lat="59.9221497" lon="17.7177948">
        <ele>40.9934</ele>
        <time>2014-05-15T16:31:09Z</time>
      </trkpt>
      <trkpt lat="59.9221788" lon="17.7177788">
        <ele>40.9934</ele>
        <time>2014-05-15T16:31:10Z</time>
      </trkpt>
      <trkpt lat="59.922203" lon="17.7177589">
        <ele>40.9934</ele>
        <time>2014-05-15T16:31:11Z</time>
      </trkpt>
      <trkpt lat="59.9222269" lon="17.7177424">
        <ele>40.9934</ele>
        <time>2014-05-15T16:31:12Z</time>
      </trkpt>
      <trkpt lat="59.9222496" lon="17.7177314">
        <ele>40.9934</ele>
        <time>2014-05-15T16:31:13Z</time>
      </trkpt>
      <trkpt lat="59.9222685" lon="17.717716">
        <ele>40.5128</ele>
        <time>2014-05-15T16:31:14Z</time>
      </trkpt>
      <trkpt lat="59.9222891" lon="17.7177024">
        <ele>40.5128</ele>
        <time>2014-05-15T16:31:15Z</time>
      </trkpt>
      <trkpt lat="59.9223133" lon="17.7176844">
        <ele>40.5128</ele>
        <time>2014-05-15T16:31:16Z</time>
      </trkpt>
      <trkpt lat="59.9223355" lon="17.7176631">
        <ele>40.5128</ele>
        <time>2014-05-15T16:31:17Z</time>
      </trkpt>
      <trkpt lat="59.9223621" lon="17.7176361">
        <ele>40.5128</ele>
        <time>2014-05-15T16:31:18Z</time>
      </trkpt>
      <trkpt lat="59.9223874" lon="17.7176073">
        <ele>40.5128</ele>
        <time>2014-05-15T16:31:19Z</time>
      </trkpt>
      <trkpt lat="59.9224144" lon="17.7175716">
        <ele>40.0321</ele>
        <time>2014-05-15T16:31:20Z</time>
      </trkpt>
      <trkpt lat="59.9224393" lon="17.7175424">
        <ele>40.0321</ele>
        <time>2014-05-15T16:31:21Z</time>
      </trkpt>
      <trkpt lat="59.9224534" lon="17.7175218">
        <ele>39.0707</ele>
        <time>2014-05-15T16:31:22Z</time>
      </trkpt>
      <trkpt lat="59.9224673" lon="17.7174979">
        <ele>39.0707</ele>
        <time>2014-05-15T16:31:23Z</time>
      </trkpt>
      <trkpt lat="59.9224865" lon="17.717471">
        <ele>39.0707</ele>
        <time>2014-05-15T16:31:24Z</time>
      </trkpt>
      <trkpt lat="59.9225034" lon="17.717446">
        <ele>39.0707</ele>
        <time>2014-05-15T16:31:25Z</time>
      </trkpt>
      <trkpt lat="59.9225179" lon="17.7174223">
        <ele>39.5513</ele>
        <time>2014-05-15T16:31:26Z</time>
      </trkpt>
      <trkpt lat="59.9225277" lon="17.7174022">
        <ele>39.0707</ele>
        <time>2014-05-15T16:31:27Z</time>
      </trkpt>
      <trkpt lat="59.9225444" lon="17.7173798">
        <ele>40.0321</ele>
        <time>2014-05-15T16:31:28Z</time>
      </trkpt>
      <trkpt lat="59.9225677" lon="17.7173518">
        <ele>40.9934</ele>
        <time>2014-05-15T16:31:29Z</time>
      </trkpt>
      <trkpt lat="59.9225931" lon="17.7173259">
        <ele>41.474</ele>
        <time>2014-05-15T16:31:30Z</time>
      </trkpt>
      <trkpt lat="59.9226226" lon="17.7173021">
        <ele>42.916</ele>
        <time>2014-05-15T16:31:31Z</time>
      </trkpt>
      <trkpt lat="59.9226594" lon="17.717285">
        <ele>43.8773</ele>
        <time>2014-05-15T16:31:32Z</time>
      </trkpt>
      <trkpt lat="59.9226868" lon="17.7172849">
        <ele>44.8386</ele>
        <time>2014-05-15T16:31:33Z</time>
      </trkpt>
      <trkpt lat="59.9227098" lon="17.717281">
        <ele>44.8386</ele>
        <time>2014-05-15T16:31:34Z</time>
      </trkpt>
      <trkpt lat="59.9227399" lon="17.7172923">
        <ele>45.7999</ele>
        <time>2014-05-15T16:31:35Z</time>
      </trkpt>
      <trkpt lat="59.9227699" lon="17.717303">
        <ele>46.2806</ele>
        <time>2014-05-15T16:31:36Z</time>
      </trkpt>
      <trkpt lat="59.9227934" lon="17.7173045">
        <ele>46.7612</ele>
        <time>2014-05-15T16:31:37Z</time>
      </trkpt>
      <trkpt lat="59.9228154" lon="17.7173089">
        <ele>46.7612</ele>
        <time>2014-05-15T16:31:38Z</time>
      </trkpt>
      <trkpt lat="59.9228439" lon="17.7173176">
        <ele>47.2418</ele>
        <time>2014-05-15T16:31:39Z</time>
      </trkpt>
      <trkpt lat="59.922876" lon="17.7173218">
        <ele>47.2418</ele>
        <time>2014-05-15T16:31:40Z</time>
      </trkpt>
      <trkpt lat="59.9228991" lon="17.7173286">
        <ele>46.7612</ele>
        <time>2014-05-15T16:31:41Z</time>
      </trkpt>
      <trkpt lat="59.922933" lon="17.7173394">
        <ele>47.7225</ele>
        <time>2014-05-15T16:31:42Z</time>
      </trkpt>
      <trkpt lat="59.9229589" lon="17.7173492">
        <ele>47.7225</ele>
        <time>2014-05-15T16:31:43Z</time>
      </trkpt>
      <trkpt lat="59.9229791" lon="17.7173601">
        <ele>47.2418</ele>
        <time>2014-05-15T16:31:44Z</time>
      </trkpt>
      <trkpt lat="59.9230058" lon="17.7173777">
        <ele>47.7225</ele>
        <time>2014-05-15T16:31:45Z</time>
      </trkpt>
      <trkpt lat="59.923035" lon="17.7173953">
        <ele>48.684</ele>
        <time>2014-05-15T16:31:46Z</time>
      </trkpt>
      <trkpt lat="59.923062" lon="17.7174026">
        <ele>48.684</ele>
        <time>2014-05-15T16:31:47Z</time>
      </trkpt>
      <trkpt lat="59.9230816" lon="17.7174148">
        <ele>48.2034</ele>
        <time>2014-05-15T16:31:48Z</time>
      </trkpt>
      <trkpt lat="59.9231047" lon="17.7174207">
        <ele>47.7225</ele>
        <time>2014-05-15T16:31:49Z</time>
      </trkpt>
      <trkpt lat="59.9231278" lon="17.7174202">
        <ele>47.2418</ele>
        <time>2014-05-15T16:31:50Z</time>
      </trkpt>
      <trkpt lat="59.9231618" lon="17.7174324">
        <ele>48.2034</ele>
        <time>2014-05-15T16:31:51Z</time>
      </trkpt>
      <trkpt lat="59.9231938" lon="17.7174487">
        <ele>49.1646</ele>
        <time>2014-05-15T16:31:52Z</time>
      </trkpt>
      <trkpt lat="59.9232169" lon="17.7174592">
        <ele>49.1646</ele>
        <time>2014-05-15T16:31:53Z</time>
      </trkpt>
      <trkpt lat="59.9232422" lon="17.7174554">
        <ele>48.684</ele>
        <time>2014-05-15T16:31:54Z</time>
      </trkpt>
      <trkpt lat="59.9232708" lon="17.7174508">
        <ele>48.2034</ele>
        <time>2014-05-15T16:31:55Z</time>
      </trkpt>
      <trkpt lat="59.9232961" lon="17.7174558">
        <ele>47.7225</ele>
        <time>2014-05-15T16:31:56Z</time>
      </trkpt>
      <trkpt lat="59.9233224" lon="17.7174512">
        <ele>47.2418</ele>
        <time>2014-05-15T16:31:57Z</time>
      </trkpt>
      <trkpt lat="59.9233448" lon="17.7174528">
        <ele>47.2418</ele>
        <time>2014-05-15T16:31:58Z</time>
      </trkpt>
      <trkpt lat="59.9233744" lon="17.7174522">
        <ele>47.7225</ele>
        <time>2014-05-15T16:31:59Z</time>
      </trkpt>
      <trkpt lat="59.9234016" lon="17.7174537">
        <ele>48.2034</ele>
        <time>2014-05-15T16:32:00Z</time>
      </trkpt>
      <trkpt lat="59.9234228" lon="17.7174535">
        <ele>48.2034</ele>
        <time>2014-05-15T16:32:01Z</time>
      </trkpt>
      <trkpt lat="59.9234454" lon="17.7174579">
        <ele>48.2034</ele>
        <time>2014-05-15T16:32:02Z</time>
      </trkpt>
      <trkpt lat="59.923472" lon="17.7174723">
        <ele>48.684</ele>
        <time>2014-05-15T16:32:03Z</time>
      </trkpt>
      <trkpt lat="59.9235064" lon="17.7174956">
        <ele>49.1646</ele>
        <time>2014-05-15T16:32:04Z</time>
      </trkpt>
      <trkpt lat="59.9235406" lon="17.7175232">
        <ele>50.6066</ele>
        <time>2014-05-15T16:32:05Z</time>
      </trkpt>
      <trkpt lat="59.9235741" lon="17.7175619">
        <ele>52.0486</ele>
        <time>2014-05-15T16:32:06Z</time>
      </trkpt>
      <trkpt lat="59.9236127" lon="17.7175985">
        <ele>54.4518</ele>
        <time>2014-05-15T16:32:07Z</time>
      </trkpt>
      <trkpt lat="59.9236452" lon="17.7176246">
        <ele>54.9324</ele>
        <time>2014-05-15T16:32:08Z</time>
      </trkpt>
      <trkpt lat="59.9236648" lon="17.7176518">
        <ele>54.4518</ele>
        <time>2014-05-15T16:32:09Z</time>
      </trkpt>
      <trkpt lat="59.9236892" lon="17.7176742">
        <ele>54.9324</ele>
        <time>2014-05-15T16:32:10Z</time>
      </trkpt>
      <trkpt lat="59.9237167" lon="17.717702">
        <ele>55.4131</ele>
        <time>2014-05-15T16:32:11Z</time>
      </trkpt>
      <trkpt lat="59.9237415" lon="17.7177533">
        <ele>56.8551</ele>
        <time>2014-05-15T16:32:12Z</time>
      </trkpt>
      <trkpt lat="59.9237587" lon="17.7178099">
        <ele>57.3358</ele>
        <time>2014-05-15T16:32:13Z</time>
      </trkpt>
      <trkpt lat="59.9237669" lon="17.7178641">
        <ele>56.8551</ele>
        <time>2014-05-15T16:32:14Z</time>
      </trkpt>
      <trkpt lat="59.9237836" lon="17.7179258">
        <ele>58.2971</ele>
        <time>2014-05-15T16:32:15Z</time>
      </trkpt>
      <trkpt lat="59.923797" lon="17.7179764">
        <ele>57.8165</ele>
        <time>2014-05-15T16:32:16Z</time>
      </trkpt>
      <trkpt lat="59.923809" lon="17.7180246">
        <ele>57.8165</ele>
        <time>2014-05-15T16:32:17Z</time>
      </trkpt>
      <trkpt lat="59.9238224" lon="17.7180701">
        <ele>57.3358</ele>
        <time>2014-05-15T16:32:18Z</time>
      </trkpt>
      <trkpt lat="59.9238452" lon="17.7181114">
        <ele>57.8165</ele>
        <time>2014-05-15T16:32:19Z</time>
      </trkpt>
      <trkpt lat="59.92386" lon="17.7181422">
        <ele>57.3358</ele>
        <time>2014-05-15T16:32:20Z</time>
      </trkpt>
      <trkpt lat="59.9238741" lon="17.7181787">
        <ele>55.8938</ele>
        <time>2014-05-15T16:32:21Z</time>
      </trkpt>
      <trkpt lat="59.9238949" lon="17.7182143">
        <ele>55.8938</ele>
        <time>2014-05-15T16:32:22Z</time>
      </trkpt>
      <trkpt lat="59.9239126" lon="17.7182385">
        <ele>55.4131</ele>
        <time>2014-05-15T16:32:23Z</time>
      </trkpt>
      <trkpt lat="59.9239404" lon="17.7182524">
        <ele>55.8938</ele>
        <time>2014-05-15T16:32:24Z</time>
      </trkpt>
      <trkpt lat="59.9239679" lon="17.7182667">
        <ele>56.3745</ele>
        <time>2014-05-15T16:32:25Z</time>
      </trkpt>
      <trkpt lat="59.9239812" lon="17.7182837">
        <ele>55.8938</ele>
        <time>2014-05-15T16:32:26Z</time>
      </trkpt>
      <trkpt lat="59.9239994" lon="17.7183013">
        <ele>55.8938</ele>
        <time>2014-05-15T16:32:27Z</time>
      </trkpt>
      <trkpt lat="59.9240134" lon="17.7183102">
        <ele>55.4131</ele>
        <time>2014-05-15T16:32:28Z</time>
      </trkpt>
      <trkpt lat="59.9240335" lon="17.7183133">
        <ele>54.9324</ele>
        <time>2014-05-15T16:32:29Z</time>
      </trkpt>
      <trkpt lat="59.9240439" lon="17.7183071">
        <ele>53.0098</ele>
        <time>2014-05-15T16:32:30Z</time>
      </trkpt>
      <trkpt lat="59.9240515" lon="17.71831">
        <ele>51.5679</ele>
        <time>2014-05-15T16:32:31Z</time>
      </trkpt>
      <trkpt lat="59.9240622" lon="17.7183029">
        <ele>50.6066</ele>
        <time>2014-05-15T16:32:32Z</time>
      </trkpt>
      <trkpt lat="59.924084" lon="17.7182899">
        <ele>51.0872</ele>
        <time>2014-05-15T16:32:33Z</time>
      </trkpt>
      <trkpt lat="59.9241024" lon="17.7182774">
        <ele>50.6066</ele>
        <time>2014-05-15T16:32:34Z</time>
      </trkpt>
      <trkpt lat="59.9241247" lon="17.7182478">
        <ele>49.6453</ele>
        <time>2014-05-15T16:32:35Z</time>
      </trkpt>
      <trkpt lat="59.924134" lon="17.7182134">
        <ele>48.2034</ele>
        <time>2014-05-15T16:32:36Z</time>
      </trkpt>
      <trkpt lat="59.9241532" lon="17.7181795">
        <ele>47.7225</ele>
        <time>2014-05-15T16:32:37Z</time>
      </trkpt>
      <trkpt lat="59.9241729" lon="17.7181475">
        <ele>47.2418</ele>
        <time>2014-05-15T16:32:38Z</time>
      </trkpt>
      <trkpt lat="59.9241851" lon="17.7180987">
        <ele>45.7999</ele>
        <time>2014-05-15T16:32:39Z</time>
      </trkpt>
      <trkpt lat="59.9242017" lon="17.7180471">
        <ele>46.2806</ele>
        <time>2014-05-15T16:32:40Z</time>
      </trkpt>
      <trkpt lat="59.924219" lon="17.7179984">
        <ele>46.7612</ele>
        <time>2014-05-15T16:32:41Z</time>
      </trkpt>
      <trkpt lat="59.9242356" lon="17.7179584">
        <ele>47.2418</ele>
        <time>2014-05-15T16:32:42Z</time>
      </trkpt>
      <trkpt lat="59.9242472" lon="17.7179135">
        <ele>46.7612</ele>
        <time>2014-05-15T16:32:43Z</time>
      </trkpt>
      <trkpt lat="59.9242746" lon="17.7178605">
        <ele>47.7225</ele>
        <time>2014-05-15T16:32:44Z</time>
      </trkpt>
      <trkpt lat="59.9242929" lon="17.7178261">
        <ele>47.2418</ele>
        <time>2014-05-15T16:32:45Z</time>
      </trkpt>
      <trkpt lat="59.9243236" lon="17.7177782">
        <ele>48.2034</ele>
        <time>2014-05-15T16:32:46Z</time>
      </trkpt>
      <trkpt lat="59.9243524" lon="17.7177259">
        <ele>49.6453</ele>
        <time>2014-05-15T16:32:47Z</time>
      </trkpt>
      <trkpt lat="59.9243833" lon="17.717672">
        <ele>50.126</ele>
        <time>2014-05-15T16:32:48Z</time>
      </trkpt>
      <trkpt lat="59.9244151" lon="17.7176241">
        <ele>50.6066</ele>
        <time>2014-05-15T16:32:49Z</time>
      </trkpt>
      <trkpt lat="59.9244497" lon="17.7175849">
        <ele>51.0872</ele>
        <time>2014-05-15T16:32:50Z</time>
      </trkpt>
      <trkpt lat="59.9244803" lon="17.7175522">
        <ele>52.0486</ele>
        <time>2014-05-15T16:32:51Z</time>
      </trkpt>
      <trkpt lat="59.9245018" lon="17.7175189">
        <ele>52.5292</ele>
        <time>2014-05-15T16:32:52Z</time>
      </trkpt>
      <trkpt lat="59.9245181" lon="17.7174839">
        <ele>53.9712</ele>
        <time>2014-05-15T16:32:53Z</time>
      </trkpt>
      <trkpt lat="59.9245366" lon="17.7174534">
        <ele>55.4131</ele>
        <time>2014-05-15T16:32:54Z</time>
      </trkpt>
      <trkpt lat="59.9245596" lon="17.7174197">
        <ele>56.3745</ele>
        <time>2014-05-15T16:32:55Z</time>
      </trkpt>
      <trkpt lat="59.9245731" lon="17.7173921">
        <ele>55.8938</ele>
        <time>2014-05-15T16:32:56Z</time>
      </trkpt>
      <trkpt lat="59.9245947" lon="17.717361">
        <ele>55.8938</ele>
        <time>2014-05-15T16:32:57Z</time>
      </trkpt>
      <trkpt lat="59.9246097" lon="17.7173243">
        <ele>55.8938</ele>
        <time>2014-05-15T16:32:58Z</time>
      </trkpt>
      <trkpt lat="59.9246254" lon="17.7172915">
        <ele>55.8938</ele>
        <time>2014-05-15T16:32:59Z</time>
      </trkpt>
      <trkpt lat="59.924648" lon="17.7172502">
        <ele>56.3745</ele>
        <time>2014-05-15T16:33:00Z</time>
      </trkpt>
      <trkpt lat="59.9246593" lon="17.7172099">
        <ele>55.4131</ele>
        <time>2014-05-15T16:33:01Z</time>
      </trkpt>
      <trkpt lat="59.9246733" lon="17.7171725">
        <ele>55.4131</ele>
        <time>2014-05-15T16:33:02Z</time>
      </trkpt>
      <trkpt lat="59.9246866" lon="17.7171375">
        <ele>54.9324</ele>
        <time>2014-05-15T16:33:03Z</time>
      </trkpt>
      <trkpt lat="59.9246989" lon="17.7171047">
        <ele>54.4518</ele>
        <time>2014-05-15T16:33:04Z</time>
      </trkpt>
      <trkpt lat="59.9247181" lon="17.7170733">
        <ele>54.4518</ele>
        <time>2014-05-15T16:33:05Z</time>
      </trkpt>
      <trkpt lat="59.9247381" lon="17.7170499">
        <ele>53.4905</ele>
        <time>2014-05-15T16:33:06Z</time>
      </trkpt>
      <trkpt lat="59.9247641" lon="17.7170333">
        <ele>53.0098</ele>
        <time>2014-05-15T16:33:07Z</time>
      </trkpt>
      <trkpt lat="59.924787" lon="17.717012">
        <ele>52.0486</ele>
        <time>2014-05-15T16:33:08Z</time>
      </trkpt>
      <trkpt lat="59.9248113" lon="17.7169909">
        <ele>51.5679</ele>
        <time>2014-05-15T16:33:09Z</time>
      </trkpt>
      <trkpt lat="59.9248341" lon="17.7169789">
        <ele>50.6066</ele>
        <time>2014-05-15T16:33:10Z</time>
      </trkpt>
      <trkpt lat="59.9248511" lon="17.7169557">
        <ele>49.1646</ele>
        <time>2014-05-15T16:33:11Z</time>
      </trkpt>
      <trkpt lat="59.9248683" lon="17.7169254">
        <ele>48.2034</ele>
        <time>2014-05-15T16:33:12Z</time>
      </trkpt>
      <trkpt lat="59.9248868" lon="17.7169">
        <ele>47.2418</ele>
        <time>2014-05-15T16:33:13Z</time>
      </trkpt>
      <trkpt lat="59.9249122" lon="17.7168722">
        <ele>46.7612</ele>
        <time>2014-05-15T16:33:14Z</time>
      </trkpt>
      <trkpt lat="59.924938" lon="17.716852">
        <ele>45.7999</ele>
        <time>2014-05-15T16:33:15Z</time>
      </trkpt>
      <trkpt lat="59.9249608" lon="17.7168249">
        <ele>44.8386</ele>
        <time>2014-05-15T16:33:16Z</time>
      </trkpt>
      <trkpt lat="59.9249842" lon="17.7167808">
        <ele>44.358</ele>
        <time>2014-05-15T16:33:17Z</time>
      </trkpt>
      <trkpt lat="59.9249999" lon="17.7167308">
        <ele>43.3966</ele>
        <time>2014-05-15T16:33:18Z</time>
      </trkpt>
      <trkpt lat="59.9250058" lon="17.7166753">
        <ele>42.4354</ele>
        <time>2014-05-15T16:33:19Z</time>
      </trkpt>
      <trkpt lat="59.9250081" lon="17.7166195">
        <ele>41.9547</ele>
        <time>2014-05-15T16:33:20Z</time>
      </trkpt>
      <trkpt lat="59.9250098" lon="17.7165712">
        <ele>41.474</ele>
        <time>2014-05-15T16:33:21Z</time>
      </trkpt>
      <trkpt lat="59.9250164" lon="17.7165343">
        <ele>40.9934</ele>
        <time>2014-05-15T16:33:22Z</time>
      </trkpt>
      <trkpt lat="59.9250185" lon="17.7164925">
        <ele>40.5128</ele>
        <time>2014-05-15T16:33:23Z</time>
      </trkpt>
      <trkpt lat="59.9250219" lon="17.7164422">
        <ele>40.5128</ele>
        <time>2014-05-15T16:33:24Z</time>
      </trkpt>
      <trkpt lat="59.9250303" lon="17.7163936">
        <ele>40.5128</ele>
        <time>2014-05-15T16:33:25Z</time>
      </trkpt>
      <trkpt lat="59.9250366" lon="17.7163488">
        <ele>40.0321</ele>
        <time>2014-05-15T16:33:26Z</time>
      </trkpt>
      <trkpt lat="59.9250388" lon="17.7162993">
        <ele>39.0707</ele>
        <time>2014-05-15T16:33:27Z</time>
      </trkpt>
      <trkpt lat="59.9250362" lon="17.7162551">
        <ele>38.1094</ele>
        <time>2014-05-15T16:33:28Z</time>
      </trkpt>
      <trkpt lat="59.9250262" lon="17.7162278">
        <ele>36.6675</ele>
        <time>2014-05-15T16:33:29Z</time>
      </trkpt>
      <trkpt lat="59.9250029" lon="17.7162044">
        <ele>35.2255</ele>
        <time>2014-05-15T16:33:30Z</time>
      </trkpt>
      <trkpt lat="59.92498" lon="17.7161783">
        <ele>34.2642</ele>
        <time>2014-05-15T16:33:31Z</time>
      </trkpt>
      <trkpt lat="59.9249528" lon="17.7161452">
        <ele>32.8223</ele>
        <time>2014-05-15T16:33:32Z</time>
      </trkpt>
      <trkpt lat="59.9249259" lon="17.7161075">
        <ele>31.8607</ele>
        <time>2014-05-15T16:33:33Z</time>
      </trkpt>
      <trkpt lat="59.9249071" lon="17.7160693">
        <ele>32.3416</ele>
        <time>2014-05-15T16:33:34Z</time>
      </trkpt>
      <trkpt lat="59.9248811" lon="17.7160392">
        <ele>31.3801</ele>
        <time>2014-05-15T16:33:35Z</time>
      </trkpt>
      <trkpt lat="59.9248549" lon="17.716005">
        <ele>30.8995</ele>
        <time>2014-05-15T16:33:36Z</time>
      </trkpt>
      <trkpt lat="59.9248279" lon="17.7159775">
        <ele>30.4188</ele>
        <time>2014-05-15T16:33:37Z</time>
      </trkpt>
      <trkpt lat="59.9248005" lon="17.7159497">
        <ele>29.9381</ele>
        <time>2014-05-15T16:33:38Z</time>
      </trkpt>
      <trkpt lat="59.9247723" lon="17.7159155">
        <ele>28.9769</ele>
        <time>2014-05-15T16:33:39Z</time>
      </trkpt>
      <trkpt lat="59.9247456" lon="17.7158905">
        <ele>29.4575</ele>
        <time>2014-05-15T16:33:40Z</time>
      </trkpt>
      <trkpt lat="59.9247196" lon="17.715876">
        <ele>28.9769</ele>
        <time>2014-05-15T16:33:41Z</time>
      </trkpt>
      <trkpt lat="59.9246978" lon="17.7158539">
        <ele>28.9769</ele>
        <time>2014-05-15T16:33:42Z</time>
      </trkpt>
      <trkpt lat="59.9246707" lon="17.7158378">
        <ele>28.9769</ele>
        <time>2014-05-15T16:33:43Z</time>
      </trkpt>
      <trkpt lat="59.9246461" lon="17.7158345">
        <ele>28.9769</ele>
        <time>2014-05-15T16:33:44Z</time>
      </trkpt>
      <trkpt lat="59.924628" lon="17.7158209">
        <ele>29.9381</ele>
        <time>2014-05-15T16:33:45Z</time>
      </trkpt>
      <trkpt lat="59.9246067" lon="17.715803">
        <ele>30.4188</ele>
        <time>2014-05-15T16:33:46Z</time>
      </trkpt>
      <trkpt lat="59.9245849" lon="17.7157853">
        <ele>29.9381</ele>
        <time>2014-05-15T16:33:47Z</time>
      </trkpt>
      <trkpt lat="59.9245626" lon="17.7157738">
        <ele>29.9381</ele>
        <time>2014-05-15T16:33:48Z</time>
      </trkpt>
      <trkpt lat="59.9245409" lon="17.715771">
        <ele>29.9381</ele>
        <time>2014-05-15T16:33:49Z</time>
      </trkpt>
      <trkpt lat="59.9245228" lon="17.7157631">
        <ele>29.9381</ele>
        <time>2014-05-15T16:33:50Z</time>
      </trkpt>
      <trkpt lat="59.9245058" lon="17.7157266">
        <ele>30.8995</ele>
        <time>2014-05-15T16:33:51Z</time>
      </trkpt>
      <trkpt lat="59.9244906" lon="17.7157055">
        <ele>31.3801</ele>
        <time>2014-05-15T16:33:52Z</time>
      </trkpt>
      <trkpt lat="59.9244709" lon="17.7156859">
        <ele>31.3801</ele>
        <time>2014-05-15T16:33:53Z</time>
      </trkpt>
      <trkpt lat="59.9244501" lon="17.7156506">
        <ele>32.8223</ele>
        <time>2014-05-15T16:33:54Z</time>
      </trkpt>
      <trkpt lat="59.9244241" lon="17.7156202">
        <ele>34.2642</ele>
        <time>2014-05-15T16:33:55Z</time>
      </trkpt>
      <trkpt lat="59.9243944" lon="17.7155983">
        <ele>34.2642</ele>
        <time>2014-05-15T16:33:56Z</time>
      </trkpt>
      <trkpt lat="59.9243673" lon="17.7155641">
        <ele>35.2255</ele>
        <time>2014-05-15T16:33:57Z</time>
      </trkpt>
      <trkpt lat="59.9243304" lon="17.7155356">
        <ele>35.7061</ele>
        <time>2014-05-15T16:33:58Z</time>
      </trkpt>
      <trkpt lat="59.9242951" lon="17.7155125">
        <ele>37.1481</ele>
        <time>2014-05-15T16:33:59Z</time>
      </trkpt>
      <trkpt lat="59.9242736" lon="17.7155019">
        <ele>37.6287</ele>
        <time>2014-05-15T16:34:00Z</time>
      </trkpt>
      <trkpt lat="59.9242481" lon="17.715498">
        <ele>37.6287</ele>
        <time>2014-05-15T16:34:01Z</time>
      </trkpt>
      <trkpt lat="59.9242294" lon="17.7154847">
        <ele>37.6287</ele>
        <time>2014-05-15T16:34:02Z</time>
      </trkpt>
      <trkpt lat="59.9242119" lon="17.7154685">
        <ele>38.1094</ele>
        <time>2014-05-15T16:34:03Z</time>
      </trkpt>
      <trkpt lat="59.9241928" lon="17.7154511">
        <ele>39.0707</ele>
        <time>2014-05-15T16:34:04Z</time>
      </trkpt>
      <trkpt lat="59.9241721" lon="17.7154226">
        <ele>39.0707</ele>
        <time>2014-05-15T16:34:05Z</time>
      </trkpt>
      <trkpt lat="59.9241499" lon="17.7154072">
        <ele>39.5513</ele>
        <time>2014-05-15T16:34:06Z</time>
      </trkpt>
      <trkpt lat="59.9241275" lon="17.7153943">
        <ele>39.5513</ele>
        <time>2014-05-15T16:34:07Z</time>
      </trkpt>
      <trkpt lat="59.9241089" lon="17.7153787">
        <ele>39.5513</ele>
        <time>2014-05-15T16:34:08Z</time>
      </trkpt>
      <trkpt lat="59.9240836" lon="17.7153631">
        <ele>39.0707</ele>
        <time>2014-05-15T16:34:09Z</time>
      </trkpt>
      <trkpt lat="59.9240556" lon="17.7153424">
        <ele>40.0321</ele>
        <time>2014-05-15T16:34:10Z</time>
      </trkpt>
      <trkpt lat="59.9240281" lon="17.7153062">
        <ele>39.5513</ele>
        <time>2014-05-15T16:34:11Z</time>
      </trkpt>
      <trkpt lat="59.9240047" lon="17.7152776">
        <ele>40.0321</ele>
        <time>2014-05-15T16:34:12Z</time>
      </trkpt>
      <trkpt lat="59.923981" lon="17.7152568">
        <ele>40.5128</ele>
        <time>2014-05-15T16:34:13Z</time>
      </trkpt>
      <trkpt lat="59.9239579" lon="17.7152293">
        <ele>40.5128</ele>
        <time>2014-05-15T16:34:14Z</time>
      </trkpt>
      <trkpt lat="59.9239444" lon="17.7151882">
        <ele>40.0321</ele>
        <time>2014-05-15T16:34:15Z</time>
      </trkpt>
      <trkpt lat="59.9239282" lon="17.7151418">
        <ele>40.0321</ele>
        <time>2014-05-15T16:34:16Z</time>
      </trkpt>
      <trkpt lat="59.923912" lon="17.7150941">
        <ele>40.0321</ele>
        <time>2014-05-15T16:34:17Z</time>
      </trkpt>
      <trkpt lat="59.9238996" lon="17.7150644">
        <ele>39.5513</ele>
        <time>2014-05-15T16:34:18Z</time>
      </trkpt>
      <trkpt lat="59.9238787" lon="17.7150223">
        <ele>39.5513</ele>
        <time>2014-05-15T16:34:19Z</time>
      </trkpt>
      <trkpt lat="59.9238598" lon="17.7149769">
        <ele>39.5513</ele>
        <time>2014-05-15T16:34:20Z</time>
      </trkpt>
      <trkpt lat="59.9238347" lon="17.7149368">
        <ele>39.0707</ele>
        <time>2014-05-15T16:34:21Z</time>
      </trkpt>
      <trkpt lat="59.9238151" lon="17.7148963">
        <ele>40.0321</ele>
        <time>2014-05-15T16:34:22Z</time>
      </trkpt>
      <trkpt lat="59.9237973" lon="17.7148613">
        <ele>40.0321</ele>
        <time>2014-05-15T16:34:23Z</time>
      </trkpt>
      <trkpt lat="59.9237737" lon="17.7148312">
        <ele>40.0321</ele>
        <time>2014-05-15T16:34:24Z</time>
      </trkpt>
      <trkpt lat="59.9237551" lon="17.714788">
        <ele>40.0321</ele>
        <time>2014-05-15T16:34:25Z</time>
      </trkpt>
      <trkpt lat="59.9237374" lon="17.7147488">
        <ele>40.0321</ele>
        <time>2014-05-15T16:34:26Z</time>
      </trkpt>
      <trkpt lat="59.9237172" lon="17.7147213">
        <ele>40.0321</ele>
        <time>2014-05-15T16:34:27Z</time>
      </trkpt>
      <trkpt lat="59.923698" lon="17.714698">
        <ele>40.5128</ele>
        <time>2014-05-15T16:34:28Z</time>
      </trkpt>
      <trkpt lat="59.9236804" lon="17.7146721">
        <ele>40.5128</ele>
        <time>2014-05-15T16:34:29Z</time>
      </trkpt>
      <trkpt lat="59.9236604" lon="17.7146395">
        <ele>40.5128</ele>
        <time>2014-05-15T16:34:30Z</time>
      </trkpt>
      <trkpt lat="59.9236401" lon="17.7146022">
        <ele>40.5128</ele>
        <time>2014-05-15T16:34:31Z</time>
      </trkpt>
      <trkpt lat="59.9236213" lon="17.7145623">
        <ele>40.5128</ele>
        <time>2014-05-15T16:34:32Z</time>
      </trkpt>
      <trkpt lat="59.9236002" lon="17.7145314">
        <ele>40.0321</ele>
        <time>2014-05-15T16:34:33Z</time>
      </trkpt>
      <trkpt lat="59.92358" lon="17.7145099">
        <ele>40.5128</ele>
        <time>2014-05-15T16:34:34Z</time>
      </trkpt>
      <trkpt lat="59.9235673" lon="17.714472">
        <ele>40.5128</ele>
        <time>2014-05-15T16:34:35Z</time>
      </trkpt>
      <trkpt lat="59.9235551" lon="17.7144343">
        <ele>40.5128</ele>
        <time>2014-05-15T16:34:36Z</time>
      </trkpt>
      <trkpt lat="59.9235386" lon="17.7143988">
        <ele>40.0321</ele>
        <time>2014-05-15T16:34:37Z</time>
      </trkpt>
      <trkpt lat="59.9235249" lon="17.7143541">
        <ele>40.0321</ele>
        <time>2014-05-15T16:34:38Z</time>
      </trkpt>
      <trkpt lat="59.9235136" lon="17.7143054">
        <ele>40.0321</ele>
        <time>2014-05-15T16:34:39Z</time>
      </trkpt>
      <trkpt lat="59.9235069" lon="17.7142629">
        <ele>40.9934</ele>
        <time>2014-05-15T16:34:40Z</time>
      </trkpt>
      <trkpt lat="59.9234951" lon="17.7142149">
        <ele>40.5128</ele>
        <time>2014-05-15T16:34:41Z</time>
      </trkpt>
      <trkpt lat="59.9234846" lon="17.7141723">
        <ele>40.5128</ele>
        <time>2014-05-15T16:34:42Z</time>
      </trkpt>
      <trkpt lat="59.9234738" lon="17.7141535">
        <ele>40.9934</ele>
        <time>2014-05-15T16:34:43Z</time>
      </trkpt>
      <trkpt lat="59.9234598" lon="17.7141296">
        <ele>40.5128</ele>
        <time>2014-05-15T16:34:44Z</time>
      </trkpt>
      <trkpt lat="59.9234459" lon="17.7141003">
        <ele>40.0321</ele>
        <time>2014-05-15T16:34:45Z</time>
      </trkpt>
      <trkpt lat="59.923427" lon="17.7140644">
        <ele>39.0707</ele>
        <time>2014-05-15T16:34:46Z</time>
      </trkpt>
      <trkpt lat="59.9234099" lon="17.7140324">
        <ele>38.1094</ele>
        <time>2014-05-15T16:34:47Z</time>
      </trkpt>
      <trkpt lat="59.92339" lon="17.7140115">
        <ele>38.1094</ele>
        <time>2014-05-15T16:34:48Z</time>
      </trkpt>
      <trkpt lat="59.9233681" lon="17.7140014">
        <ele>38.1094</ele>
        <time>2014-05-15T16:34:49Z</time>
      </trkpt>
      <trkpt lat="59.9233458" lon="17.7139941">
        <ele>38.1094</ele>
        <time>2014-05-15T16:34:50Z</time>
      </trkpt>
      <trkpt lat="59.9233203" lon="17.71399">
        <ele>38.5901</ele>
        <time>2014-05-15T16:34:51Z</time>
      </trkpt>
      <trkpt lat="59.9232983" lon="17.7139836">
        <ele>39.0707</ele>
        <time>2014-05-15T16:34:52Z</time>
      </trkpt>
      <trkpt lat="59.9232795" lon="17.713962">
        <ele>38.5901</ele>
        <time>2014-05-15T16:34:53Z</time>
      </trkpt>
      <trkpt lat="59.9232622" lon="17.7139422">
        <ele>38.1094</ele>
        <time>2014-05-15T16:34:54Z</time>
      </trkpt>
      <trkpt lat="59.9232429" lon="17.7139107">
        <ele>37.6287</ele>
        <time>2014-05-15T16:34:55Z</time>
      </trkpt>
      <trkpt lat="59.923223" lon="17.7138716">
        <ele>37.6287</ele>
        <time>2014-05-15T16:34:56Z</time>
      </trkpt>
      <trkpt lat="59.9232044" lon="17.7138266">
        <ele>36.6675</ele>
        <time>2014-05-15T16:34:57Z</time>
      </trkpt>
      <trkpt lat="59.923194" lon="17.71379">
        <ele>36.6675</ele>
        <time>2014-05-15T16:34:58Z</time>
      </trkpt>
      <trkpt lat="59.9231805" lon="17.7137423">
        <ele>35.2255</ele>
        <time>2014-05-15T16:34:59Z</time>
      </trkpt>
      <trkpt lat="59.923165" lon="17.7136943">
        <ele>34.7449</ele>
        <time>2014-05-15T16:35:00Z</time>
      </trkpt>
      <trkpt lat="59.9231391" lon="17.7136548">
        <ele>33.7834</ele>
        <time>2014-05-15T16:35:01Z</time>
      </trkpt>
      <trkpt lat="59.9231206" lon="17.7136175">
        <ele>33.7834</ele>
        <time>2014-05-15T16:35:02Z</time>
      </trkpt>
      <trkpt lat="59.9231112" lon="17.7135764">
        <ele>33.3029</ele>
        <time>2014-05-15T16:35:03Z</time>
      </trkpt>
      <trkpt lat="59.9230999" lon="17.7135383">
        <ele>33.3029</ele>
        <time>2014-05-15T16:35:04Z</time>
      </trkpt>
      <trkpt lat="59.9230862" lon="17.7135023">
        <ele>32.8223</ele>
        <time>2014-05-15T16:35:05Z</time>
      </trkpt>
      <trkpt lat="59.9230718" lon="17.7134786">
        <ele>32.8223</ele>
        <time>2014-05-15T16:35:06Z</time>
      </trkpt>
      <trkpt lat="59.9230538" lon="17.7134555">
        <ele>32.3416</ele>
        <time>2014-05-15T16:35:07Z</time>
      </trkpt>
      <trkpt lat="59.9230366" lon="17.7134331">
        <ele>32.8223</ele>
        <time>2014-05-15T16:35:08Z</time>
      </trkpt>
      <trkpt lat="59.9230165" lon="17.7134067">
        <ele>32.3416</ele>
        <time>2014-05-15T16:35:09Z</time>
      </trkpt>
      <trkpt lat="59.9229993" lon="17.7133709">
        <ele>32.3416</ele>
        <time>2014-05-15T16:35:10Z</time>
      </trkpt>
      <trkpt lat="59.922987" lon="17.7133298">
        <ele>32.8223</ele>
        <time>2014-05-15T16:35:11Z</time>
      </trkpt>
      <trkpt lat="59.9229607" lon="17.7132878">
        <ele>32.3416</ele>
        <time>2014-05-15T16:35:12Z</time>
      </trkpt>
      <trkpt lat="59.9229416" lon="17.7132528">
        <ele>32.3416</ele>
        <time>2014-05-15T16:35:13Z</time>
      </trkpt>
      <trkpt lat="59.9229183" lon="17.7132154">
        <ele>32.8223</ele>
        <time>2014-05-15T16:35:14Z</time>
      </trkpt>
      <trkpt lat="59.9228978" lon="17.7131777">
        <ele>32.8223</ele>
        <time>2014-05-15T16:35:15Z</time>
      </trkpt>
      <trkpt lat="59.9228822" lon="17.7131359">
        <ele>33.3029</ele>
        <time>2014-05-15T16:35:16Z</time>
      </trkpt>
      <trkpt lat="59.9228711" lon="17.7131151">
        <ele>33.3029</ele>
        <time>2014-05-15T16:35:17Z</time>
      </trkpt>
      <trkpt lat="59.9228583" lon="17.7131019">
        <ele>32.8223</ele>
        <time>2014-05-15T16:35:18Z</time>
      </trkpt>
      <trkpt lat="59.9228382" lon="17.7130834">
        <ele>32.8223</ele>
        <time>2014-05-15T16:35:19Z</time>
      </trkpt>
      <trkpt lat="59.9228141" lon="17.7130615">
        <ele>32.3416</ele>
        <time>2014-05-15T16:35:20Z</time>
      </trkpt>
      <trkpt lat="59.9227978" lon="17.7130424">
        <ele>31.3801</ele>
        <time>2014-05-15T16:35:21Z</time>
      </trkpt>
      <trkpt lat="59.9227812" lon="17.7130322">
        <ele>30.8995</ele>
        <time>2014-05-15T16:35:22Z</time>
      </trkpt>
      <trkpt lat="59.9227637" lon="17.713014">
        <ele>30.4188</ele>
        <time>2014-05-15T16:35:23Z</time>
      </trkpt>
      <trkpt lat="59.9227542" lon="17.7129786">
        <ele>29.9381</ele>
        <time>2014-05-15T16:35:24Z</time>
      </trkpt>
      <trkpt lat="59.9227486" lon="17.7129358">
        <ele>28.9769</ele>
        <time>2014-05-15T16:35:25Z</time>
      </trkpt>
      <trkpt lat="59.9227394" lon="17.7128945">
        <ele>28.0155</ele>
        <time>2014-05-15T16:35:26Z</time>
      </trkpt>
      <trkpt lat="59.9227386" lon="17.7128395">
        <ele>27.5349</ele>
        <time>2014-05-15T16:35:27Z</time>
      </trkpt>
      <trkpt lat="59.9227399" lon="17.7127844">
        <ele>26.5736</ele>
        <time>2014-05-15T16:35:28Z</time>
      </trkpt>
      <trkpt lat="59.9227411" lon="17.7127279">
        <ele>26.5736</ele>
        <time>2014-05-15T16:35:29Z</time>
      </trkpt>
      <trkpt lat="59.9227367" lon="17.7126725">
        <ele>27.0543</ele>
        <time>2014-05-15T16:35:30Z</time>
      </trkpt>
      <trkpt lat="59.9227443" lon="17.712625">
        <ele>27.0543</ele>
        <time>2014-05-15T16:35:31Z</time>
      </trkpt>
      <trkpt lat="59.922757" lon="17.712582">
        <ele>28.0155</ele>
        <time>2014-05-15T16:35:32Z</time>
      </trkpt>
      <trkpt lat="59.9227715" lon="17.7125406">
        <ele>27.5349</ele>
        <time>2014-05-15T16:35:33Z</time>
      </trkpt>
      <trkpt lat="59.9227729" lon="17.7125015">
        <ele>28.4962</ele>
        <time>2014-05-15T16:35:34Z</time>
      </trkpt>
      <trkpt lat="59.9227739" lon="17.7124443">
        <ele>30.4188</ele>
        <time>2014-05-15T16:35:35Z</time>
      </trkpt>
      <trkpt lat="59.9227851" lon="17.7124074">
        <ele>30.8995</ele>
        <time>2014-05-15T16:35:36Z</time>
      </trkpt>
      <trkpt lat="59.922796" lon="17.71238">
        <ele>32.3416</ele>
        <time>2014-05-15T16:35:37Z</time>
      </trkpt>
      <trkpt lat="59.9228097" lon="17.7123472">
        <ele>33.7834</ele>
        <time>2014-05-15T16:35:38Z</time>
      </trkpt>
      <trkpt lat="59.9228339" lon="17.7123167">
        <ele>34.2642</ele>
        <time>2014-05-15T16:35:39Z</time>
      </trkpt>
      <trkpt lat="59.9228448" lon="17.7122729">
        <ele>34.7449</ele>
        <time>2014-05-15T16:35:40Z</time>
      </trkpt>
      <trkpt lat="59.9228567" lon="17.7122159">
        <ele>35.2255</ele>
        <time>2014-05-15T16:35:41Z</time>
      </trkpt>
      <trkpt lat="59.9228606" lon="17.7121589">
        <ele>36.6675</ele>
        <time>2014-05-15T16:35:42Z</time>
      </trkpt>
      <trkpt lat="59.9228699" lon="17.7120952">
        <ele>38.5901</ele>
        <time>2014-05-15T16:35:43Z</time>
      </trkpt>
      <trkpt lat="59.9228744" lon="17.7120395">
        <ele>39.5513</ele>
        <time>2014-05-15T16:35:44Z</time>
      </trkpt>
      <trkpt lat="59.922881" lon="17.7119835">
        <ele>40.5128</ele>
        <time>2014-05-15T16:35:45Z</time>
      </trkpt>
      <trkpt lat="59.9228879" lon="17.7119329">
        <ele>40.5128</ele>
        <time>2014-05-15T16:35:46Z</time>
      </trkpt>
      <trkpt lat="59.9228961" lon="17.7118716">
        <ele>41.9547</ele>
        <time>2014-05-15T16:35:47Z</time>
      </trkpt>
      <trkpt lat="59.922906" lon="17.7118133">
        <ele>42.916</ele>
        <time>2014-05-15T16:35:48Z</time>
      </trkpt>
      <trkpt lat="59.9229206" lon="17.7117631">
        <ele>43.8773</ele>
        <time>2014-05-15T16:35:49Z</time>
      </trkpt>
      <trkpt lat="59.92293" lon="17.7117126">
        <ele>45.7999</ele>
        <time>2014-05-15T16:35:50Z</time>
      </trkpt>
      <trkpt lat="59.9229374" lon="17.7116527">
        <ele>46.7612</ele>
        <time>2014-05-15T16:35:51Z</time>
      </trkpt>
      <trkpt lat="59.922947" lon="17.7115797">
        <ele>48.2034</ele>
        <time>2014-05-15T16:35:52Z</time>
      </trkpt>
      <trkpt lat="59.9229583" lon="17.7115199">
        <ele>49.1646</ele>
        <time>2014-05-15T16:35:53Z</time>
      </trkpt>
      <trkpt lat="59.9229639" lon="17.7114641">
        <ele>50.6066</ele>
        <time>2014-05-15T16:35:54Z</time>
      </trkpt>
      <trkpt lat="59.9229697" lon="17.7114085">
        <ele>51.0872</ele>
        <time>2014-05-15T16:35:55Z</time>
      </trkpt>
      <trkpt lat="59.9229813" lon="17.7113574">
        <ele>51.0872</ele>
        <time>2014-05-15T16:35:56Z</time>
      </trkpt>
      <trkpt lat="59.9229972" lon="17.7113111">
        <ele>50.6066</ele>
        <time>2014-05-15T16:35:57Z</time>
      </trkpt>
      <trkpt lat="59.9230074" lon="17.7112611">
        <ele>49.6453</ele>
        <time>2014-05-15T16:35:58Z</time>
      </trkpt>
      <trkpt lat="59.9230055" lon="17.7112186">
        <ele>48.2034</ele>
        <time>2014-05-15T16:35:59Z</time>
      </trkpt>
      <trkpt lat="59.9230014" lon="17.7111746">
        <ele>47.2418</ele>
        <time>2014-05-15T16:36:00Z</time>
      </trkpt>
      <trkpt lat="59.9229957" lon="17.7111332">
        <ele>46.2806</ele>
        <time>2014-05-15T16:36:01Z</time>
      </trkpt>
      <trkpt lat="59.922992" lon="17.7110937">
        <ele>45.7999</ele>
        <time>2014-05-15T16:36:02Z</time>
      </trkpt>
      <trkpt lat="59.9229893" lon="17.711044">
        <ele>45.3192</ele>
        <time>2014-05-15T16:36:03Z</time>
      </trkpt>
      <trkpt lat="59.9229853" lon="17.7109913">
        <ele>44.8386</ele>
        <time>2014-05-15T16:36:04Z</time>
      </trkpt>
      <trkpt lat="59.9229817" lon="17.7109477">
        <ele>44.358</ele>
        <time>2014-05-15T16:36:05Z</time>
      </trkpt>
      <trkpt lat="59.9229761" lon="17.7109027">
        <ele>44.8386</ele>
        <time>2014-05-15T16:36:06Z</time>
      </trkpt>
      <trkpt lat="59.922973" lon="17.7108555">
        <ele>44.8386</ele>
        <time>2014-05-15T16:36:07Z</time>
      </trkpt>
      <trkpt lat="59.9229614" lon="17.7108037">
        <ele>44.8386</ele>
        <time>2014-05-15T16:36:08Z</time>
      </trkpt>
      <trkpt lat="59.9229569" lon="17.7107529">
        <ele>44.8386</ele>
        <time>2014-05-15T16:36:09Z</time>
      </trkpt>
      <trkpt lat="59.9229426" lon="17.7107009">
        <ele>44.8386</ele>
        <time>2014-05-15T16:36:10Z</time>
      </trkpt>
      <trkpt lat="59.9229159" lon="17.710641">
        <ele>45.7999</ele>
        <time>2014-05-15T16:36:11Z</time>
      </trkpt>
      <trkpt lat="59.922906" lon="17.7105942">
        <ele>45.7999</ele>
        <time>2014-05-15T16:36:12Z</time>
      </trkpt>
      <trkpt lat="59.9228973" lon="17.7105385">
        <ele>45.7999</ele>
        <time>2014-05-15T16:36:13Z</time>
      </trkpt>
      <trkpt lat="59.922889" lon="17.710489">
        <ele>45.7999</ele>
        <time>2014-05-15T16:36:14Z</time>
      </trkpt>
      <trkpt lat="59.9228838" lon="17.7104224">
        <ele>46.7612</ele>
        <time>2014-05-15T16:36:15Z</time>
      </trkpt>
      <trkpt lat="59.9228739" lon="17.7103623">
        <ele>46.7612</ele>
        <time>2014-05-15T16:36:16Z</time>
      </trkpt>
      <trkpt lat="59.9228698" lon="17.7103044">
        <ele>47.2418</ele>
        <time>2014-05-15T16:36:17Z</time>
      </trkpt>
      <trkpt lat="59.9228867" lon="17.7102504">
        <ele>46.7612</ele>
        <time>2014-05-15T16:36:18Z</time>
      </trkpt>
      <trkpt lat="59.9228919" lon="17.7101826">
        <ele>46.7612</ele>
        <time>2014-05-15T16:36:19Z</time>
      </trkpt>
      <trkpt lat="59.9228991" lon="17.7101185">
        <ele>46.7612</ele>
        <time>2014-05-15T16:36:20Z</time>
      </trkpt>
      <trkpt lat="59.9229048" lon="17.7100684">
        <ele>46.7612</ele>
        <time>2014-05-15T16:36:21Z</time>
      </trkpt>
      <trkpt lat="59.9228992" lon="17.7100237">
        <ele>46.2806</ele>
        <time>2014-05-15T16:36:22Z</time>
      </trkpt>
      <trkpt lat="59.9228929" lon="17.7099716">
        <ele>46.7612</ele>
        <time>2014-05-15T16:36:23Z</time>
      </trkpt>
      <trkpt lat="59.9228861" lon="17.7099285">
        <ele>46.2806</ele>
        <time>2014-05-15T16:36:24Z</time>
      </trkpt>
      <trkpt lat="59.9228832" lon="17.7098988">
        <ele>45.7999</ele>
        <time>2014-05-15T16:36:25Z</time>
      </trkpt>
      <trkpt lat="59.9228811" lon="17.7098675">
        <ele>45.3192</ele>
        <time>2014-05-15T16:36:26Z</time>
      </trkpt>
      <trkpt lat="59.922875" lon="17.7098312">
        <ele>44.358</ele>
        <time>2014-05-15T16:36:27Z</time>
      </trkpt>
      <trkpt lat="59.9228682" lon="17.709784">
        <ele>44.358</ele>
        <time>2014-05-15T16:36:28Z</time>
      </trkpt>
      <trkpt lat="59.9228602" lon="17.7097412">
        <ele>43.8773</ele>
        <time>2014-05-15T16:36:29Z</time>
      </trkpt>
      <trkpt lat="59.9228568" lon="17.7096997">
        <ele>44.358</ele>
        <time>2014-05-15T16:36:30Z</time>
      </trkpt>
      <trkpt lat="59.9228486" lon="17.7096497">
        <ele>45.3192</ele>
        <time>2014-05-15T16:36:31Z</time>
      </trkpt>
      <trkpt lat="59.9228438" lon="17.7095968">
        <ele>45.7999</ele>
        <time>2014-05-15T16:36:32Z</time>
      </trkpt>
      <trkpt lat="59.9228371" lon="17.7095387">
        <ele>46.7612</ele>
        <time>2014-05-15T16:36:33Z</time>
      </trkpt>
      <trkpt lat="59.9228271" lon="17.7094832">
        <ele>46.2806</ele>
        <time>2014-05-15T16:36:34Z</time>
      </trkpt>
      <trkpt lat="59.9228206" lon="17.7094292">
        <ele>46.2806</ele>
        <time>2014-05-15T16:36:35Z</time>
      </trkpt>
      <trkpt lat="59.9228057" lon="17.7093676">
        <ele>46.7612</ele>
        <time>2014-05-15T16:36:36Z</time>
      </trkpt>
      <trkpt lat="59.9227957" lon="17.7093108">
        <ele>46.7612</ele>
        <time>2014-05-15T16:36:37Z</time>
      </trkpt>
      <trkpt lat="59.9228024" lon="17.7092757">
        <ele>46.7612</ele>
        <time>2014-05-15T16:36:38Z</time>
      </trkpt>
      <trkpt lat="59.9228018" lon="17.7092318">
        <ele>47.2418</ele>
        <time>2014-05-15T16:36:39Z</time>
      </trkpt>
      <trkpt lat="59.9228051" lon="17.7091849">
        <ele>47.7225</ele>
        <time>2014-05-15T16:36:40Z</time>
      </trkpt>
      <trkpt lat="59.9228062" lon="17.709134">
        <ele>48.2034</ele>
        <time>2014-05-15T16:36:41Z</time>
      </trkpt>
      <trkpt lat="59.9228035" lon="17.7090854">
        <ele>47.7225</ele>
        <time>2014-05-15T16:36:42Z</time>
      </trkpt>
      <trkpt lat="59.9227972" lon="17.7090285">
        <ele>47.7225</ele>
        <time>2014-05-15T16:36:43Z</time>
      </trkpt>
      <trkpt lat="59.9227893" lon="17.7089705">
        <ele>48.2034</ele>
        <time>2014-05-15T16:36:44Z</time>
      </trkpt>
      <trkpt lat="59.9227681" lon="17.7089132">
        <ele>47.7225</ele>
        <time>2014-05-15T16:36:45Z</time>
      </trkpt>
      <trkpt lat="59.9227476" lon="17.7088583">
        <ele>47.2418</ele>
        <time>2014-05-15T16:36:46Z</time>
      </trkpt>
      <trkpt lat="59.9227242" lon="17.7088232">
        <ele>46.2806</ele>
        <time>2014-05-15T16:36:47Z</time>
      </trkpt>
      <trkpt lat="59.9226972" lon="17.7087907">
        <ele>46.2806</ele>
        <time>2014-05-15T16:36:48Z</time>
      </trkpt>
      <trkpt lat="59.9226792" lon="17.708753">
        <ele>45.7999</ele>
        <time>2014-05-15T16:36:49Z</time>
      </trkpt>
      <trkpt lat="59.922656" lon="17.7087192">
        <ele>44.8386</ele>
        <time>2014-05-15T16:36:50Z</time>
      </trkpt>
      <trkpt lat="59.9226403" lon="17.7086855">
        <ele>44.8386</ele>
        <time>2014-05-15T16:36:51Z</time>
      </trkpt>
      <trkpt lat="59.9226288" lon="17.7086506">
        <ele>43.8773</ele>
        <time>2014-05-15T16:36:52Z</time>
      </trkpt>
      <trkpt lat="59.9226138" lon="17.7086147">
        <ele>42.916</ele>
        <time>2014-05-15T16:36:53Z</time>
      </trkpt>
      <trkpt lat="59.922602" lon="17.7085871">
        <ele>41.9547</ele>
        <time>2014-05-15T16:36:54Z</time>
      </trkpt>
      <trkpt lat="59.9225854" lon="17.7085628">
        <ele>40.9934</ele>
        <time>2014-05-15T16:36:55Z</time>
      </trkpt>
      <trkpt lat="59.9225679" lon="17.7085304">
        <ele>39.5513</ele>
        <time>2014-05-15T16:36:56Z</time>
      </trkpt>
      <trkpt lat="59.9225511" lon="17.708497">
        <ele>39.0707</ele>
        <time>2014-05-15T16:36:57Z</time>
      </trkpt>
      <trkpt lat="59.9225315" lon="17.7084667">
        <ele>38.5901</ele>
        <time>2014-05-15T16:36:58Z</time>
      </trkpt>
      <trkpt lat="59.9225149" lon="17.7084346">
        <ele>37.6287</ele>
        <time>2014-05-15T16:36:59Z</time>
      </trkpt>
      <trkpt lat="59.9225028" lon="17.7083987">
        <ele>37.1481</ele>
        <time>2014-05-15T16:37:00Z</time>
      </trkpt>
      <trkpt lat="59.9224928" lon="17.7083616">
        <ele>37.1481</ele>
        <time>2014-05-15T16:37:01Z</time>
      </trkpt>
      <trkpt lat="59.9224813" lon="17.7083209">
        <ele>36.6675</ele>
        <time>2014-05-15T16:37:02Z</time>
      </trkpt>
      <trkpt lat="59.9224635" lon="17.7082761">
        <ele>36.6675</ele>
        <time>2014-05-15T16:37:03Z</time>
      </trkpt>
      <trkpt lat="59.9224474" lon="17.7082271">
        <ele>36.6675</ele>
        <time>2014-05-15T16:37:04Z</time>
      </trkpt>
      <trkpt lat="59.9224355" lon="17.7081779">
        <ele>36.1868</ele>
        <time>2014-05-15T16:37:05Z</time>
      </trkpt>
      <trkpt lat="59.9224243" lon="17.7081238">
        <ele>36.1868</ele>
        <time>2014-05-15T16:37:06Z</time>
      </trkpt>
      <trkpt lat="59.9224196" lon="17.7080712">
        <ele>36.6675</ele>
        <time>2014-05-15T16:37:07Z</time>
      </trkpt>
      <trkpt lat="59.922413" lon="17.7080086">
        <ele>37.1481</ele>
        <time>2014-05-15T16:37:08Z</time>
      </trkpt>
      <trkpt lat="59.9224077" lon="17.7079482">
        <ele>36.6675</ele>
        <time>2014-05-15T16:37:09Z</time>
      </trkpt>
      <trkpt lat="59.922403" lon="17.7078861">
        <ele>36.6675</ele>
        <time>2014-05-15T16:37:10Z</time>
      </trkpt>
      <trkpt lat="59.9223948" lon="17.7078263">
        <ele>36.6675</ele>
        <time>2014-05-15T16:37:11Z</time>
      </trkpt>
      <trkpt lat="59.9223885" lon="17.7077773">
        <ele>36.1868</ele>
        <time>2014-05-15T16:37:12Z</time>
      </trkpt>
      <trkpt lat="59.9223791" lon="17.7077105">
        <ele>37.1481</ele>
        <time>2014-05-15T16:37:13Z</time>
      </trkpt>
      <trkpt lat="59.9223683" lon="17.7076353">
        <ele>38.1094</ele>
        <time>2014-05-15T16:37:14Z</time>
      </trkpt>
      <trkpt lat="59.9223609" lon="17.7075687">
        <ele>38.1094</ele>
        <time>2014-05-15T16:37:15Z</time>
      </trkpt>
      <trkpt lat="59.9223536" lon="17.7074998">
        <ele>39.0707</ele>
        <time>2014-05-15T16:37:16Z</time>
      </trkpt>
      <trkpt lat="59.9223435" lon="17.7074302">
        <ele>39.5513</ele>
        <time>2014-05-15T16:37:17Z</time>
      </trkpt>
      <trkpt lat="59.9223308" lon="17.7073577">
        <ele>40.0321</ele>
        <time>2014-05-15T16:37:18Z</time>
      </trkpt>
      <trkpt lat="59.9223197" lon="17.707291">
        <ele>40.5128</ele>
        <time>2014-05-15T16:37:19Z</time>
      </trkpt>
      <trkpt lat="59.9223089" lon="17.707236">
        <ele>41.474</ele>
        <time>2014-05-15T16:37:20Z</time>
      </trkpt>
      <trkpt lat="59.9223098" lon="17.7071994">
        <ele>41.474</ele>
        <time>2014-05-15T16:37:21Z</time>
      </trkpt>
      <trkpt lat="59.9223101" lon="17.7071557">
        <ele>41.474</ele>
        <time>2014-05-15T16:37:22Z</time>
      </trkpt>
      <trkpt lat="59.9223076" lon="17.7071097">
        <ele>41.474</ele>
        <time>2014-05-15T16:37:23Z</time>
      </trkpt>
      <trkpt lat="59.9223068" lon="17.7070683">
        <ele>41.9547</ele>
        <time>2014-05-15T16:37:24Z</time>
      </trkpt>
      <trkpt lat="59.9223081" lon="17.7070199">
        <ele>41.474</ele>
        <time>2014-05-15T16:37:25Z</time>
      </trkpt>
      <trkpt lat="59.9223041" lon="17.70696">
        <ele>42.4354</ele>
        <time>2014-05-15T16:37:26Z</time>
      </trkpt>
      <trkpt lat="59.9223003" lon="17.7069088">
        <ele>42.916</ele>
        <time>2014-05-15T16:37:27Z</time>
      </trkpt>
      <trkpt lat="59.9222979" lon="17.7068562">
        <ele>43.8773</ele>
        <time>2014-05-15T16:37:28Z</time>
      </trkpt>
      <trkpt lat="59.9222895" lon="17.7067938">
        <ele>44.358</ele>
        <time>2014-05-15T16:37:29Z</time>
      </trkpt>
      <trkpt lat="59.9222778" lon="17.7067337">
        <ele>44.8386</ele>
        <time>2014-05-15T16:37:30Z</time>
      </trkpt>
      <trkpt lat="59.9222697" lon="17.7066754">
        <ele>45.3192</ele>
        <time>2014-05-15T16:37:31Z</time>
      </trkpt>
      <trkpt lat="59.9222646" lon="17.7066264">
        <ele>45.3192</ele>
        <time>2014-05-15T16:37:32Z</time>
      </trkpt>
      <trkpt lat="59.9222742" lon="17.7065834">
        <ele>45.3192</ele>
        <time>2014-05-15T16:37:33Z</time>
      </trkpt>
      <trkpt lat="59.9222772" lon="17.7065333">
        <ele>45.7999</ele>
        <time>2014-05-15T16:37:34Z</time>
      </trkpt>
      <trkpt lat="59.9222772" lon="17.7064637">
        <ele>46.2806</ele>
        <time>2014-05-15T16:37:35Z</time>
      </trkpt>
      <trkpt lat="59.9222813" lon="17.7063897">
        <ele>46.7612</ele>
        <time>2014-05-15T16:37:36Z</time>
      </trkpt>
      <trkpt lat="59.9222792" lon="17.706314">
        <ele>47.2418</ele>
        <time>2014-05-15T16:37:37Z</time>
      </trkpt>
      <trkpt lat="59.9222747" lon="17.706241">
        <ele>48.2034</ele>
        <time>2014-05-15T16:37:38Z</time>
      </trkpt>
      <trkpt lat="59.9222723" lon="17.7061785">
        <ele>48.2034</ele>
        <time>2014-05-15T16:37:39Z</time>
      </trkpt>
      <trkpt lat="59.9222711" lon="17.7061141">
        <ele>48.2034</ele>
        <time>2014-05-15T16:37:40Z</time>
      </trkpt>
      <trkpt lat="59.9222781" lon="17.7060654">
        <ele>48.2034</ele>
        <time>2014-05-15T16:37:41Z</time>
      </trkpt>
      <trkpt lat="59.9222788" lon="17.7060155">
        <ele>48.684</ele>
        <time>2014-05-15T16:37:42Z</time>
      </trkpt>
      <trkpt lat="59.9222845" lon="17.7059713">
        <ele>48.2034</ele>
        <time>2014-05-15T16:37:43Z</time>
      </trkpt>
      <trkpt lat="59.9222922" lon="17.7059337">
        <ele>47.7225</ele>
        <time>2014-05-15T16:37:44Z</time>
      </trkpt>
      <trkpt lat="59.9222982" lon="17.7059024">
        <ele>46.7612</ele>
        <time>2014-05-15T16:37:45Z</time>
      </trkpt>
      <trkpt lat="59.9223068" lon="17.7058723">
        <ele>45.7999</ele>
        <time>2014-05-15T16:37:46Z</time>
      </trkpt>
      <trkpt lat="59.9223093" lon="17.7058328">
        <ele>45.3192</ele>
        <time>2014-05-15T16:37:47Z</time>
      </trkpt>
      <trkpt lat="59.9223001" lon="17.7057795">
        <ele>45.3192</ele>
        <time>2014-05-15T16:37:48Z</time>
      </trkpt>
      <trkpt lat="59.9222974" lon="17.7057369">
        <ele>44.8386</ele>
        <time>2014-05-15T16:37:49Z</time>
      </trkpt>
      <trkpt lat="59.922291" lon="17.7056884">
        <ele>43.8773</ele>
        <time>2014-05-15T16:37:50Z</time>
      </trkpt>
      <trkpt lat="59.9222856" lon="17.7056407">
        <ele>42.916</ele>
        <time>2014-05-15T16:37:51Z</time>
      </trkpt>
      <trkpt lat="59.9222804" lon="17.705594">
        <ele>42.916</ele>
        <time>2014-05-15T16:37:52Z</time>
      </trkpt>
      <trkpt lat="59.9222741" lon="17.7055422">
        <ele>42.4354</ele>
        <time>2014-05-15T16:37:53Z</time>
      </trkpt>
      <trkpt lat="59.9222692" lon="17.7054928">
        <ele>41.9547</ele>
        <time>2014-05-15T16:37:54Z</time>
      </trkpt>
      <trkpt lat="59.9222703" lon="17.7054485">
        <ele>41.9547</ele>
        <time>2014-05-15T16:37:55Z</time>
      </trkpt>
      <trkpt lat="59.9222745" lon="17.7054069">
        <ele>41.474</ele>
        <time>2014-05-15T16:37:56Z</time>
      </trkpt>
      <trkpt lat="59.9222793" lon="17.7053668">
        <ele>40.5128</ele>
        <time>2014-05-15T16:37:57Z</time>
      </trkpt>
      <trkpt lat="59.9222767" lon="17.7053162">
        <ele>40.0321</ele>
        <time>2014-05-15T16:37:58Z</time>
      </trkpt>
      <trkpt lat="59.9222757" lon="17.7052647">
        <ele>40.0321</ele>
        <time>2014-05-15T16:37:59Z</time>
      </trkpt>
      <trkpt lat="59.9222714" lon="17.7052167">
        <ele>40.0321</ele>
        <time>2014-05-15T16:38:00Z</time>
      </trkpt>
      <trkpt lat="59.9222692" lon="17.7051739">
        <ele>40.0321</ele>
        <time>2014-05-15T16:38:01Z</time>
      </trkpt>
      <trkpt lat="59.9222666" lon="17.7051314">
        <ele>39.5513</ele>
        <time>2014-05-15T16:38:02Z</time>
      </trkpt>
      <trkpt lat="59.9222615" lon="17.705093">
        <ele>39.0707</ele>
        <time>2014-05-15T16:38:03Z</time>
      </trkpt>
      <trkpt lat="59.9222565" lon="17.7050477">
        <ele>39.0707</ele>
        <time>2014-05-15T16:38:04Z</time>
      </trkpt>
      <trkpt lat="59.9222445" lon="17.704991">
        <ele>39.0707</ele>
        <time>2014-05-15T16:38:05Z</time>
      </trkpt>
      <trkpt lat="59.9222321" lon="17.7049347">
        <ele>39.0707</ele>
        <time>2014-05-15T16:38:06Z</time>
      </trkpt>
      <trkpt lat="59.9222316" lon="17.7048823">
        <ele>39.5513</ele>
        <time>2014-05-15T16:38:07Z</time>
      </trkpt>
      <trkpt lat="59.9222241" lon="17.7048197">
        <ele>39.0707</ele>
        <time>2014-05-15T16:38:08Z</time>
      </trkpt>
      <trkpt lat="59.9222154" lon="17.7047588">
        <ele>39.5513</ele>
        <time>2014-05-15T16:38:09Z</time>
      </trkpt>
      <trkpt lat="59.9222058" lon="17.7046963">
        <ele>39.5513</ele>
        <time>2014-05-15T16:38:10Z</time>
      </trkpt>
      <trkpt lat="59.9221943" lon="17.7046345">
        <ele>39.0707</ele>
        <time>2014-05-15T16:38:11Z</time>
      </trkpt>
      <trkpt lat="59.9221822" lon="17.7045788">
        <ele>38.5901</ele>
        <time>2014-05-15T16:38:12Z</time>
      </trkpt>
      <trkpt lat="59.9221731" lon="17.7045275">
        <ele>38.1094</ele>
        <time>2014-05-15T16:38:13Z</time>
      </trkpt>
      <trkpt lat="59.9221657" lon="17.7044787">
        <ele>38.5901</ele>
        <time>2014-05-15T16:38:14Z</time>
      </trkpt>
      <trkpt lat="59.922163" lon="17.7044315">
        <ele>37.6287</ele>
        <time>2014-05-15T16:38:15Z</time>
      </trkpt>
      <trkpt lat="59.9221565" lon="17.7043824">
        <ele>37.6287</ele>
        <time>2014-05-15T16:38:16Z</time>
      </trkpt>
      <trkpt lat="59.9221596" lon="17.7043302">
        <ele>37.6287</ele>
        <time>2014-05-15T16:38:17Z</time>
      </trkpt>
      <trkpt lat="59.9221692" lon="17.7042765">
        <ele>37.6287</ele>
        <time>2014-05-15T16:38:18Z</time>
      </trkpt>
      <trkpt lat="59.922172" lon="17.7042166">
        <ele>37.1481</ele>
        <time>2014-05-15T16:38:19Z</time>
      </trkpt>
      <trkpt lat="59.9221611" lon="17.7041525">
        <ele>37.6287</ele>
        <time>2014-05-15T16:38:20Z</time>
      </trkpt>
      <trkpt lat="59.9221483" lon="17.7040909">
        <ele>37.6287</ele>
        <time>2014-05-15T16:38:21Z</time>
      </trkpt>
      <trkpt lat="59.9221441" lon="17.7040338">
        <ele>37.6287</ele>
        <time>2014-05-15T16:38:22Z</time>
      </trkpt>
      <trkpt lat="59.9221315" lon="17.7039813">
        <ele>37.6287</ele>
        <time>2014-05-15T16:38:23Z</time>
      </trkpt>
      <trkpt lat="59.9221181" lon="17.7039333">
        <ele>37.6287</ele>
        <time>2014-05-15T16:38:24Z</time>
      </trkpt>
      <trkpt lat="59.922112" lon="17.7038897">
        <ele>38.1094</ele>
        <time>2014-05-15T16:38:25Z</time>
      </trkpt>
      <trkpt lat="59.9220938" lon="17.7037834">
        <ele>38.1094</ele>
        <time>2014-05-15T16:38:27Z</time>
      </trkpt>
      <trkpt lat="59.922085" lon="17.703721">
        <ele>38.5901</ele>
        <time>2014-05-15T16:38:28Z</time>
      </trkpt>
      <trkpt lat="59.922081" lon="17.7036635">
        <ele>38.1094</ele>
        <time>2014-05-15T16:38:29Z</time>
      </trkpt>
      <trkpt lat="59.9220714" lon="17.7036085">
        <ele>38.1094</ele>
        <time>2014-05-15T16:38:30Z</time>
      </trkpt>
      <trkpt lat="59.9220612" lon="17.7035555">
        <ele>38.1094</ele>
        <time>2014-05-15T16:38:31Z</time>
      </trkpt>
      <trkpt lat="59.922047" lon="17.7034964">
        <ele>38.1094</ele>
        <time>2014-05-15T16:38:32Z</time>
      </trkpt>
      <trkpt lat="59.9220322" lon="17.7034415">
        <ele>37.6287</ele>
        <time>2014-05-15T16:38:33Z</time>
      </trkpt>
      <trkpt lat="59.9220169" lon="17.7033868">
        <ele>37.6287</ele>
        <time>2014-05-15T16:38:34Z</time>
      </trkpt>
      <trkpt lat="59.9219994" lon="17.7033345">
        <ele>37.6287</ele>
        <time>2014-05-15T16:38:35Z</time>
      </trkpt>
      <trkpt lat="59.9219789" lon="17.7032765">
        <ele>37.6287</ele>
        <time>2014-05-15T16:38:36Z</time>
      </trkpt>
      <trkpt lat="59.9219625" lon="17.7032303">
        <ele>38.1094</ele>
        <time>2014-05-15T16:38:37Z</time>
      </trkpt>
      <trkpt lat="59.9219467" lon="17.7031812">
        <ele>38.1094</ele>
        <time>2014-05-15T16:38:38Z</time>
      </trkpt>
      <trkpt lat="59.9219332" lon="17.70313">
        <ele>38.5901</ele>
        <time>2014-05-15T16:38:39Z</time>
      </trkpt>
      <trkpt lat="59.9219124" lon="17.7030807">
        <ele>39.0707</ele>
        <time>2014-05-15T16:38:40Z</time>
      </trkpt>
      <trkpt lat="59.9218964" lon="17.7030299">
        <ele>38.1094</ele>
        <time>2014-05-15T16:38:41Z</time>
      </trkpt>
      <trkpt lat="59.9218802" lon="17.7029813">
        <ele>38.1094</ele>
        <time>2014-05-15T16:38:42Z</time>
      </trkpt>
      <trkpt lat="59.9218612" lon="17.7029429">
        <ele>37.6287</ele>
        <time>2014-05-15T16:38:43Z</time>
      </trkpt>
      <trkpt lat="59.9218431" lon="17.7029105">
        <ele>36.6675</ele>
        <time>2014-05-15T16:38:44Z</time>
      </trkpt>
      <trkpt lat="59.9218296" lon="17.7028826">
        <ele>36.1868</ele>
        <time>2014-05-15T16:38:45Z</time>
      </trkpt>
      <trkpt lat="59.9218191" lon="17.7028639">
        <ele>36.1868</ele>
        <time>2014-05-15T16:38:46Z</time>
      </trkpt>
      <trkpt lat="59.9218118" lon="17.7028392">
        <ele>36.1868</ele>
        <time>2014-05-15T16:38:47Z</time>
      </trkpt>
      <trkpt lat="59.9217964" lon="17.7028054">
        <ele>36.6675</ele>
        <time>2014-05-15T16:38:48Z</time>
      </trkpt>
      <trkpt lat="59.9217745" lon="17.7027787">
        <ele>37.1481</ele>
        <time>2014-05-15T16:38:49Z</time>
      </trkpt>
      <trkpt lat="59.9217543" lon="17.7027511">
        <ele>37.6287</ele>
        <time>2014-05-15T16:38:50Z</time>
      </trkpt>
      <trkpt lat="59.9217348" lon="17.7027175">
        <ele>37.6287</ele>
        <time>2014-05-15T16:38:51Z</time>
      </trkpt>
      <trkpt lat="59.9217182" lon="17.7026866">
        <ele>38.1094</ele>
        <time>2014-05-15T16:38:52Z</time>
      </trkpt>
      <trkpt lat="59.9216987" lon="17.7026574">
        <ele>38.1094</ele>
        <time>2014-05-15T16:38:53Z</time>
      </trkpt>
      <trkpt lat="59.9216778" lon="17.7026335">
        <ele>38.1094</ele>
        <time>2014-05-15T16:38:54Z</time>
      </trkpt>
      <trkpt lat="59.9216586" lon="17.702607">
        <ele>38.1094</ele>
        <time>2014-05-15T16:38:55Z</time>
      </trkpt>
      <trkpt lat="59.9216405" lon="17.7025806">
        <ele>38.1094</ele>
        <time>2014-05-15T16:38:56Z</time>
      </trkpt>
      <trkpt lat="59.921623" lon="17.7025462">
        <ele>38.1094</ele>
        <time>2014-05-15T16:38:57Z</time>
      </trkpt>
      <trkpt lat="59.9216083" lon="17.702521">
        <ele>37.6287</ele>
        <time>2014-05-15T16:38:58Z</time>
      </trkpt>
      <trkpt lat="59.9215872" lon="17.7025036">
        <ele>37.6287</ele>
        <time>2014-05-15T16:38:59Z</time>
      </trkpt>
      <trkpt lat="59.9215593" lon="17.7024858">
        <ele>37.1481</ele>
        <time>2014-05-15T16:39:00Z</time>
      </trkpt>
      <trkpt lat="59.9215311" lon="17.7024692">
        <ele>36.6675</ele>
        <time>2014-05-15T16:39:01Z</time>
      </trkpt>
      <trkpt lat="59.9215047" lon="17.702454">
        <ele>35.7061</ele>
        <time>2014-05-15T16:39:02Z</time>
      </trkpt>
      <trkpt lat="59.9214849" lon="17.702442">
        <ele>35.2255</ele>
        <time>2014-05-15T16:39:03Z</time>
      </trkpt>
      <trkpt lat="59.9214682" lon="17.7024302">
        <ele>34.2642</ele>
        <time>2014-05-15T16:39:04Z</time>
      </trkpt>
      <trkpt lat="59.9214534" lon="17.702413">
        <ele>33.7834</ele>
        <time>2014-05-15T16:39:05Z</time>
      </trkpt>
      <trkpt lat="59.9214343" lon="17.702389">
        <ele>33.3029</ele>
        <time>2014-05-15T16:39:06Z</time>
      </trkpt>
      <trkpt lat="59.9214136" lon="17.7023586">
        <ele>32.3416</ele>
        <time>2014-05-15T16:39:07Z</time>
      </trkpt>
      <trkpt lat="59.9213941" lon="17.7023224">
        <ele>31.8607</ele>
        <time>2014-05-15T16:39:08Z</time>
      </trkpt>
      <trkpt lat="59.9213733" lon="17.7022918">
        <ele>31.3801</ele>
        <time>2014-05-15T16:39:09Z</time>
      </trkpt>
      <trkpt lat="59.9213505" lon="17.7022601">
        <ele>30.4188</ele>
        <time>2014-05-15T16:39:10Z</time>
      </trkpt>
      <trkpt lat="59.9213285" lon="17.7022368">
        <ele>29.9381</ele>
        <time>2014-05-15T16:39:11Z</time>
      </trkpt>
      <trkpt lat="59.9213047" lon="17.7022221">
        <ele>30.4188</ele>
        <time>2014-05-15T16:39:12Z</time>
      </trkpt>
      <trkpt lat="59.9212831" lon="17.7022005">
        <ele>30.4188</ele>
        <time>2014-05-15T16:39:13Z</time>
      </trkpt>
      <trkpt lat="59.9212582" lon="17.7021741">
        <ele>29.9381</ele>
        <time>2014-05-15T16:39:14Z</time>
      </trkpt>
      <trkpt lat="59.9212292" lon="17.7021488">
        <ele>29.4575</ele>
        <time>2014-05-15T16:39:15Z</time>
      </trkpt>
      <trkpt lat="59.9212044" lon="17.7021218">
        <ele>29.4575</ele>
        <time>2014-05-15T16:39:16Z</time>
      </trkpt>
      <trkpt lat="59.9211809" lon="17.7021031">
        <ele>29.4575</ele>
        <time>2014-05-15T16:39:17Z</time>
      </trkpt>
      <trkpt lat="59.9211562" lon="17.7020849">
        <ele>29.4575</ele>
        <time>2014-05-15T16:39:18Z</time>
      </trkpt>
      <trkpt lat="59.9211286" lon="17.7020561">
        <ele>27.5349</ele>
        <time>2014-05-15T16:39:19Z</time>
      </trkpt>
      <trkpt lat="59.9211059" lon="17.7020446">
        <ele>27.5349</ele>
        <time>2014-05-15T16:39:20Z</time>
      </trkpt>
      <trkpt lat="59.9210832" lon="17.7020346">
        <ele>26.0929</ele>
        <time>2014-05-15T16:39:21Z</time>
      </trkpt>
      <trkpt lat="59.9210589" lon="17.7020255">
        <ele>26.5736</ele>
        <time>2014-05-15T16:39:22Z</time>
      </trkpt>
      <trkpt lat="59.9210304" lon="17.7020105">
        <ele>26.5736</ele>
        <time>2014-05-15T16:39:23Z</time>
      </trkpt>
      <trkpt lat="59.9210003" lon="17.7019927">
        <ele>26.5736</ele>
        <time>2014-05-15T16:39:24Z</time>
      </trkpt>
      <trkpt lat="59.9209708" lon="17.7019722">
        <ele>27.0543</ele>
        <time>2014-05-15T16:39:25Z</time>
      </trkpt>
      <trkpt lat="59.9209354" lon="17.7019541">
        <ele>27.5349</ele>
        <time>2014-05-15T16:39:26Z</time>
      </trkpt>
      <trkpt lat="59.9209009" lon="17.7019348">
        <ele>27.0543</ele>
        <time>2014-05-15T16:39:27Z</time>
      </trkpt>
      <trkpt lat="59.920866" lon="17.701912">
        <ele>27.5349</ele>
        <time>2014-05-15T16:39:28Z</time>
      </trkpt>
      <trkpt lat="59.9208348" lon="17.7018866">
        <ele>27.5349</ele>
        <time>2014-05-15T16:39:29Z</time>
      </trkpt>
      <trkpt lat="59.920805" lon="17.7018696">
        <ele>27.0543</ele>
        <time>2014-05-15T16:39:30Z</time>
      </trkpt>
      <trkpt lat="59.9207728" lon="17.7018545">
        <ele>27.5349</ele>
        <time>2014-05-15T16:39:31Z</time>
      </trkpt>
      <trkpt lat="59.9207401" lon="17.7018462">
        <ele>28.9769</ele>
        <time>2014-05-15T16:39:32Z</time>
      </trkpt>
      <trkpt lat="59.9207102" lon="17.7018462">
        <ele>30.4188</ele>
        <time>2014-05-15T16:39:33Z</time>
      </trkpt>
      <trkpt lat="59.9206856" lon="17.7018463">
        <ele>30.8995</ele>
        <time>2014-05-15T16:39:34Z</time>
      </trkpt>
      <trkpt lat="59.9206563" lon="17.701842">
        <ele>31.8607</ele>
        <time>2014-05-15T16:39:35Z</time>
      </trkpt>
      <trkpt lat="59.9206356" lon="17.7018373">
        <ele>32.8223</ele>
        <time>2014-05-15T16:39:36Z</time>
      </trkpt>
      <trkpt lat="59.920608" lon="17.7018398">
        <ele>33.3029</ele>
        <time>2014-05-15T16:39:37Z</time>
      </trkpt>
      <trkpt lat="59.9205818" lon="17.7018546">
        <ele>34.7449</ele>
        <time>2014-05-15T16:39:38Z</time>
      </trkpt>
      <trkpt lat="59.9205563" lon="17.7018509">
        <ele>34.7449</ele>
        <time>2014-05-15T16:39:39Z</time>
      </trkpt>
      <trkpt lat="59.9205351" lon="17.7018336">
        <ele>33.7834</ele>
        <time>2014-05-15T16:39:40Z</time>
      </trkpt>
      <trkpt lat="59.920517" lon="17.7018064">
        <ele>33.7834</ele>
        <time>2014-05-15T16:39:41Z</time>
      </trkpt>
      <trkpt lat="59.9205025" lon="17.7017748">
        <ele>33.7834</ele>
        <time>2014-05-15T16:39:42Z</time>
      </trkpt>
      <trkpt lat="59.9204885" lon="17.7017432">
        <ele>34.2642</ele>
        <time>2014-05-15T16:39:43Z</time>
      </trkpt>
      <trkpt lat="59.9204776" lon="17.7017085">
        <ele>34.2642</ele>
        <time>2014-05-15T16:39:44Z</time>
      </trkpt>
      <trkpt lat="59.9204688" lon="17.7016614">
        <ele>34.2642</ele>
        <time>2014-05-15T16:39:45Z</time>
      </trkpt>
      <trkpt lat="59.9204621" lon="17.7016088">
        <ele>34.7449</ele>
        <time>2014-05-15T16:39:46Z</time>
      </trkpt>
      <trkpt lat="59.9204559" lon="17.7015541">
        <ele>35.2255</ele>
        <time>2014-05-15T16:39:47Z</time>
      </trkpt>
      <trkpt lat="59.9204517" lon="17.7015155">
        <ele>35.2255</ele>
        <time>2014-05-15T16:39:48Z</time>
      </trkpt>
      <trkpt lat="59.9204499" lon="17.7014754">
        <ele>35.7061</ele>
        <time>2014-05-15T16:39:49Z</time>
      </trkpt>
      <trkpt lat="59.9204492" lon="17.701426">
        <ele>35.7061</ele>
        <time>2014-05-15T16:39:50Z</time>
      </trkpt>
      <trkpt lat="59.9204449" lon="17.7013736">
        <ele>35.2255</ele>
        <time>2014-05-15T16:39:51Z</time>
      </trkpt>
      <trkpt lat="59.9204449" lon="17.7013293">
        <ele>35.2255</ele>
        <time>2014-05-15T16:39:52Z</time>
      </trkpt>
      <trkpt lat="59.9204451" lon="17.701281">
        <ele>34.7449</ele>
        <time>2014-05-15T16:39:53Z</time>
      </trkpt>
      <trkpt lat="59.9204469" lon="17.7012272">
        <ele>34.7449</ele>
        <time>2014-05-15T16:39:54Z</time>
      </trkpt>
      <trkpt lat="59.9204465" lon="17.7011677">
        <ele>35.2255</ele>
        <time>2014-05-15T16:39:55Z</time>
      </trkpt>
      <trkpt lat="59.9204387" lon="17.7011159">
        <ele>35.2255</ele>
        <time>2014-05-15T16:39:56Z</time>
      </trkpt>
      <trkpt lat="59.9204279" lon="17.7010598">
        <ele>34.7449</ele>
        <time>2014-05-15T16:39:57Z</time>
      </trkpt>
      <trkpt lat="59.9204129" lon="17.7009935">
        <ele>35.7061</ele>
        <time>2014-05-15T16:39:58Z</time>
      </trkpt>
      <trkpt lat="59.9203968" lon="17.7009343">
        <ele>35.7061</ele>
        <time>2014-05-15T16:39:59Z</time>
      </trkpt>
      <trkpt lat="59.9203862" lon="17.7008781">
        <ele>35.7061</ele>
        <time>2014-05-15T16:40:00Z</time>
      </trkpt>
      <trkpt lat="59.9203697" lon="17.7008212">
        <ele>35.7061</ele>
        <time>2014-05-15T16:40:01Z</time>
      </trkpt>
      <trkpt lat="59.9203586" lon="17.7007682">
        <ele>36.1868</ele>
        <time>2014-05-15T16:40:02Z</time>
      </trkpt>
      <trkpt lat="59.9203489" lon="17.7007104">
        <ele>36.6675</ele>
        <time>2014-05-15T16:40:03Z</time>
      </trkpt>
      <trkpt lat="59.9203382" lon="17.7006568">
        <ele>37.1481</ele>
        <time>2014-05-15T16:40:04Z</time>
      </trkpt>
      <trkpt lat="59.9203311" lon="17.7005985">
        <ele>37.6287</ele>
        <time>2014-05-15T16:40:05Z</time>
      </trkpt>
      <trkpt lat="59.9203277" lon="17.7005438">
        <ele>38.1094</ele>
        <time>2014-05-15T16:40:06Z</time>
      </trkpt>
      <trkpt lat="59.9203184" lon="17.7004871">
        <ele>39.0707</ele>
        <time>2014-05-15T16:40:07Z</time>
      </trkpt>
      <trkpt lat="59.9203102" lon="17.700428">
        <ele>40.0321</ele>
        <time>2014-05-15T16:40:08Z</time>
      </trkpt>
      <trkpt lat="59.9203015" lon="17.700373">
        <ele>40.5128</ele>
        <time>2014-05-15T16:40:09Z</time>
      </trkpt>
      <trkpt lat="59.9202897" lon="17.7003134">
        <ele>40.9934</ele>
        <time>2014-05-15T16:40:10Z</time>
      </trkpt>
      <trkpt lat="59.9202792" lon="17.7002503">
        <ele>41.9547</ele>
        <time>2014-05-15T16:40:11Z</time>
      </trkpt>
      <trkpt lat="59.9202678" lon="17.7001922">
        <ele>41.9547</ele>
        <time>2014-05-15T16:40:12Z</time>
      </trkpt>
      <trkpt lat="59.920263" lon="17.7001376">
        <ele>42.4354</ele>
        <time>2014-05-15T16:40:13Z</time>
      </trkpt>
      <trkpt lat="59.9202627" lon="17.7000819">
        <ele>42.4354</ele>
        <time>2014-05-15T16:40:14Z</time>
      </trkpt>
      <trkpt lat="59.9202671" lon="17.7000248">
        <ele>42.916</ele>
        <time>2014-05-15T16:40:15Z</time>
      </trkpt>
      <trkpt lat="59.9202692" lon="17.6999701">
        <ele>42.916</ele>
        <time>2014-05-15T16:40:16Z</time>
      </trkpt>
      <trkpt lat="59.9202688" lon="17.6999082">
        <ele>42.916</ele>
        <time>2014-05-15T16:40:17Z</time>
      </trkpt>
      <trkpt lat="59.9202629" lon="17.6998496">
        <ele>42.916</ele>
        <time>2014-05-15T16:40:18Z</time>
      </trkpt>
      <trkpt lat="59.9202606" lon="17.6998036">
        <ele>42.4354</ele>
        <time>2014-05-15T16:40:19Z</time>
      </trkpt>
      <trkpt lat="59.9202593" lon="17.6997556">
        <ele>42.4354</ele>
        <time>2014-05-15T16:40:20Z</time>
      </trkpt>
      <trkpt lat="59.9202554" lon="17.6997058">
        <ele>42.4354</ele>
        <time>2014-05-15T16:40:21Z</time>
      </trkpt>
      <trkpt lat="59.9202513" lon="17.699654">
        <ele>41.9547</ele>
        <time>2014-05-15T16:40:22Z</time>
      </trkpt>
      <trkpt lat="59.9202488" lon="17.6996027">
        <ele>41.474</ele>
        <time>2014-05-15T16:40:23Z</time>
      </trkpt>
      <trkpt lat="59.920248" lon="17.6995373">
        <ele>41.9547</ele>
        <time>2014-05-15T16:40:24Z</time>
      </trkpt>
      <trkpt lat="59.92024" lon="17.6994767">
        <ele>41.474</ele>
        <time>2014-05-15T16:40:25Z</time>
      </trkpt>
      <trkpt lat="59.920231" lon="17.6994221">
        <ele>40.9934</ele>
        <time>2014-05-15T16:40:26Z</time>
      </trkpt>
      <trkpt lat="59.9202257" lon="17.6993649">
        <ele>40.5128</ele>
        <time>2014-05-15T16:40:27Z</time>
      </trkpt>
      <trkpt lat="59.9202117" lon="17.6993137">
        <ele>40.0321</ele>
        <time>2014-05-15T16:40:28Z</time>
      </trkpt>
      <trkpt lat="59.9201953" lon="17.6992557">
        <ele>40.0321</ele>
        <time>2014-05-15T16:40:29Z</time>
      </trkpt>
      <trkpt lat="59.9201824" lon="17.6992038">
        <ele>40.0321</ele>
        <time>2014-05-15T16:40:30Z</time>
      </trkpt>
      <trkpt lat="59.9201632" lon="17.69915">
        <ele>40.0321</ele>
        <time>2014-05-15T16:40:31Z</time>
      </trkpt>
      <trkpt lat="59.9201498" lon="17.699091">
        <ele>40.0321</ele>
        <time>2014-05-15T16:40:32Z</time>
      </trkpt>
      <trkpt lat="59.9201436" lon="17.6990444">
        <ele>40.0321</ele>
        <time>2014-05-15T16:40:33Z</time>
      </trkpt>
      <trkpt lat="59.9201461" lon="17.6989989">
        <ele>39.0707</ele>
        <time>2014-05-15T16:40:34Z</time>
      </trkpt>
      <trkpt lat="59.9201505" lon="17.6989444">
        <ele>38.5901</ele>
        <time>2014-05-15T16:40:35Z</time>
      </trkpt>
      <trkpt lat="59.9201461" lon="17.6988893">
        <ele>37.6287</ele>
        <time>2014-05-15T16:40:36Z</time>
      </trkpt>
      <trkpt lat="59.9201419" lon="17.698831">
        <ele>37.6287</ele>
        <time>2014-05-15T16:40:37Z</time>
      </trkpt>
      <trkpt lat="59.9201407" lon="17.6987839">
        <ele>37.1481</ele>
        <time>2014-05-15T16:40:38Z</time>
      </trkpt>
      <trkpt lat="59.9201417" lon="17.6987411">
        <ele>36.6675</ele>
        <time>2014-05-15T16:40:39Z</time>
      </trkpt>
      <trkpt lat="59.9201456" lon="17.6986939">
        <ele>36.6675</ele>
        <time>2014-05-15T16:40:40Z</time>
      </trkpt>
      <trkpt lat="59.9201487" lon="17.6986495">
        <ele>36.6675</ele>
        <time>2014-05-15T16:40:41Z</time>
      </trkpt>
      <trkpt lat="59.9201467" lon="17.6986128">
        <ele>36.1868</ele>
        <time>2014-05-15T16:40:42Z</time>
      </trkpt>
      <trkpt lat="59.9201373" lon="17.6985789">
        <ele>36.1868</ele>
        <time>2014-05-15T16:40:43Z</time>
      </trkpt>
      <trkpt lat="59.9201227" lon="17.6985673">
        <ele>35.2255</ele>
        <time>2014-05-15T16:40:44Z</time>
      </trkpt>
      <trkpt lat="59.9200967" lon="17.6985717">
        <ele>34.2642</ele>
        <time>2014-05-15T16:40:45Z</time>
      </trkpt>
      <trkpt lat="59.9200646" lon="17.6985947">
        <ele>32.8223</ele>
        <time>2014-05-15T16:40:46Z</time>
      </trkpt>
      <trkpt lat="59.9200407" lon="17.6986287">
        <ele>31.8607</ele>
        <time>2014-05-15T16:40:47Z</time>
      </trkpt>
      <trkpt lat="59.9200169" lon="17.6986764">
        <ele>30.8995</ele>
        <time>2014-05-15T16:40:48Z</time>
      </trkpt>
      <trkpt lat="59.9199938" lon="17.6987307">
        <ele>30.4188</ele>
        <time>2014-05-15T16:40:49Z</time>
      </trkpt>
      <trkpt lat="59.9199751" lon="17.6987868">
        <ele>29.4575</ele>
        <time>2014-05-15T16:40:50Z</time>
      </trkpt>
      <trkpt lat="59.9199586" lon="17.6988463">
        <ele>28.4962</ele>
        <time>2014-05-15T16:40:51Z</time>
      </trkpt>
      <trkpt lat="59.9199477" lon="17.6988956">
        <ele>28.4962</ele>
        <time>2014-05-15T16:40:52Z</time>
      </trkpt>
      <trkpt lat="59.9199347" lon="17.6989467">
        <ele>27.5349</ele>
        <time>2014-05-15T16:40:53Z</time>
      </trkpt>
      <trkpt lat="59.9199234" lon="17.6989998">
        <ele>27.5349</ele>
        <time>2014-05-15T16:40:54Z</time>
      </trkpt>
      <trkpt lat="59.9199074" lon="17.6990588">
        <ele>27.0543</ele>
        <time>2014-05-15T16:40:55Z</time>
      </trkpt>
      <trkpt lat="59.9198895" lon="17.6991081">
        <ele>27.0543</ele>
        <time>2014-05-15T16:40:56Z</time>
      </trkpt>
      <trkpt lat="59.9198726" lon="17.6991536">
        <ele>27.0543</ele>
        <time>2014-05-15T16:40:57Z</time>
      </trkpt>
      <trkpt lat="59.9198525" lon="17.699193">
        <ele>27.5349</ele>
        <time>2014-05-15T16:40:58Z</time>
      </trkpt>
      <trkpt lat="59.9198377" lon="17.6992203">
        <ele>28.4962</ele>
        <time>2014-05-15T16:40:59Z</time>
      </trkpt>
      <trkpt lat="59.919826" lon="17.6992452">
        <ele>29.4575</ele>
        <time>2014-05-15T16:41:00Z</time>
      </trkpt>
      <trkpt lat="59.9198151" lon="17.6992686">
        <ele>29.4575</ele>
        <time>2014-05-15T16:41:01Z</time>
      </trkpt>
      <trkpt lat="59.9197933" lon="17.6993049">
        <ele>30.8995</ele>
        <time>2014-05-15T16:41:02Z</time>
      </trkpt>
      <trkpt lat="59.9197834" lon="17.6993571">
        <ele>33.3029</ele>
        <time>2014-05-15T16:41:03Z</time>
      </trkpt>
      <trkpt lat="59.9197686" lon="17.6994119">
        <ele>35.2255</ele>
        <time>2014-05-15T16:41:04Z</time>
      </trkpt>
      <trkpt lat="59.919755" lon="17.699462">
        <ele>36.1868</ele>
        <time>2014-05-15T16:41:05Z</time>
      </trkpt>
      <trkpt lat="59.9197436" lon="17.6994888">
        <ele>37.1481</ele>
        <time>2014-05-15T16:41:06Z</time>
      </trkpt>
      <trkpt lat="59.9197264" lon="17.6995176">
        <ele>38.1094</ele>
        <time>2014-05-15T16:41:07Z</time>
      </trkpt>
      <trkpt lat="59.9197134" lon="17.6995634">
        <ele>40.0321</ele>
        <time>2014-05-15T16:41:08Z</time>
      </trkpt>
      <trkpt lat="59.919697" lon="17.6996083">
        <ele>41.474</ele>
        <time>2014-05-15T16:41:09Z</time>
      </trkpt>
      <trkpt lat="59.9196767" lon="17.6996468">
        <ele>41.9547</ele>
        <time>2014-05-15T16:41:10Z</time>
      </trkpt>
      <trkpt lat="59.9196638" lon="17.699696">
        <ele>43.3966</ele>
        <time>2014-05-15T16:41:11Z</time>
      </trkpt>
      <trkpt lat="59.9196498" lon="17.6997251">
        <ele>44.358</ele>
        <time>2014-05-15T16:41:12Z</time>
      </trkpt>
      <trkpt lat="59.9196327" lon="17.6997488">
        <ele>43.8773</ele>
        <time>2014-05-15T16:41:13Z</time>
      </trkpt>
      <trkpt lat="59.9196194" lon="17.6997717">
        <ele>43.8773</ele>
        <time>2014-05-15T16:41:14Z</time>
      </trkpt>
      <trkpt lat="59.919608" lon="17.6997944">
        <ele>43.8773</ele>
        <time>2014-05-15T16:41:15Z</time>
      </trkpt>
      <trkpt lat="59.9195933" lon="17.6998363">
        <ele>44.8386</ele>
        <time>2014-05-15T16:41:16Z</time>
      </trkpt>
      <trkpt lat="59.9195793" lon="17.6998748">
        <ele>44.8386</ele>
        <time>2014-05-15T16:41:17Z</time>
      </trkpt>
      <trkpt lat="59.9195601" lon="17.6999126">
        <ele>44.8386</ele>
        <time>2014-05-15T16:41:18Z</time>
      </trkpt>
      <trkpt lat="59.9195347" lon="17.6999439">
        <ele>42.916</ele>
        <time>2014-05-15T16:41:19Z</time>
      </trkpt>
      <trkpt lat="59.9195105" lon="17.6999793">
        <ele>41.9547</ele>
        <time>2014-05-15T16:41:20Z</time>
      </trkpt>
      <trkpt lat="59.9194882" lon="17.7000001">
        <ele>40.5128</ele>
        <time>2014-05-15T16:41:21Z</time>
      </trkpt>
      <trkpt lat="59.9194704" lon="17.7000352">
        <ele>39.5513</ele>
        <time>2014-05-15T16:41:22Z</time>
      </trkpt>
      <trkpt lat="59.9194514" lon="17.7000809">
        <ele>38.1094</ele>
        <time>2014-05-15T16:41:23Z</time>
      </trkpt>
      <trkpt lat="59.9194341" lon="17.7001268">
        <ele>38.5901</ele>
        <time>2014-05-15T16:41:24Z</time>
      </trkpt>
      <trkpt lat="59.9194111" lon="17.7001758">
        <ele>39.5513</ele>
        <time>2014-05-15T16:41:25Z</time>
      </trkpt>
      <trkpt lat="59.9193938" lon="17.7002032">
        <ele>38.5901</ele>
        <time>2014-05-15T16:41:26Z</time>
      </trkpt>
      <trkpt lat="59.9193775" lon="17.7002245">
        <ele>37.6287</ele>
        <time>2014-05-15T16:41:27Z</time>
      </trkpt>
      <trkpt lat="59.9193578" lon="17.7002576">
        <ele>37.1481</ele>
        <time>2014-05-15T16:41:28Z</time>
      </trkpt>
      <trkpt lat="59.9193405" lon="17.7003011">
        <ele>36.6675</ele>
        <time>2014-05-15T16:41:29Z</time>
      </trkpt>
      <trkpt lat="59.919325" lon="17.7003575">
        <ele>37.6287</ele>
        <time>2014-05-15T16:41:30Z</time>
      </trkpt>
      <trkpt lat="59.9193049" lon="17.7003974">
        <ele>36.6675</ele>
        <time>2014-05-15T16:41:31Z</time>
      </trkpt>
      <trkpt lat="59.9192894" lon="17.7004334">
        <ele>35.2255</ele>
        <time>2014-05-15T16:41:32Z</time>
      </trkpt>
      <trkpt lat="59.9192789" lon="17.7004694">
        <ele>34.2642</ele>
        <time>2014-05-15T16:41:33Z</time>
      </trkpt>
      <trkpt lat="59.9192694" lon="17.7005077">
        <ele>33.7834</ele>
        <time>2014-05-15T16:41:34Z</time>
      </trkpt>
      <trkpt lat="59.9192571" lon="17.7005786">
        <ele>34.2642</ele>
        <time>2014-05-15T16:41:35Z</time>
      </trkpt>
      <trkpt lat="59.9192473" lon="17.7006381">
        <ele>34.7449</ele>
        <time>2014-05-15T16:41:36Z</time>
      </trkpt>
      <trkpt lat="59.9192438" lon="17.7007019">
        <ele>35.7061</ele>
        <time>2014-05-15T16:41:37Z</time>
      </trkpt>
      <trkpt lat="59.9192488" lon="17.7007796">
        <ele>37.6287</ele>
        <time>2014-05-15T16:41:38Z</time>
      </trkpt>
      <trkpt lat="59.9192489" lon="17.7008506">
        <ele>37.6287</ele>
        <time>2014-05-15T16:41:39Z</time>
      </trkpt>
      <trkpt lat="59.9192511" lon="17.7009164">
        <ele>37.6287</ele>
        <time>2014-05-15T16:41:40Z</time>
      </trkpt>
      <trkpt lat="59.9192559" lon="17.7009711">
        <ele>37.6287</ele>
        <time>2014-05-15T16:41:41Z</time>
      </trkpt>
      <trkpt lat="59.9192562" lon="17.7010205">
        <ele>37.1481</ele>
        <time>2014-05-15T16:41:42Z</time>
      </trkpt>
      <trkpt lat="59.9192596" lon="17.7010773">
        <ele>37.1481</ele>
        <time>2014-05-15T16:41:43Z</time>
      </trkpt>
      <trkpt lat="59.9192599" lon="17.7011307">
        <ele>36.6675</ele>
        <time>2014-05-15T16:41:44Z</time>
      </trkpt>
      <trkpt lat="59.9192505" lon="17.7011811">
        <ele>35.7061</ele>
        <time>2014-05-15T16:41:45Z</time>
      </trkpt>
      <trkpt lat="59.9192347" lon="17.7012297">
        <ele>35.7061</ele>
        <time>2014-05-15T16:41:46Z</time>
      </trkpt>
      <trkpt lat="59.9192103" lon="17.7012724">
        <ele>34.7449</ele>
        <time>2014-05-15T16:41:47Z</time>
      </trkpt>
      <trkpt lat="59.9191888" lon="17.7013118">
        <ele>35.7061</ele>
        <time>2014-05-15T16:41:48Z</time>
      </trkpt>
      <trkpt lat="59.9191563" lon="17.7013268">
        <ele>35.7061</ele>
        <time>2014-05-15T16:41:49Z</time>
      </trkpt>
      <trkpt lat="59.9191303" lon="17.7013456">
        <ele>37.1481</ele>
        <time>2014-05-15T16:41:50Z</time>
      </trkpt>
      <trkpt lat="59.9191093" lon="17.7013649">
        <ele>37.6287</ele>
        <time>2014-05-15T16:41:51Z</time>
      </trkpt>
      <trkpt lat="59.9190825" lon="17.701381">
        <ele>38.1094</ele>
        <time>2014-05-15T16:41:52Z</time>
      </trkpt>
      <trkpt lat="59.9190552" lon="17.7013904">
        <ele>39.0707</ele>
        <time>2014-05-15T16:41:53Z</time>
      </trkpt>
      <trkpt lat="59.9190323" lon="17.7014092">
        <ele>40.5128</ele>
        <time>2014-05-15T16:41:54Z</time>
      </trkpt>
      <trkpt lat="59.9190017" lon="17.7014203">
        <ele>40.5128</ele>
        <time>2014-05-15T16:41:55Z</time>
      </trkpt>
      <trkpt lat="59.9189703" lon="17.7014277">
        <ele>40.5128</ele>
        <time>2014-05-15T16:41:56Z</time>
      </trkpt>
      <trkpt lat="59.9189365" lon="17.7014469">
        <ele>41.474</ele>
        <time>2014-05-15T16:41:57Z</time>
      </trkpt>
      <trkpt lat="59.9189043" lon="17.7014496">
        <ele>40.9934</ele>
        <time>2014-05-15T16:41:58Z</time>
      </trkpt>
      <trkpt lat="59.9188816" lon="17.7014511">
        <ele>40.9934</ele>
        <time>2014-05-15T16:41:59Z</time>
      </trkpt>
      <trkpt lat="59.9188561" lon="17.7014463">
        <ele>40.0321</ele>
        <time>2014-05-15T16:42:00Z</time>
      </trkpt>
      <trkpt lat="59.9188298" lon="17.701436">
        <ele>39.5513</ele>
        <time>2014-05-15T16:42:01Z</time>
      </trkpt>
      <trkpt lat="59.9188071" lon="17.7014241">
        <ele>38.5901</ele>
        <time>2014-05-15T16:42:02Z</time>
      </trkpt>
      <trkpt lat="59.918789" lon="17.701413">
        <ele>38.5901</ele>
        <time>2014-05-15T16:42:03Z</time>
      </trkpt>
      <trkpt lat="59.918775" lon="17.7014112">
        <ele>38.5901</ele>
        <time>2014-05-15T16:42:04Z</time>
      </trkpt>
      <trkpt lat="59.9187593" lon="17.7014086">
        <ele>38.1094</ele>
        <time>2014-05-15T16:42:05Z</time>
      </trkpt>
      <trkpt lat="59.9187433" lon="17.701414">
        <ele>38.1094</ele>
        <time>2014-05-15T16:42:06Z</time>
      </trkpt>
      <trkpt lat="59.9187242" lon="17.7014183">
        <ele>37.6287</ele>
        <time>2014-05-15T16:42:07Z</time>
      </trkpt>
      <trkpt lat="59.9187055" lon="17.7014153">
        <ele>37.6287</ele>
        <time>2014-05-15T16:42:08Z</time>
      </trkpt>
      <trkpt lat="59.9186866" lon="17.7014058">
        <ele>35.7061</ele>
        <time>2014-05-15T16:42:09Z</time>
      </trkpt>
      <trkpt lat="59.9186727" lon="17.701396">
        <ele>35.2255</ele>
        <time>2014-05-15T16:42:10Z</time>
      </trkpt>
      <trkpt lat="59.9186609" lon="17.7013855">
        <ele>34.2642</ele>
        <time>2014-05-15T16:42:11Z</time>
      </trkpt>
      <trkpt lat="59.9186478" lon="17.7013687">
        <ele>33.3029</ele>
        <time>2014-05-15T16:42:12Z</time>
      </trkpt>
      <trkpt lat="59.9186355" lon="17.7013638">
        <ele>32.3416</ele>
        <time>2014-05-15T16:42:13Z</time>
      </trkpt>
      <trkpt lat="59.9186175" lon="17.7013636">
        <ele>32.8223</ele>
        <time>2014-05-15T16:42:14Z</time>
      </trkpt>
      <trkpt lat="59.9186012" lon="17.7013603">
        <ele>31.8607</ele>
        <time>2014-05-15T16:42:15Z</time>
      </trkpt>
      <trkpt lat="59.9185861" lon="17.7013463">
        <ele>31.3801</ele>
        <time>2014-05-15T16:42:16Z</time>
      </trkpt>
      <trkpt lat="59.9185651" lon="17.7013275">
        <ele>30.4188</ele>
        <time>2014-05-15T16:42:17Z</time>
      </trkpt>
      <trkpt lat="59.9185435" lon="17.7013029">
        <ele>30.4188</ele>
        <time>2014-05-15T16:42:18Z</time>
      </trkpt>
      <trkpt lat="59.9185216" lon="17.7012832">
        <ele>29.9381</ele>
        <time>2014-05-15T16:42:19Z</time>
      </trkpt>
      <trkpt lat="59.918502" lon="17.7012724">
        <ele>29.4575</ele>
        <time>2014-05-15T16:42:20Z</time>
      </trkpt>
      <trkpt lat="59.9184821" lon="17.7012485">
        <ele>28.9769</ele>
        <time>2014-05-15T16:42:21Z</time>
      </trkpt>
      <trkpt lat="59.9184636" lon="17.701234">
        <ele>28.4962</ele>
        <time>2014-05-15T16:42:22Z</time>
      </trkpt>
      <trkpt lat="59.9184347" lon="17.7012463">
        <ele>28.4962</ele>
        <time>2014-05-15T16:42:23Z</time>
      </trkpt>
      <trkpt lat="59.9184128" lon="17.7012494">
        <ele>28.0155</ele>
        <time>2014-05-15T16:42:24Z</time>
      </trkpt>
      <trkpt lat="59.9183808" lon="17.7012672">
        <ele>28.4962</ele>
        <time>2014-05-15T16:42:25Z</time>
      </trkpt>
      <trkpt lat="59.9183508" lon="17.7012615">
        <ele>28.0155</ele>
        <time>2014-05-15T16:42:26Z</time>
      </trkpt>
      <trkpt lat="59.9183175" lon="17.7012801">
        <ele>28.4962</ele>
        <time>2014-05-15T16:42:27Z</time>
      </trkpt>
      <trkpt lat="59.9182871" lon="17.7012795">
        <ele>28.9769</ele>
        <time>2014-05-15T16:42:28Z</time>
      </trkpt>
      <trkpt lat="59.9182568" lon="17.701274">
        <ele>28.4962</ele>
        <time>2014-05-15T16:42:29Z</time>
      </trkpt>
      <trkpt lat="59.9182332" lon="17.7012929">
        <ele>29.4575</ele>
        <time>2014-05-15T16:42:30Z</time>
      </trkpt>
      <trkpt lat="59.9182004" lon="17.7013063">
        <ele>30.8995</ele>
        <time>2014-05-15T16:42:31Z</time>
      </trkpt>
      <trkpt lat="59.9181751" lon="17.7013075">
        <ele>31.8607</ele>
        <time>2014-05-15T16:42:32Z</time>
      </trkpt>
      <trkpt lat="59.918158" lon="17.7013194">
        <ele>32.3416</ele>
        <time>2014-05-15T16:42:33Z</time>
      </trkpt>
      <trkpt lat="59.9181401" lon="17.7013281">
        <ele>32.8223</ele>
        <time>2014-05-15T16:42:34Z</time>
      </trkpt>
      <trkpt lat="59.9181181" lon="17.7013334">
        <ele>33.3029</ele>
        <time>2014-05-15T16:42:35Z</time>
      </trkpt>
      <trkpt lat="59.9180958" lon="17.7013225">
        <ele>33.3029</ele>
        <time>2014-05-15T16:42:36Z</time>
      </trkpt>
      <trkpt lat="59.9180704" lon="17.7013048">
        <ele>32.8223</ele>
        <time>2014-05-15T16:42:37Z</time>
      </trkpt>
      <trkpt lat="59.9180487" lon="17.7013132">
        <ele>32.3416</ele>
        <time>2014-05-15T16:42:38Z</time>
      </trkpt>
      <trkpt lat="59.9180316" lon="17.7013049">
        <ele>31.8607</ele>
        <time>2014-05-15T16:42:39Z</time>
      </trkpt>
      <trkpt lat="59.9180067" lon="17.7013056">
        <ele>31.8607</ele>
        <time>2014-05-15T16:42:40Z</time>
      </trkpt>
      <trkpt lat="59.9179849" lon="17.7013215">
        <ele>31.3801</ele>
        <time>2014-05-15T16:42:41Z</time>
      </trkpt>
      <trkpt lat="59.9179562" lon="17.7013322">
        <ele>32.3416</ele>
        <time>2014-05-15T16:42:42Z</time>
      </trkpt>
      <trkpt lat="59.9179331" lon="17.7013135">
        <ele>31.3801</ele>
        <time>2014-05-15T16:42:43Z</time>
      </trkpt>
      <trkpt lat="59.9179088" lon="17.7013047">
        <ele>31.3801</ele>
        <time>2014-05-15T16:42:44Z</time>
      </trkpt>
      <trkpt lat="59.9178889" lon="17.701278">
        <ele>31.3801</ele>
        <time>2014-05-15T16:42:45Z</time>
      </trkpt>
      <trkpt lat="59.9178766" lon="17.7012609">
        <ele>30.8995</ele>
        <time>2014-05-15T16:42:46Z</time>
      </trkpt>
      <trkpt lat="59.9178596" lon="17.7012318">
        <ele>30.8995</ele>
        <time>2014-05-15T16:42:47Z</time>
      </trkpt>
      <trkpt lat="59.9178372" lon="17.7012008">
        <ele>30.8995</ele>
        <time>2014-05-15T16:42:48Z</time>
      </trkpt>
      <trkpt lat="59.917814" lon="17.7011666">
        <ele>30.8995</ele>
        <time>2014-05-15T16:42:49Z</time>
      </trkpt>
      <trkpt lat="59.9177916" lon="17.7011266">
        <ele>31.3801</ele>
        <time>2014-05-15T16:42:50Z</time>
      </trkpt>
      <trkpt lat="59.9177672" lon="17.7010857">
        <ele>31.3801</ele>
        <time>2014-05-15T16:42:51Z</time>
      </trkpt>
      <trkpt lat="59.9177411" lon="17.7010478">
        <ele>31.8607</ele>
        <time>2014-05-15T16:42:52Z</time>
      </trkpt>
      <trkpt lat="59.9177138" lon="17.7010072">
        <ele>32.8223</ele>
        <time>2014-05-15T16:42:53Z</time>
      </trkpt>
      <trkpt lat="59.9176884" lon="17.7009629">
        <ele>33.3029</ele>
        <time>2014-05-15T16:42:54Z</time>
      </trkpt>
      <trkpt lat="59.9176664" lon="17.7009193">
        <ele>33.7834</ele>
        <time>2014-05-15T16:42:55Z</time>
      </trkpt>
      <trkpt lat="59.9176451" lon="17.7008833">
        <ele>34.7449</ele>
        <time>2014-05-15T16:42:56Z</time>
      </trkpt>
      <trkpt lat="59.917624" lon="17.7008455">
        <ele>34.7449</ele>
        <time>2014-05-15T16:42:57Z</time>
      </trkpt>
      <trkpt lat="59.9176058" lon="17.7007994">
        <ele>35.2255</ele>
        <time>2014-05-15T16:42:58Z</time>
      </trkpt>
      <trkpt lat="59.9175839" lon="17.7007463">
        <ele>35.2255</ele>
        <time>2014-05-15T16:42:59Z</time>
      </trkpt>
      <trkpt lat="59.9175629" lon="17.7006957">
        <ele>35.7061</ele>
        <time>2014-05-15T16:43:00Z</time>
      </trkpt>
      <trkpt lat="59.9175515" lon="17.7006469">
        <ele>36.1868</ele>
        <time>2014-05-15T16:43:01Z</time>
      </trkpt>
      <trkpt lat="59.9175361" lon="17.7005899">
        <ele>36.6675</ele>
        <time>2014-05-15T16:43:02Z</time>
      </trkpt>
      <trkpt lat="59.9175203" lon="17.7005412">
        <ele>36.6675</ele>
        <time>2014-05-15T16:43:03Z</time>
      </trkpt>
      <trkpt lat="59.9175079" lon="17.7004962">
        <ele>36.6675</ele>
        <time>2014-05-15T16:43:04Z</time>
      </trkpt>
      <trkpt lat="59.9174979" lon="17.7004497">
        <ele>37.1481</ele>
        <time>2014-05-15T16:43:05Z</time>
      </trkpt>
      <trkpt lat="59.9174857" lon="17.7004039">
        <ele>37.1481</ele>
        <time>2014-05-15T16:43:06Z</time>
      </trkpt>
      <trkpt lat="59.9174664" lon="17.7003497">
        <ele>37.6287</ele>
        <time>2014-05-15T16:43:07Z</time>
      </trkpt>
      <trkpt lat="59.9174523" lon="17.7002943">
        <ele>38.1094</ele>
        <time>2014-05-15T16:43:08Z</time>
      </trkpt>
      <trkpt lat="59.9174626" lon="17.7002456">
        <ele>38.1094</ele>
        <time>2014-05-15T16:43:09Z</time>
      </trkpt>
      <trkpt lat="59.9174689" lon="17.7001922">
        <ele>38.1094</ele>
        <time>2014-05-15T16:43:10Z</time>
      </trkpt>
      <trkpt lat="59.9174639" lon="17.7001394">
        <ele>38.5901</ele>
        <time>2014-05-15T16:43:11Z</time>
      </trkpt>
      <trkpt lat="59.9174534" lon="17.7000957">
        <ele>39.0707</ele>
        <time>2014-05-15T16:43:12Z</time>
      </trkpt>
      <trkpt lat="59.9174322" lon="17.7000573">
        <ele>39.0707</ele>
        <time>2014-05-15T16:43:13Z</time>
      </trkpt>
      <trkpt lat="59.9174145" lon="17.7000299">
        <ele>39.0707</ele>
        <time>2014-05-15T16:43:14Z</time>
      </trkpt>
      <trkpt lat="59.9173916" lon="17.7000095">
        <ele>38.5901</ele>
        <time>2014-05-15T16:43:15Z</time>
      </trkpt>
      <trkpt lat="59.9173622" lon="17.6999958">
        <ele>38.5901</ele>
        <time>2014-05-15T16:43:16Z</time>
      </trkpt>
      <trkpt lat="59.9173316" lon="17.6999882">
        <ele>38.5901</ele>
        <time>2014-05-15T16:43:17Z</time>
      </trkpt>
      <trkpt lat="59.9173027" lon="17.6999784">
        <ele>39.0707</ele>
        <time>2014-05-15T16:43:18Z</time>
      </trkpt>
      <trkpt lat="59.9172769" lon="17.6999743">
        <ele>39.5513</ele>
        <time>2014-05-15T16:43:19Z</time>
      </trkpt>
      <trkpt lat="59.9172524" lon="17.6999729">
        <ele>39.5513</ele>
        <time>2014-05-15T16:43:20Z</time>
      </trkpt>
      <trkpt lat="59.9172266" lon="17.699971">
        <ele>40.0321</ele>
        <time>2014-05-15T16:43:21Z</time>
      </trkpt>
      <trkpt lat="59.9172033" lon="17.6999622">
        <ele>40.5128</ele>
        <time>2014-05-15T16:43:22Z</time>
      </trkpt>
      <trkpt lat="59.9171849" lon="17.6999589">
        <ele>40.5128</ele>
        <time>2014-05-15T16:43:23Z</time>
      </trkpt>
      <trkpt lat="59.9171661" lon="17.6999597">
        <ele>40.5128</ele>
        <time>2014-05-15T16:43:24Z</time>
      </trkpt>
      <trkpt lat="59.9171464" lon="17.6999641">
        <ele>40.5128</ele>
        <time>2014-05-15T16:43:25Z</time>
      </trkpt>
      <trkpt lat="59.9171329" lon="17.6999581">
        <ele>40.9934</ele>
        <time>2014-05-15T16:43:26Z</time>
      </trkpt>
      <trkpt lat="59.9171193" lon="17.6999473">
        <ele>40.9934</ele>
        <time>2014-05-15T16:43:27Z</time>
      </trkpt>
      <trkpt lat="59.917105" lon="17.6999395">
        <ele>40.0321</ele>
        <time>2014-05-15T16:43:28Z</time>
      </trkpt>
      <trkpt lat="59.9170901" lon="17.699941">
        <ele>39.5513</ele>
        <time>2014-05-15T16:43:29Z</time>
      </trkpt>
      <trkpt lat="59.9170738" lon="17.699944">
        <ele>39.5513</ele>
        <time>2014-05-15T16:43:30Z</time>
      </trkpt>
      <trkpt lat="59.9170498" lon="17.6999347">
        <ele>38.5901</ele>
        <time>2014-05-15T16:43:31Z</time>
      </trkpt>
      <trkpt lat="59.9170183" lon="17.6999208">
        <ele>37.6287</ele>
        <time>2014-05-15T16:43:32Z</time>
      </trkpt>
      <trkpt lat="59.9169892" lon="17.6999115">
        <ele>37.1481</ele>
        <time>2014-05-15T16:43:33Z</time>
      </trkpt>
      <trkpt lat="59.9169608" lon="17.6999095">
        <ele>37.1481</ele>
        <time>2014-05-15T16:43:34Z</time>
      </trkpt>
      <trkpt lat="59.9169278" lon="17.6999077">
        <ele>36.6675</ele>
        <time>2014-05-15T16:43:35Z</time>
      </trkpt>
      <trkpt lat="59.9168946" lon="17.6999072">
        <ele>36.1868</ele>
        <time>2014-05-15T16:43:36Z</time>
      </trkpt>
      <trkpt lat="59.9168665" lon="17.6999073">
        <ele>35.2255</ele>
        <time>2014-05-15T16:43:37Z</time>
      </trkpt>
      <trkpt lat="59.9168375" lon="17.699903">
        <ele>34.7449</ele>
        <time>2014-05-15T16:43:38Z</time>
      </trkpt>
      <trkpt lat="59.9168085" lon="17.6999139">
        <ele>34.7449</ele>
        <time>2014-05-15T16:43:39Z</time>
      </trkpt>
      <trkpt lat="59.9167774" lon="17.699927">
        <ele>35.2255</ele>
        <time>2014-05-15T16:43:40Z</time>
      </trkpt>
      <trkpt lat="59.9167452" lon="17.6999367">
        <ele>34.7449</ele>
        <time>2014-05-15T16:43:41Z</time>
      </trkpt>
      <trkpt lat="59.9167195" lon="17.6999519">
        <ele>34.7449</ele>
        <time>2014-05-15T16:43:42Z</time>
      </trkpt>
      <trkpt lat="59.9166899" lon="17.699972">
        <ele>35.2255</ele>
        <time>2014-05-15T16:43:43Z</time>
      </trkpt>
      <trkpt lat="59.9166573" lon="17.6999822">
        <ele>34.7449</ele>
        <time>2014-05-15T16:43:44Z</time>
      </trkpt>
      <trkpt lat="59.9166268" lon="17.699997">
        <ele>34.2642</ele>
        <time>2014-05-15T16:43:45Z</time>
      </trkpt>
      <trkpt lat="59.9165989" lon="17.7000141">
        <ele>34.7449</ele>
        <time>2014-05-15T16:43:46Z</time>
      </trkpt>
      <trkpt lat="59.916569" lon="17.700038">
        <ele>35.7061</ele>
        <time>2014-05-15T16:43:47Z</time>
      </trkpt>
      <trkpt lat="59.9165397" lon="17.7000605">
        <ele>36.6675</ele>
        <time>2014-05-15T16:43:48Z</time>
      </trkpt>
      <trkpt lat="59.9165134" lon="17.7000726">
        <ele>36.6675</ele>
        <time>2014-05-15T16:43:49Z</time>
      </trkpt>
      <trkpt lat="59.916487" lon="17.7000861">
        <ele>37.6287</ele>
        <time>2014-05-15T16:43:50Z</time>
      </trkpt>
      <trkpt lat="59.9164593" lon="17.7000969">
        <ele>37.6287</ele>
        <time>2014-05-15T16:43:51Z</time>
      </trkpt>
      <trkpt lat="59.9164107" lon="17.7001358">
        <ele>38.5901</ele>
        <time>2014-05-15T16:43:53Z</time>
      </trkpt>
      <trkpt lat="59.9163926" lon="17.7001718">
        <ele>40.0321</ele>
        <time>2014-05-15T16:43:54Z</time>
      </trkpt>
      <trkpt lat="59.9163786" lon="17.7002048">
        <ele>40.9934</ele>
        <time>2014-05-15T16:43:55Z</time>
      </trkpt>
      <trkpt lat="59.9163651" lon="17.7002366">
        <ele>40.5128</ele>
        <time>2014-05-15T16:43:56Z</time>
      </trkpt>
      <trkpt lat="59.9163516" lon="17.7002887">
        <ele>41.474</ele>
        <time>2014-05-15T16:43:57Z</time>
      </trkpt>
      <trkpt lat="59.9163392" lon="17.7003426">
        <ele>42.4354</ele>
        <time>2014-05-15T16:43:58Z</time>
      </trkpt>
      <trkpt lat="59.9163361" lon="17.7003989">
        <ele>43.3966</ele>
        <time>2014-05-15T16:43:59Z</time>
      </trkpt>
      <trkpt lat="59.9163299" lon="17.7004624">
        <ele>43.8773</ele>
        <time>2014-05-15T16:44:00Z</time>
      </trkpt>
      <trkpt lat="59.9163237" lon="17.700517">
        <ele>44.358</ele>
        <time>2014-05-15T16:44:01Z</time>
      </trkpt>
      <trkpt lat="59.9163174" lon="17.7005728">
        <ele>45.7999</ele>
        <time>2014-05-15T16:44:02Z</time>
      </trkpt>
      <trkpt lat="59.9163069" lon="17.7006161">
        <ele>45.7999</ele>
        <time>2014-05-15T16:44:03Z</time>
      </trkpt>
      <trkpt lat="59.9162989" lon="17.7006693">
        <ele>46.7612</ele>
        <time>2014-05-15T16:44:04Z</time>
      </trkpt>
      <trkpt lat="59.9162909" lon="17.7007181">
        <ele>47.2418</ele>
        <time>2014-05-15T16:44:05Z</time>
      </trkpt>
      <trkpt lat="59.9162823" lon="17.7007601">
        <ele>47.7225</ele>
        <time>2014-05-15T16:44:06Z</time>
      </trkpt>
      <trkpt lat="59.916273" lon="17.7008008">
        <ele>48.2034</ele>
        <time>2014-05-15T16:44:07Z</time>
      </trkpt>
      <trkpt lat="59.9162625" lon="17.7008345">
        <ele>48.2034</ele>
        <time>2014-05-15T16:44:08Z</time>
      </trkpt>
      <trkpt lat="59.9162491" lon="17.7008755">
        <ele>48.2034</ele>
        <time>2014-05-15T16:44:09Z</time>
      </trkpt>
      <trkpt lat="59.9162335" lon="17.700922">
        <ele>49.1646</ele>
        <time>2014-05-15T16:44:10Z</time>
      </trkpt>
      <trkpt lat="59.9162163" lon="17.7009599">
        <ele>49.1646</ele>
        <time>2014-05-15T16:44:11Z</time>
      </trkpt>
      <trkpt lat="59.9162026" lon="17.7009953">
        <ele>49.6453</ele>
        <time>2014-05-15T16:44:12Z</time>
      </trkpt>
      <trkpt lat="59.9161869" lon="17.7010284">
        <ele>50.126</ele>
        <time>2014-05-15T16:44:13Z</time>
      </trkpt>
      <trkpt lat="59.9161734" lon="17.7010693">
        <ele>50.6066</ele>
        <time>2014-05-15T16:44:14Z</time>
      </trkpt>
      <trkpt lat="59.916162" lon="17.7011121">
        <ele>51.5679</ele>
        <time>2014-05-15T16:44:15Z</time>
      </trkpt>
      <trkpt lat="59.9161502" lon="17.7011467">
        <ele>52.0486</ele>
        <time>2014-05-15T16:44:16Z</time>
      </trkpt>
      <trkpt lat="59.9161377" lon="17.7011817">
        <ele>52.5292</ele>
        <time>2014-05-15T16:44:17Z</time>
      </trkpt>
      <trkpt lat="59.9161249" lon="17.701209">
        <ele>53.0098</ele>
        <time>2014-05-15T16:44:18Z</time>
      </trkpt>
      <trkpt lat="59.9161067" lon="17.70124">
        <ele>53.0098</ele>
        <time>2014-05-15T16:44:19Z</time>
      </trkpt>
      <trkpt lat="59.9160862" lon="17.7012639">
        <ele>51.5679</ele>
        <time>2014-05-15T16:44:20Z</time>
      </trkpt>
      <trkpt lat="59.916063" lon="17.7012895">
        <ele>51.5679</ele>
        <time>2014-05-15T16:44:21Z</time>
      </trkpt>
      <trkpt lat="59.9160414" lon="17.7013198">
        <ele>51.5679</ele>
        <time>2014-05-15T16:44:22Z</time>
      </trkpt>
      <trkpt lat="59.9160189" lon="17.7013495">
        <ele>50.6066</ele>
        <time>2014-05-15T16:44:23Z</time>
      </trkpt>
      <trkpt lat="59.9159954" lon="17.7013775">
        <ele>51.0872</ele>
        <time>2014-05-15T16:44:24Z</time>
      </trkpt>
      <trkpt lat="59.9159745" lon="17.7014002">
        <ele>51.0872</ele>
        <time>2014-05-15T16:44:25Z</time>
      </trkpt>
      <trkpt lat="59.9159539" lon="17.7014188">
        <ele>50.126</ele>
        <time>2014-05-15T16:44:26Z</time>
      </trkpt>
      <trkpt lat="59.9159317" lon="17.7014423">
        <ele>50.126</ele>
        <time>2014-05-15T16:44:27Z</time>
      </trkpt>
      <trkpt lat="59.9159135" lon="17.7014694">
        <ele>50.6066</ele>
        <time>2014-05-15T16:44:28Z</time>
      </trkpt>
      <trkpt lat="59.9158932" lon="17.701492">
        <ele>50.6066</ele>
        <time>2014-05-15T16:44:29Z</time>
      </trkpt>
      <trkpt lat="59.9158731" lon="17.7015137">
        <ele>50.6066</ele>
        <time>2014-05-15T16:44:30Z</time>
      </trkpt>
      <trkpt lat="59.9158557" lon="17.7015385">
        <ele>50.6066</ele>
        <time>2014-05-15T16:44:31Z</time>
      </trkpt>
      <trkpt lat="59.9158404" lon="17.7015583">
        <ele>50.6066</ele>
        <time>2014-05-15T16:44:32Z</time>
      </trkpt>
      <trkpt lat="59.9158244" lon="17.7015787">
        <ele>50.6066</ele>
        <time>2014-05-15T16:44:33Z</time>
      </trkpt>
      <trkpt lat="59.9158093" lon="17.7015955">
        <ele>50.6066</ele>
        <time>2014-05-15T16:44:34Z</time>
      </trkpt>
      <trkpt lat="59.9157954" lon="17.7016075">
        <ele>50.126</ele>
        <time>2014-05-15T16:44:35Z</time>
      </trkpt>
      <trkpt lat="59.915776" lon="17.7016174">
        <ele>48.684</ele>
        <time>2014-05-15T16:44:36Z</time>
      </trkpt>
      <trkpt lat="59.9157563" lon="17.7016359">
        <ele>47.7225</ele>
        <time>2014-05-15T16:44:37Z</time>
      </trkpt>
      <trkpt lat="59.9157274" lon="17.7016634">
        <ele>48.2034</ele>
        <time>2014-05-15T16:44:38Z</time>
      </trkpt>
      <trkpt lat="59.9157055" lon="17.7016929">
        <ele>46.2806</ele>
        <time>2014-05-15T16:44:39Z</time>
      </trkpt>
      <trkpt lat="59.9156797" lon="17.7017222">
        <ele>45.3192</ele>
        <time>2014-05-15T16:44:40Z</time>
      </trkpt>
      <trkpt lat="59.9156503" lon="17.7017436">
        <ele>45.3192</ele>
        <time>2014-05-15T16:44:41Z</time>
      </trkpt>
      <trkpt lat="59.9156187" lon="17.7017644">
        <ele>46.7612</ele>
        <time>2014-05-15T16:44:42Z</time>
      </trkpt>
      <trkpt lat="59.9155934" lon="17.7017804">
        <ele>46.2806</ele>
        <time>2014-05-15T16:44:43Z</time>
      </trkpt>
      <trkpt lat="59.9155677" lon="17.7017925">
        <ele>45.7999</ele>
        <time>2014-05-15T16:44:44Z</time>
      </trkpt>
      <trkpt lat="59.9155362" lon="17.7018034">
        <ele>44.8386</ele>
        <time>2014-05-15T16:44:45Z</time>
      </trkpt>
      <trkpt lat="59.9155032" lon="17.7018075">
        <ele>44.358</ele>
        <time>2014-05-15T16:44:46Z</time>
      </trkpt>
      <trkpt lat="59.9154732" lon="17.7018027">
        <ele>42.916</ele>
        <time>2014-05-15T16:44:47Z</time>
      </trkpt>
      <trkpt lat="59.9154467" lon="17.7017909">
        <ele>41.474</ele>
        <time>2014-05-15T16:44:48Z</time>
      </trkpt>
      <trkpt lat="59.915427" lon="17.7017885">
        <ele>40.5128</ele>
        <time>2014-05-15T16:44:49Z</time>
      </trkpt>
      <trkpt lat="59.9154131" lon="17.7018039">
        <ele>40.5128</ele>
        <time>2014-05-15T16:44:50Z</time>
      </trkpt>
      <trkpt lat="59.9153978" lon="17.7018173">
        <ele>40.0321</ele>
        <time>2014-05-15T16:44:51Z</time>
      </trkpt>
      <trkpt lat="59.915383" lon="17.7018298">
        <ele>39.0707</ele>
        <time>2014-05-15T16:44:52Z</time>
      </trkpt>
      <trkpt lat="59.9153622" lon="17.7018424">
        <ele>39.5513</ele>
        <time>2014-05-15T16:44:53Z</time>
      </trkpt>
      <trkpt lat="59.9153374" lon="17.7018337">
        <ele>40.0321</ele>
        <time>2014-05-15T16:44:54Z</time>
      </trkpt>
      <trkpt lat="59.9153136" lon="17.7018142">
        <ele>39.5513</ele>
        <time>2014-05-15T16:44:55Z</time>
      </trkpt>
      <trkpt lat="59.915288" lon="17.7017976">
        <ele>40.0321</ele>
        <time>2014-05-15T16:44:56Z</time>
      </trkpt>
      <trkpt lat="59.9152574" lon="17.7017901">
        <ele>40.0321</ele>
        <time>2014-05-15T16:44:57Z</time>
      </trkpt>
      <trkpt lat="59.9152244" lon="17.7017741">
        <ele>39.5513</ele>
        <time>2014-05-15T16:44:58Z</time>
      </trkpt>
      <trkpt lat="59.9151913" lon="17.7017592">
        <ele>39.0707</ele>
        <time>2014-05-15T16:44:59Z</time>
      </trkpt>
      <trkpt lat="59.9151551" lon="17.7017557">
        <ele>39.5513</ele>
        <time>2014-05-15T16:45:00Z</time>
      </trkpt>
      <trkpt lat="59.9151188" lon="17.7017494">
        <ele>39.0707</ele>
        <time>2014-05-15T16:45:01Z</time>
      </trkpt>
      <trkpt lat="59.9150866" lon="17.7017494">
        <ele>39.5513</ele>
        <time>2014-05-15T16:45:02Z</time>
      </trkpt>
      <trkpt lat="59.9150566" lon="17.7017485">
        <ele>39.5513</ele>
        <time>2014-05-15T16:45:03Z</time>
      </trkpt>
      <trkpt lat="59.9150248" lon="17.7017405">
        <ele>39.5513</ele>
        <time>2014-05-15T16:45:04Z</time>
      </trkpt>
      <trkpt lat="59.9149898" lon="17.7017355">
        <ele>39.0707</ele>
        <time>2014-05-15T16:45:05Z</time>
      </trkpt>
      <trkpt lat="59.9149565" lon="17.7017251">
        <ele>39.5513</ele>
        <time>2014-05-15T16:45:06Z</time>
      </trkpt>
      <trkpt lat="59.9149256" lon="17.7017116">
        <ele>39.5513</ele>
        <time>2014-05-15T16:45:07Z</time>
      </trkpt>
      <trkpt lat="59.9148919" lon="17.7017055">
        <ele>39.5513</ele>
        <time>2014-05-15T16:45:08Z</time>
      </trkpt>
      <trkpt lat="59.9148633" lon="17.7016974">
        <ele>39.5513</ele>
        <time>2014-05-15T16:45:09Z</time>
      </trkpt>
      <trkpt lat="59.9148355" lon="17.7016929">
        <ele>39.5513</ele>
        <time>2014-05-15T16:45:10Z</time>
      </trkpt>
      <trkpt lat="59.9148021" lon="17.7016982">
        <ele>40.0321</ele>
        <time>2014-05-15T16:45:11Z</time>
      </trkpt>
      <trkpt lat="59.9147656" lon="17.7017005">
        <ele>40.0321</ele>
        <time>2014-05-15T16:45:12Z</time>
      </trkpt>
      <trkpt lat="59.9147353" lon="17.701698">
        <ele>40.5128</ele>
        <time>2014-05-15T16:45:13Z</time>
      </trkpt>
      <trkpt lat="59.9147076" lon="17.7017021">
        <ele>40.9934</ele>
        <time>2014-05-15T16:45:14Z</time>
      </trkpt>
      <trkpt lat="59.914675" lon="17.7017032">
        <ele>40.9934</ele>
        <time>2014-05-15T16:45:15Z</time>
      </trkpt>
      <trkpt lat="59.9146443" lon="17.7017173">
        <ele>41.474</ele>
        <time>2014-05-15T16:45:16Z</time>
      </trkpt>
      <trkpt lat="59.9146172" lon="17.7017292">
        <ele>41.474</ele>
        <time>2014-05-15T16:45:17Z</time>
      </trkpt>
      <trkpt lat="59.9145914" lon="17.7017437">
        <ele>41.9547</ele>
        <time>2014-05-15T16:45:18Z</time>
      </trkpt>
      <trkpt lat="59.9145671" lon="17.7017499">
        <ele>41.9547</ele>
        <time>2014-05-15T16:45:19Z</time>
      </trkpt>
      <trkpt lat="59.9145417" lon="17.7017525">
        <ele>41.474</ele>
        <time>2014-05-15T16:45:20Z</time>
      </trkpt>
      <trkpt lat="59.9145161" lon="17.701757">
        <ele>41.9547</ele>
        <time>2014-05-15T16:45:21Z</time>
      </trkpt>
      <trkpt lat="59.9144884" lon="17.7017561">
        <ele>41.9547</ele>
        <time>2014-05-15T16:45:22Z</time>
      </trkpt>
      <trkpt lat="59.9144603" lon="17.7017516">
        <ele>42.4354</ele>
        <time>2014-05-15T16:45:23Z</time>
      </trkpt>
      <trkpt lat="59.9144324" lon="17.7017523">
        <ele>42.4354</ele>
        <time>2014-05-15T16:45:24Z</time>
      </trkpt>
      <trkpt lat="59.9144053" lon="17.7017604">
        <ele>42.916</ele>
        <time>2014-05-15T16:45:25Z</time>
      </trkpt>
      <trkpt lat="59.9143796" lon="17.7017649">
        <ele>42.916</ele>
        <time>2014-05-15T16:45:26Z</time>
      </trkpt>
      <trkpt lat="59.9143538" lon="17.7017732">
        <ele>42.916</ele>
        <time>2014-05-15T16:45:27Z</time>
      </trkpt>
      <trkpt lat="59.9143267" lon="17.7017876">
        <ele>42.916</ele>
        <time>2014-05-15T16:45:28Z</time>
      </trkpt>
      <trkpt lat="59.9142993" lon="17.7018139">
        <ele>43.3966</ele>
        <time>2014-05-15T16:45:29Z</time>
      </trkpt>
      <trkpt lat="59.9142696" lon="17.7018307">
        <ele>43.3966</ele>
        <time>2014-05-15T16:45:30Z</time>
      </trkpt>
      <trkpt lat="59.9142412" lon="17.7018478">
        <ele>42.916</ele>
        <time>2014-05-15T16:45:31Z</time>
      </trkpt>
      <trkpt lat="59.9142167" lon="17.701868">
        <ele>42.4354</ele>
        <time>2014-05-15T16:45:32Z</time>
      </trkpt>
      <trkpt lat="59.9141935" lon="17.7018997">
        <ele>42.916</ele>
        <time>2014-05-15T16:45:33Z</time>
      </trkpt>
      <trkpt lat="59.9141754" lon="17.7019337">
        <ele>43.3966</ele>
        <time>2014-05-15T16:45:34Z</time>
      </trkpt>
      <trkpt lat="59.9141658" lon="17.7019783">
        <ele>44.358</ele>
        <time>2014-05-15T16:45:35Z</time>
      </trkpt>
      <trkpt lat="59.9141585" lon="17.7020325">
        <ele>44.8386</ele>
        <time>2014-05-15T16:45:36Z</time>
      </trkpt>
      <trkpt lat="59.9141495" lon="17.7020912">
        <ele>44.8386</ele>
        <time>2014-05-15T16:45:37Z</time>
      </trkpt>
      <trkpt lat="59.9141429" lon="17.702144">
        <ele>45.3192</ele>
        <time>2014-05-15T16:45:38Z</time>
      </trkpt>
      <trkpt lat="59.9141351" lon="17.7021943">
        <ele>45.7999</ele>
        <time>2014-05-15T16:45:39Z</time>
      </trkpt>
      <trkpt lat="59.9141221" lon="17.7022491">
        <ele>46.2806</ele>
        <time>2014-05-15T16:45:40Z</time>
      </trkpt>
      <trkpt lat="59.9141113" lon="17.7022999">
        <ele>46.2806</ele>
        <time>2014-05-15T16:45:41Z</time>
      </trkpt>
      <trkpt lat="59.9141015" lon="17.7023413">
        <ele>46.2806</ele>
        <time>2014-05-15T16:45:42Z</time>
      </trkpt>
      <trkpt lat="59.9140884" lon="17.702387">
        <ele>46.2806</ele>
        <time>2014-05-15T16:45:43Z</time>
      </trkpt>
      <trkpt lat="59.9140715" lon="17.7024332">
        <ele>46.2806</ele>
        <time>2014-05-15T16:45:44Z</time>
      </trkpt>
      <trkpt lat="59.9140513" lon="17.7024777">
        <ele>46.2806</ele>
        <time>2014-05-15T16:45:45Z</time>
      </trkpt>
      <trkpt lat="59.9140299" lon="17.7025149">
        <ele>46.2806</ele>
        <time>2014-05-15T16:45:46Z</time>
      </trkpt>
      <trkpt lat="59.9140056" lon="17.7025434">
        <ele>46.2806</ele>
        <time>2014-05-15T16:45:47Z</time>
      </trkpt>
      <trkpt lat="59.9139797" lon="17.7025756">
        <ele>46.2806</ele>
        <time>2014-05-15T16:45:48Z</time>
      </trkpt>
      <trkpt lat="59.9139554" lon="17.7026034">
        <ele>45.7999</ele>
        <time>2014-05-15T16:45:49Z</time>
      </trkpt>
      <trkpt lat="59.9139304" lon="17.7026376">
        <ele>45.7999</ele>
        <time>2014-05-15T16:45:50Z</time>
      </trkpt>
      <trkpt lat="59.9139077" lon="17.7026687">
        <ele>45.3192</ele>
        <time>2014-05-15T16:45:51Z</time>
      </trkpt>
      <trkpt lat="59.913888" lon="17.7026971">
        <ele>45.3192</ele>
        <time>2014-05-15T16:45:52Z</time>
      </trkpt>
      <trkpt lat="59.9138744" lon="17.7027388">
        <ele>45.3192</ele>
        <time>2014-05-15T16:45:53Z</time>
      </trkpt>
      <trkpt lat="59.9138596" lon="17.7027796">
        <ele>46.2806</ele>
        <time>2014-05-15T16:45:54Z</time>
      </trkpt>
      <trkpt lat="59.9138415" lon="17.7028169">
        <ele>45.7999</ele>
        <time>2014-05-15T16:45:55Z</time>
      </trkpt>
      <trkpt lat="59.9138233" lon="17.7028532">
        <ele>45.3192</ele>
        <time>2014-05-15T16:45:56Z</time>
      </trkpt>
      <trkpt lat="59.9138098" lon="17.7029005">
        <ele>45.7999</ele>
        <time>2014-05-15T16:45:57Z</time>
      </trkpt>
      <trkpt lat="59.9137971" lon="17.7029532">
        <ele>45.7999</ele>
        <time>2014-05-15T16:45:58Z</time>
      </trkpt>
      <trkpt lat="59.9137796" lon="17.703007">
        <ele>45.7999</ele>
        <time>2014-05-15T16:45:59Z</time>
      </trkpt>
      <trkpt lat="59.9137583" lon="17.7030526">
        <ele>45.3192</ele>
        <time>2014-05-15T16:46:00Z</time>
      </trkpt>
      <trkpt lat="59.9137407" lon="17.7030941">
        <ele>45.3192</ele>
        <time>2014-05-15T16:46:01Z</time>
      </trkpt>
      <trkpt lat="59.9137252" lon="17.7031319">
        <ele>44.8386</ele>
        <time>2014-05-15T16:46:02Z</time>
      </trkpt>
      <trkpt lat="59.9137057" lon="17.7031697">
        <ele>43.8773</ele>
        <time>2014-05-15T16:46:03Z</time>
      </trkpt>
      <trkpt lat="59.9136869" lon="17.7032121">
        <ele>43.3966</ele>
        <time>2014-05-15T16:46:04Z</time>
      </trkpt>
      <trkpt lat="59.9136693" lon="17.7032514">
        <ele>42.916</ele>
        <time>2014-05-15T16:46:05Z</time>
      </trkpt>
      <trkpt lat="59.9136511" lon="17.7032854">
        <ele>42.4354</ele>
        <time>2014-05-15T16:46:06Z</time>
      </trkpt>
      <trkpt lat="59.9136331" lon="17.7033224">
        <ele>41.9547</ele>
        <time>2014-05-15T16:46:07Z</time>
      </trkpt>
      <trkpt lat="59.9136158" lon="17.7033625">
        <ele>41.9547</ele>
        <time>2014-05-15T16:46:08Z</time>
      </trkpt>
      <trkpt lat="59.9136044" lon="17.7034058">
        <ele>41.474</ele>
        <time>2014-05-15T16:46:09Z</time>
      </trkpt>
      <trkpt lat="59.9136003" lon="17.7034525">
        <ele>41.474</ele>
        <time>2014-05-15T16:46:10Z</time>
      </trkpt>
      <trkpt lat="59.913597" lon="17.7034982">
        <ele>40.9934</ele>
        <time>2014-05-15T16:46:11Z</time>
      </trkpt>
      <trkpt lat="59.9135943" lon="17.7035458">
        <ele>40.9934</ele>
        <time>2014-05-15T16:46:12Z</time>
      </trkpt>
      <trkpt lat="59.9135942" lon="17.7035982">
        <ele>40.9934</ele>
        <time>2014-05-15T16:46:13Z</time>
      </trkpt>
      <trkpt lat="59.9135928" lon="17.7036566">
        <ele>41.474</ele>
        <time>2014-05-15T16:46:14Z</time>
      </trkpt>
      <trkpt lat="59.9135917" lon="17.7037137">
        <ele>40.9934</ele>
        <time>2014-05-15T16:46:15Z</time>
      </trkpt>
      <trkpt lat="59.9135936" lon="17.7037739">
        <ele>40.9934</ele>
        <time>2014-05-15T16:46:16Z</time>
      </trkpt>
      <trkpt lat="59.9135973" lon="17.7038396">
        <ele>41.474</ele>
        <time>2014-05-15T16:46:17Z</time>
      </trkpt>
      <trkpt lat="59.9136036" lon="17.7039032">
        <ele>40.9934</ele>
        <time>2014-05-15T16:46:18Z</time>
      </trkpt>
      <trkpt lat="59.9136141" lon="17.7039695">
        <ele>40.9934</ele>
        <time>2014-05-15T16:46:19Z</time>
      </trkpt>
      <trkpt lat="59.9136208" lon="17.7040374">
        <ele>40.9934</ele>
        <time>2014-05-15T16:46:20Z</time>
      </trkpt>
      <trkpt lat="59.9136238" lon="17.7041017">
        <ele>41.474</ele>
        <time>2014-05-15T16:46:21Z</time>
      </trkpt>
      <trkpt lat="59.9136272" lon="17.704154">
        <ele>41.474</ele>
        <time>2014-05-15T16:46:22Z</time>
      </trkpt>
      <trkpt lat="59.9136338" lon="17.704204">
        <ele>41.474</ele>
        <time>2014-05-15T16:46:23Z</time>
      </trkpt>
      <trkpt lat="59.9136431" lon="17.7042591">
        <ele>41.9547</ele>
        <time>2014-05-15T16:46:24Z</time>
      </trkpt>
      <trkpt lat="59.9136529" lon="17.7043157">
        <ele>42.4354</ele>
        <time>2014-05-15T16:46:25Z</time>
      </trkpt>
      <trkpt lat="59.9136601" lon="17.7043757">
        <ele>42.916</ele>
        <time>2014-05-15T16:46:26Z</time>
      </trkpt>
      <trkpt lat="59.9136677" lon="17.7044411">
        <ele>42.916</ele>
        <time>2014-05-15T16:46:27Z</time>
      </trkpt>
      <trkpt lat="59.9136756" lon="17.7045017">
        <ele>43.3966</ele>
        <time>2014-05-15T16:46:28Z</time>
      </trkpt>
      <trkpt lat="59.9136781" lon="17.7045534">
        <ele>43.3966</ele>
        <time>2014-05-15T16:46:29Z</time>
      </trkpt>
      <trkpt lat="59.9136798" lon="17.7046108">
        <ele>43.8773</ele>
        <time>2014-05-15T16:46:30Z</time>
      </trkpt>
      <trkpt lat="59.9136823" lon="17.7046703">
        <ele>44.358</ele>
        <time>2014-05-15T16:46:31Z</time>
      </trkpt>
      <trkpt lat="59.9136761" lon="17.7047285">
        <ele>44.8386</ele>
        <time>2014-05-15T16:46:32Z</time>
      </trkpt>
      <trkpt lat="59.9136615" lon="17.7047715">
        <ele>45.3192</ele>
        <time>2014-05-15T16:46:33Z</time>
      </trkpt>
      <trkpt lat="59.9136441" lon="17.7048016">
        <ele>45.3192</ele>
        <time>2014-05-15T16:46:34Z</time>
      </trkpt>
      <trkpt lat="59.9136258" lon="17.7048353">
        <ele>45.7999</ele>
        <time>2014-05-15T16:46:35Z</time>
      </trkpt>
      <trkpt lat="59.9136072" lon="17.7048626">
        <ele>46.2806</ele>
        <time>2014-05-15T16:46:36Z</time>
      </trkpt>
      <trkpt lat="59.9135922" lon="17.7048948">
        <ele>46.7612</ele>
        <time>2014-05-15T16:46:37Z</time>
      </trkpt>
      <trkpt lat="59.9135746" lon="17.7049321">
        <ele>46.7612</ele>
        <time>2014-05-15T16:46:38Z</time>
      </trkpt>
      <trkpt lat="59.913557" lon="17.7049715">
        <ele>46.2806</ele>
        <time>2014-05-15T16:46:39Z</time>
      </trkpt>
      <trkpt lat="59.9135377" lon="17.7050098">
        <ele>46.2806</ele>
        <time>2014-05-15T16:46:40Z</time>
      </trkpt>
      <trkpt lat="59.9135195" lon="17.7050516">
        <ele>46.7612</ele>
        <time>2014-05-15T16:46:41Z</time>
      </trkpt>
      <trkpt lat="59.9135001" lon="17.7050893">
        <ele>46.7612</ele>
        <time>2014-05-15T16:46:42Z</time>
      </trkpt>
      <trkpt lat="59.9134812" lon="17.7051267">
        <ele>47.2418</ele>
        <time>2014-05-15T16:46:43Z</time>
      </trkpt>
      <trkpt lat="59.9134643" lon="17.7051625">
        <ele>48.2034</ele>
        <time>2014-05-15T16:46:44Z</time>
      </trkpt>
      <trkpt lat="59.9134472" lon="17.7051956">
        <ele>48.2034</ele>
        <time>2014-05-15T16:46:45Z</time>
      </trkpt>
      <trkpt lat="59.9134323" lon="17.7052305">
        <ele>48.684</ele>
        <time>2014-05-15T16:46:46Z</time>
      </trkpt>
      <trkpt lat="59.9134224" lon="17.7052665">
        <ele>48.684</ele>
        <time>2014-05-15T16:46:47Z</time>
      </trkpt>
      <trkpt lat="59.9134149" lon="17.705318">
        <ele>49.1646</ele>
        <time>2014-05-15T16:46:48Z</time>
      </trkpt>
      <trkpt lat="59.9134078" lon="17.7053651">
        <ele>48.684</ele>
        <time>2014-05-15T16:46:49Z</time>
      </trkpt>
      <trkpt lat="59.9134024" lon="17.7054117">
        <ele>49.6453</ele>
        <time>2014-05-15T16:46:50Z</time>
      </trkpt>
      <trkpt lat="59.9133978" lon="17.7054661">
        <ele>49.6453</ele>
        <time>2014-05-15T16:46:51Z</time>
      </trkpt>
      <trkpt lat="59.9133915" lon="17.7055214">
        <ele>49.1646</ele>
        <time>2014-05-15T16:46:52Z</time>
      </trkpt>
      <trkpt lat="59.9133839" lon="17.705584">
        <ele>49.1646</ele>
        <time>2014-05-15T16:46:53Z</time>
      </trkpt>
      <trkpt lat="59.9133752" lon="17.705646">
        <ele>49.6453</ele>
        <time>2014-05-15T16:46:54Z</time>
      </trkpt>
      <trkpt lat="59.9133643" lon="17.7057074">
        <ele>50.126</ele>
        <time>2014-05-15T16:46:55Z</time>
      </trkpt>
      <trkpt lat="59.9133566" lon="17.705755">
        <ele>49.6453</ele>
        <time>2014-05-15T16:46:56Z</time>
      </trkpt>
      <trkpt lat="59.9133528" lon="17.7058002">
        <ele>49.6453</ele>
        <time>2014-05-15T16:46:57Z</time>
      </trkpt>
      <trkpt lat="59.9133476" lon="17.7058461">
        <ele>49.1646</ele>
        <time>2014-05-15T16:46:58Z</time>
      </trkpt>
      <trkpt lat="59.9133382" lon="17.7058816">
        <ele>49.1646</ele>
        <time>2014-05-15T16:46:59Z</time>
      </trkpt>
      <trkpt lat="59.9133244" lon="17.7059204">
        <ele>48.684</ele>
        <time>2014-05-15T16:47:00Z</time>
      </trkpt>
      <trkpt lat="59.9133084" lon="17.7059673">
        <ele>50.126</ele>
        <time>2014-05-15T16:47:01Z</time>
      </trkpt>
      <trkpt lat="59.9132928" lon="17.7060096">
        <ele>50.6066</ele>
        <time>2014-05-15T16:47:02Z</time>
      </trkpt>
      <trkpt lat="59.9132774" lon="17.7060374">
        <ele>49.6453</ele>
        <time>2014-05-15T16:47:03Z</time>
      </trkpt>
      <trkpt lat="59.9132651" lon="17.7060794">
        <ele>49.1646</ele>
        <time>2014-05-15T16:47:04Z</time>
      </trkpt>
      <trkpt lat="59.9132612" lon="17.7061352">
        <ele>48.684</ele>
        <time>2014-05-15T16:47:05Z</time>
      </trkpt>
      <trkpt lat="59.9132518" lon="17.706181">
        <ele>46.7612</ele>
        <time>2014-05-15T16:47:06Z</time>
      </trkpt>
      <trkpt lat="59.9132404" lon="17.7062265">
        <ele>46.2806</ele>
        <time>2014-05-15T16:47:07Z</time>
      </trkpt>
      <trkpt lat="59.9132306" lon="17.7062665">
        <ele>46.2806</ele>
        <time>2014-05-15T16:47:08Z</time>
      </trkpt>
      <trkpt lat="59.9132219" lon="17.7063083">
        <ele>46.2806</ele>
        <time>2014-05-15T16:47:09Z</time>
      </trkpt>
      <trkpt lat="59.9132106" lon="17.7063492">
        <ele>46.7612</ele>
        <time>2014-05-15T16:47:10Z</time>
      </trkpt>
      <trkpt lat="59.9131974" lon="17.7063794">
        <ele>47.2418</ele>
        <time>2014-05-15T16:47:11Z</time>
      </trkpt>
      <trkpt lat="59.9131784" lon="17.7064066">
        <ele>47.2418</ele>
        <time>2014-05-15T16:47:12Z</time>
      </trkpt>
      <trkpt lat="59.9131595" lon="17.7064269">
        <ele>45.7999</ele>
        <time>2014-05-15T16:47:13Z</time>
      </trkpt>
      <trkpt lat="59.9131404" lon="17.7064374">
        <ele>44.8386</ele>
        <time>2014-05-15T16:47:14Z</time>
      </trkpt>
      <trkpt lat="59.9131188" lon="17.7064457">
        <ele>43.3966</ele>
        <time>2014-05-15T16:47:15Z</time>
      </trkpt>
      <trkpt lat="59.9130927" lon="17.7064675">
        <ele>42.916</ele>
        <time>2014-05-15T16:47:16Z</time>
      </trkpt>
      <trkpt lat="59.913069" lon="17.7064786">
        <ele>41.474</ele>
        <time>2014-05-15T16:47:17Z</time>
      </trkpt>
      <trkpt lat="59.9130447" lon="17.7064975">
        <ele>40.9934</ele>
        <time>2014-05-15T16:47:18Z</time>
      </trkpt>
      <trkpt lat="59.9130198" lon="17.7065146">
        <ele>39.5513</ele>
        <time>2014-05-15T16:47:19Z</time>
      </trkpt>
      <trkpt lat="59.9129994" lon="17.7065239">
        <ele>38.1094</ele>
        <time>2014-05-15T16:47:20Z</time>
      </trkpt>
      <trkpt lat="59.9129774" lon="17.7065291">
        <ele>36.6675</ele>
        <time>2014-05-15T16:47:21Z</time>
      </trkpt>
      <trkpt lat="59.9129541" lon="17.7065325">
        <ele>35.2255</ele>
        <time>2014-05-15T16:47:22Z</time>
      </trkpt>
      <trkpt lat="59.9129292" lon="17.7065425">
        <ele>34.7449</ele>
        <time>2014-05-15T16:47:23Z</time>
      </trkpt>
      <trkpt lat="59.9129047" lon="17.7065445">
        <ele>34.2642</ele>
        <time>2014-05-15T16:47:24Z</time>
      </trkpt>
      <trkpt lat="59.9128793" lon="17.7065415">
        <ele>34.2642</ele>
        <time>2014-05-15T16:47:25Z</time>
      </trkpt>
      <trkpt lat="59.9128519" lon="17.706531">
        <ele>34.2642</ele>
        <time>2014-05-15T16:47:26Z</time>
      </trkpt>
      <trkpt lat="59.9128238" lon="17.7065161">
        <ele>33.7834</ele>
        <time>2014-05-15T16:47:27Z</time>
      </trkpt>
      <trkpt lat="59.9127966" lon="17.7065068">
        <ele>33.3029</ele>
        <time>2014-05-15T16:47:28Z</time>
      </trkpt>
      <trkpt lat="59.9127694" lon="17.7065068">
        <ele>32.3416</ele>
        <time>2014-05-15T16:47:29Z</time>
      </trkpt>
      <trkpt lat="59.9127489" lon="17.7065213">
        <ele>32.3416</ele>
        <time>2014-05-15T16:47:30Z</time>
      </trkpt>
      <trkpt lat="59.9127269" lon="17.7065346">
        <ele>31.3801</ele>
        <time>2014-05-15T16:47:31Z</time>
      </trkpt>
      <trkpt lat="59.9127003" lon="17.7065492">
        <ele>31.3801</ele>
        <time>2014-05-15T16:47:32Z</time>
      </trkpt>
      <trkpt lat="59.9126754" lon="17.706562">
        <ele>31.3801</ele>
        <time>2014-05-15T16:47:33Z</time>
      </trkpt>
      <trkpt lat="59.9126513" lon="17.706574">
        <ele>31.3801</ele>
        <time>2014-05-15T16:47:34Z</time>
      </trkpt>
      <trkpt lat="59.9126244" lon="17.7065746">
        <ele>30.8995</ele>
        <time>2014-05-15T16:47:35Z</time>
      </trkpt>
      <trkpt lat="59.912599" lon="17.7065748">
        <ele>30.4188</ele>
        <time>2014-05-15T16:47:36Z</time>
      </trkpt>
      <trkpt lat="59.9125744" lon="17.7065777">
        <ele>29.4575</ele>
        <time>2014-05-15T16:47:37Z</time>
      </trkpt>
      <trkpt lat="59.9125524" lon="17.7065859">
        <ele>28.0155</ele>
        <time>2014-05-15T16:47:38Z</time>
      </trkpt>
      <trkpt lat="59.9125312" lon="17.7065978">
        <ele>27.5349</ele>
        <time>2014-05-15T16:47:39Z</time>
      </trkpt>
      <trkpt lat="59.9125117" lon="17.7066138">
        <ele>25.6123</ele>
        <time>2014-05-15T16:47:40Z</time>
      </trkpt>
      <trkpt lat="59.9124949" lon="17.7066399">
        <ele>25.1317</ele>
        <time>2014-05-15T16:47:41Z</time>
      </trkpt>
      <trkpt lat="59.9124748" lon="17.7066736">
        <ele>24.1703</ele>
        <time>2014-05-15T16:47:42Z</time>
      </trkpt>
      <trkpt lat="59.912463" lon="17.7067151">
        <ele>23.6896</ele>
        <time>2014-05-15T16:47:43Z</time>
      </trkpt>
      <trkpt lat="59.9124543" lon="17.706761">
        <ele>23.209</ele>
        <time>2014-05-15T16:47:44Z</time>
      </trkpt>
      <trkpt lat="59.9124486" lon="17.7068078">
        <ele>22.7283</ele>
        <time>2014-05-15T16:47:45Z</time>
      </trkpt>
      <trkpt lat="59.9124509" lon="17.7068601">
        <ele>22.2476</ele>
        <time>2014-05-15T16:47:46Z</time>
      </trkpt>
      <trkpt lat="59.9124524" lon="17.7069518">
        <ele>24.1703</ele>
        <time>2014-05-15T16:47:47Z</time>
      </trkpt>
      <trkpt lat="59.9124557" lon="17.7070346">
        <ele>25.1317</ele>
        <time>2014-05-15T16:47:48Z</time>
      </trkpt>
      <trkpt lat="59.9124617" lon="17.7071323">
        <ele>28.0155</ele>
        <time>2014-05-15T16:47:49Z</time>
      </trkpt>
      <trkpt lat="59.9124721" lon="17.7072202">
        <ele>30.4188</ele>
        <time>2014-05-15T16:47:50Z</time>
      </trkpt>
      <trkpt lat="59.9124811" lon="17.7073">
        <ele>32.8223</ele>
        <time>2014-05-15T16:47:51Z</time>
      </trkpt>
      <trkpt lat="59.9124863" lon="17.7073768">
        <ele>34.2642</ele>
        <time>2014-05-15T16:47:52Z</time>
      </trkpt>
      <trkpt lat="59.9124888" lon="17.7074409">
        <ele>35.2255</ele>
        <time>2014-05-15T16:47:53Z</time>
      </trkpt>
      <trkpt lat="59.9124947" lon="17.7075105">
        <ele>35.7061</ele>
        <time>2014-05-15T16:47:54Z</time>
      </trkpt>
      <trkpt lat="59.9124895" lon="17.7075809">
        <ele>35.7061</ele>
        <time>2014-05-15T16:47:55Z</time>
      </trkpt>
      <trkpt lat="59.9124837" lon="17.7076358">
        <ele>36.6675</ele>
        <time>2014-05-15T16:47:56Z</time>
      </trkpt>
      <trkpt lat="59.9124711" lon="17.7076884">
        <ele>36.6675</ele>
        <time>2014-05-15T16:47:57Z</time>
      </trkpt>
      <trkpt lat="59.9124464" lon="17.707748">
        <ele>37.6287</ele>
        <time>2014-05-15T16:47:58Z</time>
      </trkpt>
      <trkpt lat="59.9124267" lon="17.7077943">
        <ele>38.1094</ele>
        <time>2014-05-15T16:47:59Z</time>
      </trkpt>
      <trkpt lat="59.9123992" lon="17.7078303">
        <ele>38.1094</ele>
        <time>2014-05-15T16:48:00Z</time>
      </trkpt>
      <trkpt lat="59.9123768" lon="17.7078741">
        <ele>38.5901</ele>
        <time>2014-05-15T16:48:01Z</time>
      </trkpt>
      <trkpt lat="59.9123524" lon="17.7079135">
        <ele>37.6287</ele>
        <time>2014-05-15T16:48:02Z</time>
      </trkpt>
      <trkpt lat="59.9123314" lon="17.7079537">
        <ele>37.6287</ele>
        <time>2014-05-15T16:48:03Z</time>
      </trkpt>
      <trkpt lat="59.9123149" lon="17.7079878">
        <ele>37.6287</ele>
        <time>2014-05-15T16:48:04Z</time>
      </trkpt>
      <trkpt lat="59.912304" lon="17.708029">
        <ele>38.1094</ele>
        <time>2014-05-15T16:48:05Z</time>
      </trkpt>
      <trkpt lat="59.9122944" lon="17.7080718">
        <ele>37.6287</ele>
        <time>2014-05-15T16:48:06Z</time>
      </trkpt>
      <trkpt lat="59.9122884" lon="17.7081172">
        <ele>38.1094</ele>
        <time>2014-05-15T16:48:07Z</time>
      </trkpt>
      <trkpt lat="59.9122817" lon="17.7081798">
        <ele>39.0707</ele>
        <time>2014-05-15T16:48:08Z</time>
      </trkpt>
      <trkpt lat="59.9122794" lon="17.7082564">
        <ele>40.0321</ele>
        <time>2014-05-15T16:48:09Z</time>
      </trkpt>
      <trkpt lat="59.9122794" lon="17.7083426">
        <ele>41.474</ele>
        <time>2014-05-15T16:48:10Z</time>
      </trkpt>
      <trkpt lat="59.9122753" lon="17.7084162">
        <ele>41.9547</ele>
        <time>2014-05-15T16:48:11Z</time>
      </trkpt>
      <trkpt lat="59.9122691" lon="17.7084962">
        <ele>42.4354</ele>
        <time>2014-05-15T16:48:12Z</time>
      </trkpt>
      <trkpt lat="59.9122593" lon="17.708541">
        <ele>41.9547</ele>
        <time>2014-05-15T16:48:13Z</time>
      </trkpt>
      <trkpt lat="59.9122469" lon="17.7086007">
        <ele>41.9547</ele>
        <time>2014-05-15T16:48:14Z</time>
      </trkpt>
      <trkpt lat="59.9122329" lon="17.7086482">
        <ele>41.474</ele>
        <time>2014-05-15T16:48:15Z</time>
      </trkpt>
      <trkpt lat="59.91222" lon="17.7086933">
        <ele>40.5128</ele>
        <time>2014-05-15T16:48:16Z</time>
      </trkpt>
      <trkpt lat="59.9122015" lon="17.7087468">
        <ele>40.0321</ele>
        <time>2014-05-15T16:48:17Z</time>
      </trkpt>
      <trkpt lat="59.9121827" lon="17.7087851">
        <ele>40.0321</ele>
        <time>2014-05-15T16:48:18Z</time>
      </trkpt>
      <trkpt lat="59.9121603" lon="17.7088301">
        <ele>40.0321</ele>
        <time>2014-05-15T16:48:19Z</time>
      </trkpt>
      <trkpt lat="59.912135" lon="17.7088762">
        <ele>39.5513</ele>
        <time>2014-05-15T16:48:20Z</time>
      </trkpt>
      <trkpt lat="59.9121108" lon="17.7089174">
        <ele>39.5513</ele>
        <time>2014-05-15T16:48:21Z</time>
      </trkpt>
      <trkpt lat="59.9120926" lon="17.7089482">
        <ele>39.5513</ele>
        <time>2014-05-15T16:48:22Z</time>
      </trkpt>
      <trkpt lat="59.9120779" lon="17.7090014">
        <ele>40.0321</ele>
        <time>2014-05-15T16:48:23Z</time>
      </trkpt>
      <trkpt lat="59.9120636" lon="17.7090378">
        <ele>39.5513</ele>
        <time>2014-05-15T16:48:24Z</time>
      </trkpt>
      <trkpt lat="59.9120485" lon="17.709091">
        <ele>40.0321</ele>
        <time>2014-05-15T16:48:25Z</time>
      </trkpt>
      <trkpt lat="59.9120385" lon="17.7091414">
        <ele>40.0321</ele>
        <time>2014-05-15T16:48:26Z</time>
      </trkpt>
      <trkpt lat="59.9120344" lon="17.7092045">
        <ele>40.9934</ele>
        <time>2014-05-15T16:48:27Z</time>
      </trkpt>
      <trkpt lat="59.9120359" lon="17.7092444">
        <ele>40.9934</ele>
        <time>2014-05-15T16:48:28Z</time>
      </trkpt>
      <trkpt lat="59.9120359" lon="17.7092952">
        <ele>40.9934</ele>
        <time>2014-05-15T16:48:29Z</time>
      </trkpt>
      <trkpt lat="59.9120346" lon="17.7093491">
        <ele>40.9934</ele>
        <time>2014-05-15T16:48:30Z</time>
      </trkpt>
      <trkpt lat="59.9120377" lon="17.709403">
        <ele>41.9547</ele>
        <time>2014-05-15T16:48:31Z</time>
      </trkpt>
      <trkpt lat="59.9120383" lon="17.7094548">
        <ele>41.9547</ele>
        <time>2014-05-15T16:48:32Z</time>
      </trkpt>
      <trkpt lat="59.912032" lon="17.709503">
        <ele>41.474</ele>
        <time>2014-05-15T16:48:33Z</time>
      </trkpt>
      <trkpt lat="59.9120195" lon="17.7095387">
        <ele>40.0321</ele>
        <time>2014-05-15T16:48:34Z</time>
      </trkpt>
      <trkpt lat="59.9120045" lon="17.7095885">
        <ele>40.0321</ele>
        <time>2014-05-15T16:48:35Z</time>
      </trkpt>
      <trkpt lat="59.9119869" lon="17.7096402">
        <ele>40.5128</ele>
        <time>2014-05-15T16:48:36Z</time>
      </trkpt>
      <trkpt lat="59.9119673" lon="17.7096811">
        <ele>39.0707</ele>
        <time>2014-05-15T16:48:37Z</time>
      </trkpt>
      <trkpt lat="59.9119522" lon="17.7097345">
        <ele>39.5513</ele>
        <time>2014-05-15T16:48:38Z</time>
      </trkpt>
      <trkpt lat="59.9119366" lon="17.7097749">
        <ele>38.5901</ele>
        <time>2014-05-15T16:48:39Z</time>
      </trkpt>
      <trkpt lat="59.9119183" lon="17.7098183">
        <ele>38.5901</ele>
        <time>2014-05-15T16:48:40Z</time>
      </trkpt>
      <trkpt lat="59.9118999" lon="17.7098454">
        <ele>38.1094</ele>
        <time>2014-05-15T16:48:41Z</time>
      </trkpt>
      <trkpt lat="59.9118832" lon="17.709866">
        <ele>37.6287</ele>
        <time>2014-05-15T16:48:42Z</time>
      </trkpt>
      <trkpt lat="59.911865" lon="17.7099018">
        <ele>37.1481</ele>
        <time>2014-05-15T16:48:43Z</time>
      </trkpt>
      <trkpt lat="59.9118487" lon="17.7099381">
        <ele>36.6675</ele>
        <time>2014-05-15T16:48:44Z</time>
      </trkpt>
      <trkpt lat="59.9118264" lon="17.7099682">
        <ele>36.6675</ele>
        <time>2014-05-15T16:48:45Z</time>
      </trkpt>
      <trkpt lat="59.9118044" lon="17.7099967">
        <ele>37.6287</ele>
        <time>2014-05-15T16:48:46Z</time>
      </trkpt>
      <trkpt lat="59.9117834" lon="17.7100174">
        <ele>37.6287</ele>
        <time>2014-05-15T16:48:47Z</time>
      </trkpt>
      <trkpt lat="59.9117608" lon="17.7100406">
        <ele>38.1094</ele>
        <time>2014-05-15T16:48:48Z</time>
      </trkpt>
      <trkpt lat="59.9117341" lon="17.7100602">
        <ele>38.5901</ele>
        <time>2014-05-15T16:48:49Z</time>
      </trkpt>
      <trkpt lat="59.9117097" lon="17.7100686">
        <ele>39.0707</ele>
        <time>2014-05-15T16:48:50Z</time>
      </trkpt>
      <trkpt lat="59.9116899" lon="17.710064">
        <ele>38.5901</ele>
        <time>2014-05-15T16:48:51Z</time>
      </trkpt>
      <trkpt lat="59.9116641" lon="17.7100586">
        <ele>38.1094</ele>
        <time>2014-05-15T16:48:52Z</time>
      </trkpt>
      <trkpt lat="59.9116398" lon="17.7100615">
        <ele>37.6287</ele>
        <time>2014-05-15T16:48:53Z</time>
      </trkpt>
      <trkpt lat="59.911615" lon="17.7100549">
        <ele>37.1481</ele>
        <time>2014-05-15T16:48:54Z</time>
      </trkpt>
      <trkpt lat="59.9115922" lon="17.7100349">
        <ele>37.1481</ele>
        <time>2014-05-15T16:48:55Z</time>
      </trkpt>
      <trkpt lat="59.9115671" lon="17.7100084">
        <ele>36.6675</ele>
        <time>2014-05-15T16:48:56Z</time>
      </trkpt>
      <trkpt lat="59.9115491" lon="17.7099764">
        <ele>35.7061</ele>
        <time>2014-05-15T16:48:57Z</time>
      </trkpt>
      <trkpt lat="59.9115322" lon="17.7099281">
        <ele>35.2255</ele>
        <time>2014-05-15T16:48:58Z</time>
      </trkpt>
      <trkpt lat="59.9115164" lon="17.7098811">
        <ele>33.7834</ele>
        <time>2014-05-15T16:48:59Z</time>
      </trkpt>
      <trkpt lat="59.9115036" lon="17.7098433">
        <ele>33.3029</ele>
        <time>2014-05-15T16:49:00Z</time>
      </trkpt>
      <trkpt lat="59.9114915" lon="17.7097807">
        <ele>32.3416</ele>
        <time>2014-05-15T16:49:01Z</time>
      </trkpt>
      <trkpt lat="59.9114782" lon="17.709721">
        <ele>32.3416</ele>
        <time>2014-05-15T16:49:02Z</time>
      </trkpt>
      <trkpt lat="59.9114663" lon="17.7096724">
        <ele>32.8223</ele>
        <time>2014-05-15T16:49:03Z</time>
      </trkpt>
      <trkpt lat="59.9114588" lon="17.7096221">
        <ele>32.8223</ele>
        <time>2014-05-15T16:49:04Z</time>
      </trkpt>
      <trkpt lat="59.9114595" lon="17.7095818">
        <ele>32.8223</ele>
        <time>2014-05-15T16:49:05Z</time>
      </trkpt>
      <trkpt lat="59.911458" lon="17.709561">
        <ele>32.8223</ele>
        <time>2014-05-15T16:49:06Z</time>
      </trkpt>
      <trkpt lat="59.9114605" lon="17.7095313">
        <ele>33.3029</ele>
        <time>2014-05-15T16:49:07Z</time>
      </trkpt>
      <trkpt lat="59.9114549" lon="17.7094937">
        <ele>33.3029</ele>
        <time>2014-05-15T16:49:08Z</time>
      </trkpt>
      <trkpt lat="59.9114409" lon="17.7094589">
        <ele>33.3029</ele>
        <time>2014-05-15T16:49:09Z</time>
      </trkpt>
      <trkpt lat="59.9114269" lon="17.709419">
        <ele>32.8223</ele>
        <time>2014-05-15T16:49:10Z</time>
      </trkpt>
      <trkpt lat="59.9114057" lon="17.7093828">
        <ele>31.8607</ele>
        <time>2014-05-15T16:49:11Z</time>
      </trkpt>
      <trkpt lat="59.9113855" lon="17.7093577">
        <ele>32.3416</ele>
        <time>2014-05-15T16:49:12Z</time>
      </trkpt>
      <trkpt lat="59.9113678" lon="17.709332">
        <ele>32.8223</ele>
        <time>2014-05-15T16:49:13Z</time>
      </trkpt>
      <trkpt lat="59.9113473" lon="17.7093091">
        <ele>32.8223</ele>
        <time>2014-05-15T16:49:14Z</time>
      </trkpt>
      <trkpt lat="59.9113286" lon="17.7092907">
        <ele>32.8223</ele>
        <time>2014-05-15T16:49:15Z</time>
      </trkpt>
      <trkpt lat="59.9113123" lon="17.7092748">
        <ele>34.2642</ele>
        <time>2014-05-15T16:49:16Z</time>
      </trkpt>
      <trkpt lat="59.9112975" lon="17.7092609">
        <ele>34.7449</ele>
        <time>2014-05-15T16:49:17Z</time>
      </trkpt>
      <trkpt lat="59.9112533" lon="17.7092314">
        <ele>36.1868</ele>
        <time>2014-05-15T16:49:19Z</time>
      </trkpt>
      <trkpt lat="59.9112314" lon="17.7092143">
        <ele>36.6675</ele>
        <time>2014-05-15T16:49:20Z</time>
      </trkpt>
      <trkpt lat="59.9112077" lon="17.7092124">
        <ele>37.1481</ele>
        <time>2014-05-15T16:49:21Z</time>
      </trkpt>
      <trkpt lat="59.911181" lon="17.7092081">
        <ele>37.1481</ele>
        <time>2014-05-15T16:49:22Z</time>
      </trkpt>
      <trkpt lat="59.9111545" lon="17.7092072">
        <ele>38.1094</ele>
        <time>2014-05-15T16:49:23Z</time>
      </trkpt>
      <trkpt lat="59.9111274" lon="17.7092134">
        <ele>39.5513</ele>
        <time>2014-05-15T16:49:24Z</time>
      </trkpt>
      <trkpt lat="59.9111093" lon="17.7092134">
        <ele>40.5128</ele>
        <time>2014-05-15T16:49:25Z</time>
      </trkpt>
      <trkpt lat="59.9110947" lon="17.7092393">
        <ele>41.474</ele>
        <time>2014-05-15T16:49:26Z</time>
      </trkpt>
      <trkpt lat="59.9110788" lon="17.709263">
        <ele>42.4354</ele>
        <time>2014-05-15T16:49:27Z</time>
      </trkpt>
      <trkpt lat="59.9110607" lon="17.7092806">
        <ele>43.3966</ele>
        <time>2014-05-15T16:49:28Z</time>
      </trkpt>
      <trkpt lat="59.9110363" lon="17.7093014">
        <ele>43.8773</ele>
        <time>2014-05-15T16:49:29Z</time>
      </trkpt>
      <trkpt lat="59.9110125" lon="17.7093352">
        <ele>46.2806</ele>
        <time>2014-05-15T16:49:30Z</time>
      </trkpt>
      <trkpt lat="59.9109903" lon="17.7093476">
        <ele>46.2806</ele>
        <time>2014-05-15T16:49:31Z</time>
      </trkpt>
      <trkpt lat="59.9109664" lon="17.7093506">
        <ele>46.7612</ele>
        <time>2014-05-15T16:49:32Z</time>
      </trkpt>
      <trkpt lat="59.9109415" lon="17.7093394">
        <ele>46.7612</ele>
        <time>2014-05-15T16:49:33Z</time>
      </trkpt>
      <trkpt lat="59.9109183" lon="17.7093337">
        <ele>47.2418</ele>
        <time>2014-05-15T16:49:34Z</time>
      </trkpt>
      <trkpt lat="59.910896" lon="17.7093283">
        <ele>47.2418</ele>
        <time>2014-05-15T16:49:35Z</time>
      </trkpt>
      <trkpt lat="59.9108785" lon="17.7093155">
        <ele>47.7225</ele>
        <time>2014-05-15T16:49:36Z</time>
      </trkpt>
      <trkpt lat="59.9108633" lon="17.7092947">
        <ele>47.7225</ele>
        <time>2014-05-15T16:49:37Z</time>
      </trkpt>
      <trkpt lat="59.9108526" lon="17.7092914">
        <ele>48.684</ele>
        <time>2014-05-15T16:49:38Z</time>
      </trkpt>
      <trkpt lat="59.9108474" lon="17.7092793">
        <ele>49.6453</ele>
        <time>2014-05-15T16:49:39Z</time>
      </trkpt>
      <trkpt lat="59.9108295" lon="17.7092719">
        <ele>49.6453</ele>
        <time>2014-05-15T16:49:40Z</time>
      </trkpt>
      <trkpt lat="59.9108117" lon="17.7092631">
        <ele>49.6453</ele>
        <time>2014-05-15T16:49:41Z</time>
      </trkpt>
      <trkpt lat="59.9108021" lon="17.709251">
        <ele>50.126</ele>
        <time>2014-05-15T16:49:42Z</time>
      </trkpt>
      <trkpt lat="59.9107857" lon="17.7092342">
        <ele>50.126</ele>
        <time>2014-05-15T16:49:43Z</time>
      </trkpt>
      <trkpt lat="59.9107599" lon="17.7092227">
        <ele>49.1646</ele>
        <time>2014-05-15T16:49:44Z</time>
      </trkpt>
      <trkpt lat="59.9107293" lon="17.7092113">
        <ele>47.7225</ele>
        <time>2014-05-15T16:49:45Z</time>
      </trkpt>
      <trkpt lat="59.9106986" lon="17.7092047">
        <ele>47.7225</ele>
        <time>2014-05-15T16:49:46Z</time>
      </trkpt>
      <trkpt lat="59.9106717" lon="17.7091993">
        <ele>46.2806</ele>
        <time>2014-05-15T16:49:47Z</time>
      </trkpt>
      <trkpt lat="59.9106463" lon="17.709203">
        <ele>46.2806</ele>
        <time>2014-05-15T16:49:48Z</time>
      </trkpt>
      <trkpt lat="59.9106173" lon="17.7092035">
        <ele>45.3192</ele>
        <time>2014-05-15T16:49:49Z</time>
      </trkpt>
      <trkpt lat="59.9105883" lon="17.7092055">
        <ele>44.8386</ele>
        <time>2014-05-15T16:49:50Z</time>
      </trkpt>
      <trkpt lat="59.9105613" lon="17.7092061">
        <ele>44.8386</ele>
        <time>2014-05-15T16:49:51Z</time>
      </trkpt>
      <trkpt lat="59.9105313" lon="17.7091855">
        <ele>43.8773</ele>
        <time>2014-05-15T16:49:52Z</time>
      </trkpt>
      <trkpt lat="59.9105033" lon="17.7091664">
        <ele>43.3966</ele>
        <time>2014-05-15T16:49:53Z</time>
      </trkpt>
      <trkpt lat="59.9104751" lon="17.7091485">
        <ele>43.3966</ele>
        <time>2014-05-15T16:49:54Z</time>
      </trkpt>
      <trkpt lat="59.9104549" lon="17.7091467">
        <ele>44.358</ele>
        <time>2014-05-15T16:49:55Z</time>
      </trkpt>
      <trkpt lat="59.9104373" lon="17.7091361">
        <ele>44.358</ele>
        <time>2014-05-15T16:49:56Z</time>
      </trkpt>
      <trkpt lat="59.9104224" lon="17.7091103">
        <ele>43.8773</ele>
        <time>2014-05-15T16:49:57Z</time>
      </trkpt>
      <trkpt lat="59.9104162" lon="17.7090891">
        <ele>42.916</ele>
        <time>2014-05-15T16:49:58Z</time>
      </trkpt>
      <trkpt lat="59.9103971" lon="17.7090668">
        <ele>41.9547</ele>
        <time>2014-05-15T16:49:59Z</time>
      </trkpt>
      <trkpt lat="59.9103728" lon="17.7090479">
        <ele>41.474</ele>
        <time>2014-05-15T16:50:00Z</time>
      </trkpt>
      <trkpt lat="59.9103402" lon="17.7090319">
        <ele>40.9934</ele>
        <time>2014-05-15T16:50:01Z</time>
      </trkpt>
      <trkpt lat="59.9103125" lon="17.7090286">
        <ele>40.5128</ele>
        <time>2014-05-15T16:50:02Z</time>
      </trkpt>
      <trkpt lat="59.910281" lon="17.7090272">
        <ele>39.5513</ele>
        <time>2014-05-15T16:50:03Z</time>
      </trkpt>
      <trkpt lat="59.9102522" lon="17.7090341">
        <ele>39.0707</ele>
        <time>2014-05-15T16:50:04Z</time>
      </trkpt>
      <trkpt lat="59.9102236" lon="17.7090526">
        <ele>38.5901</ele>
        <time>2014-05-15T16:50:05Z</time>
      </trkpt>
      <trkpt lat="59.9101975" lon="17.7090636">
        <ele>38.5901</ele>
        <time>2014-05-15T16:50:06Z</time>
      </trkpt>
      <trkpt lat="59.9101713" lon="17.7090703">
        <ele>38.1094</ele>
        <time>2014-05-15T16:50:07Z</time>
      </trkpt>
      <trkpt lat="59.9101475" lon="17.7090927">
        <ele>39.0707</ele>
        <time>2014-05-15T16:50:08Z</time>
      </trkpt>
      <trkpt lat="59.9101267" lon="17.7091045">
        <ele>38.1094</ele>
        <time>2014-05-15T16:50:09Z</time>
      </trkpt>
      <trkpt lat="59.9101003" lon="17.7090957">
        <ele>37.1481</ele>
        <time>2014-05-15T16:50:10Z</time>
      </trkpt>
      <trkpt lat="59.9100779" lon="17.7090994">
        <ele>37.1481</ele>
        <time>2014-05-15T16:50:11Z</time>
      </trkpt>
      <trkpt lat="59.9100468" lon="17.7091187">
        <ele>38.5901</ele>
        <time>2014-05-15T16:50:12Z</time>
      </trkpt>
      <trkpt lat="59.9100163" lon="17.7091185">
        <ele>38.5901</ele>
        <time>2014-05-15T16:50:13Z</time>
      </trkpt>
      <trkpt lat="59.9099903" lon="17.709133">
        <ele>39.0707</ele>
        <time>2014-05-15T16:50:14Z</time>
      </trkpt>
      <trkpt lat="59.9099644" lon="17.7091378">
        <ele>39.0707</ele>
        <time>2014-05-15T16:50:15Z</time>
      </trkpt>
      <trkpt lat="59.9099377" lon="17.7091616">
        <ele>38.5901</ele>
        <time>2014-05-15T16:50:16Z</time>
      </trkpt>
      <trkpt lat="59.9099024" lon="17.7091826">
        <ele>39.0707</ele>
        <time>2014-05-15T16:50:17Z</time>
      </trkpt>
      <trkpt lat="59.9098745" lon="17.7092104">
        <ele>40.9934</ele>
        <time>2014-05-15T16:50:18Z</time>
      </trkpt>
      <trkpt lat="59.9098507" lon="17.7092205">
        <ele>41.474</ele>
        <time>2014-05-15T16:50:19Z</time>
      </trkpt>
      <trkpt lat="59.9098193" lon="17.7092275">
        <ele>41.474</ele>
        <time>2014-05-15T16:50:20Z</time>
      </trkpt>
      <trkpt lat="59.9097862" lon="17.7092366">
        <ele>41.474</ele>
        <time>2014-05-15T16:50:21Z</time>
      </trkpt>
      <trkpt lat="59.9097527" lon="17.7092461">
        <ele>41.9547</ele>
        <time>2014-05-15T16:50:22Z</time>
      </trkpt>
      <trkpt lat="59.9097225" lon="17.7092536">
        <ele>42.4354</ele>
        <time>2014-05-15T16:50:23Z</time>
      </trkpt>
      <trkpt lat="59.9096977" lon="17.7092728">
        <ele>42.4354</ele>
        <time>2014-05-15T16:50:24Z</time>
      </trkpt>
      <trkpt lat="59.9096801" lon="17.7093098">
        <ele>43.3966</ele>
        <time>2014-05-15T16:50:25Z</time>
      </trkpt>
      <trkpt lat="59.9096616" lon="17.7093393">
        <ele>44.8386</ele>
        <time>2014-05-15T16:50:26Z</time>
      </trkpt>
      <trkpt lat="59.9096414" lon="17.7093687">
        <ele>45.3192</ele>
        <time>2014-05-15T16:50:27Z</time>
      </trkpt>
      <trkpt lat="59.9096206" lon="17.709392">
        <ele>46.2806</ele>
        <time>2014-05-15T16:50:28Z</time>
      </trkpt>
      <trkpt lat="59.909603" lon="17.7094196">
        <ele>44.358</ele>
        <time>2014-05-15T16:50:29Z</time>
      </trkpt>
      <trkpt lat="59.9095828" lon="17.7094518">
        <ele>42.916</ele>
        <time>2014-05-15T16:50:30Z</time>
      </trkpt>
      <trkpt lat="59.9095647" lon="17.7094821">
        <ele>40.5128</ele>
        <time>2014-05-15T16:50:31Z</time>
      </trkpt>
      <trkpt lat="59.9095474" lon="17.7095286">
        <ele>40.5128</ele>
        <time>2014-05-15T16:50:32Z</time>
      </trkpt>
      <trkpt lat="59.9095282" lon="17.709558">
        <ele>39.0707</ele>
        <time>2014-05-15T16:50:33Z</time>
      </trkpt>
      <trkpt lat="59.909501" lon="17.7095868">
        <ele>37.1481</ele>
        <time>2014-05-15T16:50:34Z</time>
      </trkpt>
      <trkpt lat="59.9094757" lon="17.7096118">
        <ele>34.7449</ele>
        <time>2014-05-15T16:50:35Z</time>
      </trkpt>
      <trkpt lat="59.9094476" lon="17.7096527">
        <ele>35.2255</ele>
        <time>2014-05-15T16:50:36Z</time>
      </trkpt>
      <trkpt lat="59.909419" lon="17.7096795">
        <ele>33.3029</ele>
        <time>2014-05-15T16:50:37Z</time>
      </trkpt>
      <trkpt lat="59.9093969" lon="17.7097158">
        <ele>31.8607</ele>
        <time>2014-05-15T16:50:38Z</time>
      </trkpt>
      <trkpt lat="59.9093796" lon="17.7097574">
        <ele>31.3801</ele>
        <time>2014-05-15T16:50:39Z</time>
      </trkpt>
      <trkpt lat="59.9093578" lon="17.7097936">
        <ele>31.8607</ele>
        <time>2014-05-15T16:50:40Z</time>
      </trkpt>
      <trkpt lat="59.9093379" lon="17.7098106">
        <ele>30.8995</ele>
        <time>2014-05-15T16:50:41Z</time>
      </trkpt>
      <trkpt lat="59.9093203" lon="17.7098391">
        <ele>29.4575</ele>
        <time>2014-05-15T16:50:42Z</time>
      </trkpt>
      <trkpt lat="59.9093005" lon="17.7098661">
        <ele>28.0155</ele>
        <time>2014-05-15T16:50:43Z</time>
      </trkpt>
      <trkpt lat="59.9092737" lon="17.7098997">
        <ele>27.0543</ele>
        <time>2014-05-15T16:50:44Z</time>
      </trkpt>
      <trkpt lat="59.9092462" lon="17.7099262">
        <ele>25.6123</ele>
        <time>2014-05-15T16:50:45Z</time>
      </trkpt>
      <trkpt lat="59.909218" lon="17.7099562">
        <ele>24.1703</ele>
        <time>2014-05-15T16:50:46Z</time>
      </trkpt>
      <trkpt lat="59.9091905" lon="17.7099843">
        <ele>24.651</ele>
        <time>2014-05-15T16:50:47Z</time>
      </trkpt>
      <trkpt lat="59.9091662" lon="17.7100091">
        <ele>24.1703</ele>
        <time>2014-05-15T16:50:48Z</time>
      </trkpt>
      <trkpt lat="59.9091431" lon="17.7100359">
        <ele>23.6896</ele>
        <time>2014-05-15T16:50:49Z</time>
      </trkpt>
      <trkpt lat="59.9091109" lon="17.7100829">
        <ele>24.651</ele>
        <time>2014-05-15T16:50:50Z</time>
      </trkpt>
      <trkpt lat="59.9090851" lon="17.7101343">
        <ele>25.6123</ele>
        <time>2014-05-15T16:50:51Z</time>
      </trkpt>
      <trkpt lat="59.9090625" lon="17.7101804">
        <ele>26.0929</ele>
        <time>2014-05-15T16:50:52Z</time>
      </trkpt>
      <trkpt lat="59.9090388" lon="17.7102295">
        <ele>26.5736</ele>
        <time>2014-05-15T16:50:53Z</time>
      </trkpt>
      <trkpt lat="59.9090177" lon="17.7102803">
        <ele>27.0543</ele>
        <time>2014-05-15T16:50:54Z</time>
      </trkpt>
      <trkpt lat="59.908997" lon="17.7103231">
        <ele>28.0155</ele>
        <time>2014-05-15T16:50:55Z</time>
      </trkpt>
      <trkpt lat="59.9089736" lon="17.7103546">
        <ele>27.5349</ele>
        <time>2014-05-15T16:50:56Z</time>
      </trkpt>
      <trkpt lat="59.908946" lon="17.7103856">
        <ele>27.0543</ele>
        <time>2014-05-15T16:50:57Z</time>
      </trkpt>
      <trkpt lat="59.9089238" lon="17.7104158">
        <ele>26.5736</ele>
        <time>2014-05-15T16:50:58Z</time>
      </trkpt>
      <trkpt lat="59.9088952" lon="17.7104364">
        <ele>26.5736</ele>
        <time>2014-05-15T16:50:59Z</time>
      </trkpt>
      <trkpt lat="59.9088688" lon="17.7104575">
        <ele>27.0543</ele>
        <time>2014-05-15T16:51:00Z</time>
      </trkpt>
      <trkpt lat="59.9088463" lon="17.7104674">
        <ele>26.5736</ele>
        <time>2014-05-15T16:51:01Z</time>
      </trkpt>
      <trkpt lat="59.9088207" lon="17.7104918">
        <ele>28.0155</ele>
        <time>2014-05-15T16:51:02Z</time>
      </trkpt>
      <trkpt lat="59.9088001" lon="17.7105224">
        <ele>28.4962</ele>
        <time>2014-05-15T16:51:03Z</time>
      </trkpt>
      <trkpt lat="59.9087772" lon="17.7105641">
        <ele>29.4575</ele>
        <time>2014-05-15T16:51:04Z</time>
      </trkpt>
      <trkpt lat="59.9087556" lon="17.7105859">
        <ele>28.9769</ele>
        <time>2014-05-15T16:51:05Z</time>
      </trkpt>
      <trkpt lat="59.908731" lon="17.7106256">
        <ele>29.9381</ele>
        <time>2014-05-15T16:51:06Z</time>
      </trkpt>
      <trkpt lat="59.9087089" lon="17.7106649">
        <ele>29.9381</ele>
        <time>2014-05-15T16:51:07Z</time>
      </trkpt>
      <trkpt lat="59.9086877" lon="17.7107071">
        <ele>30.4188</ele>
        <time>2014-05-15T16:51:08Z</time>
      </trkpt>
      <trkpt lat="59.9086685" lon="17.7107512">
        <ele>31.3801</ele>
        <time>2014-05-15T16:51:09Z</time>
      </trkpt>
      <trkpt lat="59.9086495" lon="17.7107995">
        <ele>33.7834</ele>
        <time>2014-05-15T16:51:10Z</time>
      </trkpt>
      <trkpt lat="59.9086318" lon="17.7108368">
        <ele>34.7449</ele>
        <time>2014-05-15T16:51:11Z</time>
      </trkpt>
      <trkpt lat="59.9086105" lon="17.7108679">
        <ele>34.7449</ele>
        <time>2014-05-15T16:51:12Z</time>
      </trkpt>
      <trkpt lat="59.908588" lon="17.710916">
        <ele>35.7061</ele>
        <time>2014-05-15T16:51:13Z</time>
      </trkpt>
      <trkpt lat="59.9085616" lon="17.7109514">
        <ele>35.2255</ele>
        <time>2014-05-15T16:51:14Z</time>
      </trkpt>
      <trkpt lat="59.9085374" lon="17.710989">
        <ele>35.7061</ele>
        <time>2014-05-15T16:51:15Z</time>
      </trkpt>
      <trkpt lat="59.9085212" lon="17.7110119">
        <ele>36.1868</ele>
        <time>2014-05-15T16:51:16Z</time>
      </trkpt>
      <trkpt lat="59.9085031" lon="17.7110353">
        <ele>36.1868</ele>
        <time>2014-05-15T16:51:17Z</time>
      </trkpt>
      <trkpt lat="59.908482" lon="17.7110746">
        <ele>36.6675</ele>
        <time>2014-05-15T16:51:18Z</time>
      </trkpt>
      <trkpt lat="59.9084649" lon="17.7111216">
        <ele>37.1481</ele>
        <time>2014-05-15T16:51:19Z</time>
      </trkpt>
      <trkpt lat="59.9084523" lon="17.711177">
        <ele>38.5901</ele>
        <time>2014-05-15T16:51:20Z</time>
      </trkpt>
      <trkpt lat="59.908439" lon="17.711218">
        <ele>38.1094</ele>
        <time>2014-05-15T16:51:21Z</time>
      </trkpt>
      <trkpt lat="59.9084243" lon="17.711261">
        <ele>37.1481</ele>
        <time>2014-05-15T16:51:22Z</time>
      </trkpt>
      <trkpt lat="59.9084147" lon="17.7113046">
        <ele>37.1481</ele>
        <time>2014-05-15T16:51:23Z</time>
      </trkpt>
      <trkpt lat="59.9084027" lon="17.7113564">
        <ele>36.6675</ele>
        <time>2014-05-15T16:51:24Z</time>
      </trkpt>
      <trkpt lat="59.9083913" lon="17.7114185">
        <ele>37.1481</ele>
        <time>2014-05-15T16:51:25Z</time>
      </trkpt>
      <trkpt lat="59.9083848" lon="17.7114791">
        <ele>37.1481</ele>
        <time>2014-05-15T16:51:26Z</time>
      </trkpt>
      <trkpt lat="59.9083852" lon="17.7115352">
        <ele>37.1481</ele>
        <time>2014-05-15T16:51:27Z</time>
      </trkpt>
      <trkpt lat="59.9083878" lon="17.7115962">
        <ele>37.1481</ele>
        <time>2014-05-15T16:51:28Z</time>
      </trkpt>
      <trkpt lat="59.9083935" lon="17.7116563">
        <ele>37.6287</ele>
        <time>2014-05-15T16:51:29Z</time>
      </trkpt>
      <trkpt lat="59.9084005" lon="17.7117139">
        <ele>37.6287</ele>
        <time>2014-05-15T16:51:30Z</time>
      </trkpt>
      <trkpt lat="59.9084079" lon="17.7117724">
        <ele>37.6287</ele>
        <time>2014-05-15T16:51:31Z</time>
      </trkpt>
      <trkpt lat="59.9084172" lon="17.7118376">
        <ele>38.1094</ele>
        <time>2014-05-15T16:51:32Z</time>
      </trkpt>
      <trkpt lat="59.9084257" lon="17.7118937">
        <ele>38.1094</ele>
        <time>2014-05-15T16:51:33Z</time>
      </trkpt>
      <trkpt lat="59.908433" lon="17.7119536">
        <ele>37.6287</ele>
        <time>2014-05-15T16:51:34Z</time>
      </trkpt>
      <trkpt lat="59.9084332" lon="17.7120142">
        <ele>37.1481</ele>
        <time>2014-05-15T16:51:35Z</time>
      </trkpt>
      <trkpt lat="59.9084359" lon="17.7120734">
        <ele>37.1481</ele>
        <time>2014-05-15T16:51:36Z</time>
      </trkpt>
      <trkpt lat="59.9084422" lon="17.7121276">
        <ele>36.6675</ele>
        <time>2014-05-15T16:51:37Z</time>
      </trkpt>
      <trkpt lat="59.9084505" lon="17.7121889">
        <ele>36.6675</ele>
        <time>2014-05-15T16:51:38Z</time>
      </trkpt>
      <trkpt lat="59.9084668" lon="17.71225">
        <ele>37.1481</ele>
        <time>2014-05-15T16:51:39Z</time>
      </trkpt>
      <trkpt lat="59.9084839" lon="17.7123045">
        <ele>37.1481</ele>
        <time>2014-05-15T16:51:40Z</time>
      </trkpt>
      <trkpt lat="59.9085058" lon="17.7123396">
        <ele>36.6675</ele>
        <time>2014-05-15T16:51:41Z</time>
      </trkpt>
      <trkpt lat="59.9085251" lon="17.7123773">
        <ele>36.1868</ele>
        <time>2014-05-15T16:51:42Z</time>
      </trkpt>
      <trkpt lat="59.9085467" lon="17.7124155">
        <ele>36.6675</ele>
        <time>2014-05-15T16:51:43Z</time>
      </trkpt>
      <trkpt lat="59.9085676" lon="17.7124453">
        <ele>36.6675</ele>
        <time>2014-05-15T16:51:44Z</time>
      </trkpt>
      <trkpt lat="59.9085933" lon="17.7124744">
        <ele>37.1481</ele>
        <time>2014-05-15T16:51:45Z</time>
      </trkpt>
      <trkpt lat="59.9086188" lon="17.7125079">
        <ele>37.6287</ele>
        <time>2014-05-15T16:51:46Z</time>
      </trkpt>
      <trkpt lat="59.9086411" lon="17.7125452">
        <ele>38.1094</ele>
        <time>2014-05-15T16:51:47Z</time>
      </trkpt>
      <trkpt lat="59.9086588" lon="17.7125664">
        <ele>37.6287</ele>
        <time>2014-05-15T16:51:48Z</time>
      </trkpt>
      <trkpt lat="59.9086805" lon="17.712592">
        <ele>37.6287</ele>
        <time>2014-05-15T16:51:49Z</time>
      </trkpt>
      <trkpt lat="59.9087057" lon="17.71263">
        <ele>37.1481</ele>
        <time>2014-05-15T16:51:50Z</time>
      </trkpt>
      <trkpt lat="59.9087381" lon="17.7126777">
        <ele>38.1094</ele>
        <time>2014-05-15T16:51:51Z</time>
      </trkpt>
      <trkpt lat="59.9087694" lon="17.712731">
        <ele>38.1094</ele>
        <time>2014-05-15T16:51:52Z</time>
      </trkpt>
      <trkpt lat="59.9088016" lon="17.7127804">
        <ele>38.5901</ele>
        <time>2014-05-15T16:51:53Z</time>
      </trkpt>
      <trkpt lat="59.9088206" lon="17.7128229">
        <ele>37.6287</ele>
        <time>2014-05-15T16:51:54Z</time>
      </trkpt>
      <trkpt lat="59.9088379" lon="17.7128652">
        <ele>37.1481</ele>
        <time>2014-05-15T16:51:55Z</time>
      </trkpt>
      <trkpt lat="59.9088581" lon="17.712914">
        <ele>37.6287</ele>
        <time>2014-05-15T16:51:56Z</time>
      </trkpt>
      <trkpt lat="59.9088856" lon="17.7129689">
        <ele>38.5901</ele>
        <time>2014-05-15T16:51:57Z</time>
      </trkpt>
      <trkpt lat="59.9089152" lon="17.7130125">
        <ele>38.5901</ele>
        <time>2014-05-15T16:51:58Z</time>
      </trkpt>
      <trkpt lat="59.9089318" lon="17.7130576">
        <ele>39.0707</ele>
        <time>2014-05-15T16:51:59Z</time>
      </trkpt>
      <trkpt lat="59.9089427" lon="17.7131026">
        <ele>38.5901</ele>
        <time>2014-05-15T16:52:00Z</time>
      </trkpt>
      <trkpt lat="59.9089695" lon="17.7131491">
        <ele>40.0321</ele>
        <time>2014-05-15T16:52:01Z</time>
      </trkpt>
      <trkpt lat="59.9089952" lon="17.7131958">
        <ele>40.5128</ele>
        <time>2014-05-15T16:52:02Z</time>
      </trkpt>
      <trkpt lat="59.909015" lon="17.7132399">
        <ele>40.9934</ele>
        <time>2014-05-15T16:52:03Z</time>
      </trkpt>
      <trkpt lat="59.9090367" lon="17.7132897">
        <ele>40.9934</ele>
        <time>2014-05-15T16:52:04Z</time>
      </trkpt>
      <trkpt lat="59.9090618" lon="17.7133446">
        <ele>41.9547</ele>
        <time>2014-05-15T16:52:05Z</time>
      </trkpt>
      <trkpt lat="59.9090794" lon="17.7133964">
        <ele>42.916</ele>
        <time>2014-05-15T16:52:06Z</time>
      </trkpt>
      <trkpt lat="59.9091006" lon="17.7134365">
        <ele>43.3966</ele>
        <time>2014-05-15T16:52:07Z</time>
      </trkpt>
      <trkpt lat="59.9091176" lon="17.713474">
        <ele>43.3966</ele>
        <time>2014-05-15T16:52:08Z</time>
      </trkpt>
      <trkpt lat="59.9091316" lon="17.7135173">
        <ele>43.8773</ele>
        <time>2014-05-15T16:52:09Z</time>
      </trkpt>
      <trkpt lat="59.9091463" lon="17.7135684">
        <ele>43.3966</ele>
        <time>2014-05-15T16:52:10Z</time>
      </trkpt>
    </trkseg>
  </trk>
</gpx>